[[{"header":{"parameterUnit":"m.s-1","parameterCategory":1,"la1":30.6,"la2":29.2853,"lo1":-89.7004,"lo2":-87.6739,"dy":0.0162,"dx":0.0183,"nx":112,"ny":82,"refTime":"2024-05-16T06:00:00:Z","depth":0,"parameterNumber":2,"parameterNumberName":"U-component_of_WINDS"},"data":[0.0,0.0,0.0,0.0,0.0,0.0,0.0,0.0,0.0,0.0,0.0,0.0,0.0,0.0,0.0,0.0,0.0,0.0,0.0,0.0,0.0,0.0,0.0,0.0,0.0,0.0,0.0,0.0,0.0,0.0,0.0,0.0,0.0,0.0,0.0,0.0,0.0,0.0,0.0,0.0,0.0,0.0,0.0,0.0,0.0,0.0,0.0,0.0,0.0,0.0,0.0,0.0,0.0,0.0,0.0,0.0,0.0,0.0,0.0,0.0,0.0,0.0,0.0,0.0,0.0,0.0,0.0,0.0,0.0,0.0,0.0,0.0,0.0,0.0,0.0,0.0,0.0,0.0,0.0,0.0,0.0,0.0,0.0,0.0,0.0,0.0,0.0,0.0,0.0,0.0,-3.1981,-3.4252,-3.3729,-3.2844,-3.1969,-3.1095,-2.9657,-2.7426,0.0,0.0,0.0,0.0,0.0,0.0,0.0,0.0,0.0,0.0,0.0,0.0,0.0,0.0,0.0,0.0,0.0,0.0,0.0,0.0,0.0,0.0,0.0,0.0,0.0,0.0,0.0,0.0,0.0,0.0,0.0,0.0,0.0,0.0,0.0,0.0,0.0,0.0,0.0,0.0,0.0,0.0,0.0,0.0,0.0,0.0,0.0,0.0,0.0,0.0,0.0,0.0,0.0,0.0,0.0,0.0,0.0,0.0,0.0,0.0,0.0,0.0,0.0,0.0,0.0,0.0,0.0,0.0,0.0,0.0,0.0,0.0,0.0,0.0,0.0,0.0,0.0,0.0,0.0,0.0,0.0,0.0,0.0,0.0,0.0,0.0,0.0,0.0,0.0,0.0,0.0,0.0,0.0,0.0,0.0,0.0,0.0,0.0,0.0,0.0,0.0,0.0,0.0,0.0,-3.2646,-3.4319,-3.3219,-3.2257,-3.193,-3.1095,-2.9657,-2.7426,0.0,0.0,0.0,0.0,0.0,0.0,0.0,0.0,0.0,0.0,0.0,0.0,0.0,0.0,0.0,0.0,0.0,0.0,0.0,0.0,0.0,0.0,0.0,0.0,0.0,0.0,0.0,0.0,0.0,0.0,0.0,0.0,0.0,0.0,0.0,0.0,0.0,0.0,0.0,0.0,0.0,0.0,0.0,0.0,0.0,0.0,0.0,0.0,0.0,0.0,0.0,0.0,0.0,0.0,0.0,0.0,0.0,0.0,0.0,0.0,0.0,0.0,0.0,0.0,0.0,0.0,0.0,0.0,0.0,0.0,0.0,0.0,0.0,0.0,0.0,0.0,0.0,0.0,0.0,0.0,0.0,0.0,0.0,0.0,0.0,0.0,0.0,0.0,0.0,0.0,0.0,0.0,0.0,0.0,0.0,0.0,0.0,0.0,0.0,0.0,0.0,0.0,0.0,-3.1589,-3.212,-3.2357,-3.2284,-3.1949,-3.1313,-3.0845,-2.9687,-2.7476,-2.6877,0.0,0.0,0.0,0.0,0.0,0.0,0.0,0.0,0.0,0.0,0.0,0.0,0.0,0.0,0.0,0.0,0.0,0.0,0.0,0.0,0.0,0.0,0.0,0.0,0.0,0.0,0.0,0.0,0.0,0.0,0.0,0.0,0.0,0.0,0.0,0.0,0.0,0.0,0.0,0.0,0.0,0.0,0.0,0.0,0.0,0.0,0.0,0.0,0.0,0.0,0.0,0.0,0.0,0.0,0.0,0.0,0.0,0.0,0.0,0.0,0.0,0.0,0.0,0.0,0.0,0.0,0.0,0.0,0.0,0.0,0.0,0.0,0.0,0.0,0.0,0.0,0.0,0.0,0.0,0.0,0.0,0.0,0.0,0.0,0.0,0.0,0.0,0.0,0.0,0.0,0.0,0.0,0.0,0.0,0.0,0.0,0.0,0.0,0.0,0.0,0.0,0.0,-3.151,-3.164,-3.0972,-3.1504,-3.1561,-3.0756,-3.0472,-2.9478,-2.7528,-2.6827,0.0,0.0,0.0,0.0,0.0,0.0,0.0,0.0,0.0,0.0,0.0,0.0,0.0,0.0,0.0,0.0,0.0,0.0,0.0,0.0,0.0,0.0,0.0,0.0,0.0,0.0,0.0,0.0,0.0,0.0,0.0,0.0,0.0,0.0,0.0,0.0,0.0,0.0,0.0,0.0,0.0,0.0,0.0,0.0,0.0,0.0,0.0,0.0,0.0,0.0,0.0,0.0,0.0,0.0,0.0,0.0,0.0,0.0,0.0,0.0,0.0,0.0,0.0,0.0,0.0,0.0,0.0,0.0,0.0,0.0,0.0,0.0,0.0,0.0,0.0,0.0,0.0,0.0,0.0,0.0,0.0,0.0,0.0,0.0,0.0,0.0,0.0,0.0,0.0,0.0,0.0,0.0,0.0,0.0,0.0,0.0,0.0,0.0,0.0,0.0,0.0,0.0,-3.1505,-3.1861,-3.1822,-3.1307,-3.0897,-3.0717,-2.9968,-2.89,-2.749,-2.6246,0.0,0.0,0.0,0.0,0.0,0.0,0.0,0.0,0.0,0.0,0.0,0.0,0.0,0.0,0.0,0.0,0.0,0.0,0.0,0.0,0.0,0.0,0.0,0.0,0.0,0.0,0.0,0.0,0.0,0.0,0.0,0.0,0.0,0.0,0.0,0.0,0.0,0.0,0.0,0.0,0.0,0.0,0.0,0.0,0.0,0.0,0.0,0.0,0.0,0.0,0.0,0.0,0.0,0.0,0.0,0.0,0.0,0.0,0.0,0.0,0.0,0.0,0.0,0.0,0.0,0.0,0.0,0.0,0.0,0.0,0.0,0.0,0.0,0.0,0.0,0.0,0.0,0.0,0.0,0.0,0.0,0.0,0.0,0.0,0.0,0.0,0.0,0.0,0.0,0.0,0.0,0.0,0.0,0.0,0.0,0.0,0.0,0.0,0.0,0.0,0.0,0.0,-3.0692,-3.1029,-3.1083,-3.0897,-3.0778,-3.0818,-3.0443,-2.9413,-2.756,0.0,0.0,0.0,0.0,0.0,0.0,0.0,0.0,0.0,0.0,0.0,0.0,0.0,0.0,0.0,0.0,0.0,0.0,0.0,0.0,0.0,0.0,0.0,0.0,0.0,0.0,0.0,0.0,0.0,0.0,0.0,0.0,0.0,0.0,0.0,0.0,0.0,0.0,0.0,0.0,0.0,0.0,0.0,0.0,0.0,0.0,0.0,0.0,0.0,0.0,0.0,0.0,0.0,0.0,0.0,0.0,0.0,0.0,0.0,0.0,0.0,0.0,0.0,0.0,0.0,0.0,0.0,0.0,0.0,0.0,0.0,0.0,0.0,0.0,0.0,0.0,0.0,0.0,0.0,0.0,0.0,0.0,0.0,0.0,0.0,0.0,0.0,0.0,0.0,0.0,0.0,0.0,0.0,0.0,0.0,0.0,0.0,0.0,0.0,0.0,0.0,0.0,-2.925,-2.9991,-3.0521,-3.0577,-3.0646,-3.0767,-3.0898,-3.0303,-2.9264,-2.7692,0.0,0.0,0.0,0.0,0.0,0.0,0.0,0.0,0.0,0.0,0.0,0.0,0.0,0.0,0.0,0.0,0.0,0.0,0.0,0.0,0.0,0.0,0.0,0.0,0.0,0.0,0.0,0.0,0.0,0.0,0.0,0.0,0.0,0.0,0.0,0.0,0.0,0.0,0.0,0.0,0.0,0.0,0.0,0.0,0.0,0.0,0.0,0.0,0.0,0.0,0.0,0.0,0.0,0.0,0.0,0.0,0.0,0.0,0.0,0.0,0.0,0.0,0.0,0.0,0.0,0.0,0.0,0.0,0.0,0.0,0.0,0.0,0.0,0.0,0.0,0.0,0.0,0.0,0.0,0.0,0.0,0.0,0.0,0.0,0.0,0.0,0.0,0.0,0.0,0.0,0.0,0.0,0.0,0.0,0.0,0.0,0.0,0.0,0.0,0.0,0.0,0.0,-2.8482,-2.9657,-3.0521,-3.0577,-3.0646,-3.0766,-3.0859,-2.925,-2.8072,0.0,0.0,0.0,0.0,0.0,0.0,0.0,0.0,0.0,0.0,0.0,0.0,0.0,0.0,0.0,0.0,0.0,0.0,0.0,0.0,0.0,0.0,0.0,0.0,0.0,0.0,0.0,0.0,0.0,0.0,0.0,0.0,0.0,0.0,0.0,0.0,0.0,0.0,0.0,0.0,0.0,0.0,0.0,0.0,0.0,0.0,0.0,0.0,0.0,0.0,0.0,0.0,0.0,0.0,0.0,0.0,0.0,0.0,0.0,0.0,0.0,0.0,0.0,0.0,0.0,0.0,0.0,0.0,0.0,0.0,0.0,0.0,0.0,0.0,0.0,0.0,0.0,0.0,0.0,0.0,0.0,0.0,0.0,0.0,0.0,0.0,0.0,0.0,0.0,0.0,0.0,0.0,0.0,0.0,0.0,0.0,0.0,0.0,0.0,0.0,0.0,0.0,0.0,-2.8624,-2.973,-3.0467,-3.0607,-3.0606,-3.0462,-3.0039,-2.9491,-2.8538,-2.704,0.0,0.0,0.0,0.0,0.0,0.0,0.0,0.0,0.0,0.0,0.0,0.0,0.0,0.0,0.0,0.0,0.0,0.0,0.0,0.0,0.0,0.0,0.0,0.0,0.0,0.0,0.0,0.0,0.0,0.0,0.0,0.0,0.0,0.0,0.0,0.0,0.0,0.0,0.0,0.0,0.0,0.0,0.0,0.0,0.0,0.0,0.0,0.0,0.0,0.0,0.0,0.0,0.0,0.0,0.0,0.0,0.0,0.0,0.0,0.0,0.0,0.0,0.0,0.0,0.0,0.0,0.0,0.0,0.0,0.0,0.0,0.0,0.0,0.0,0.0,0.0,0.0,0.0,0.0,0.0,0.0,0.0,0.0,0.0,0.0,0.0,0.0,0.0,0.0,0.0,0.0,0.0,0.0,0.0,0.0,0.0,0.0,0.0,0.0,0.0,0.0,0.0,-2.8252,-2.9525,-3.032,-3.0055,-3.0059,-2.981,-2.9096,-2.875,-2.8043,-2.6782,0.0,0.0,0.0,0.0,0.0,0.0,0.0,0.0,0.0,0.0,0.0,0.0,0.0,0.0,0.0,0.0,0.0,0.0,0.0,0.0,0.0,0.0,0.0,0.0,0.0,0.0,0.0,0.0,0.0,0.0,0.0,0.0,0.0,0.0,0.0,0.0,0.0,0.0,0.0,0.0,0.0,0.0,0.0,0.0,0.0,0.0,0.0,0.0,0.0,0.0,0.0,0.0,0.0,0.0,0.0,0.0,0.0,0.0,0.0,0.0,0.0,0.0,0.0,0.0,0.0,0.0,0.0,0.0,0.0,0.0,0.0,0.0,0.0,0.0,0.0,0.0,0.0,0.0,0.0,0.0,0.0,0.0,0.0,0.0,0.0,0.0,0.0,0.0,0.0,0.0,0.0,0.0,0.0,0.0,0.0,0.0,0.0,0.0,0.0,0.0,0.0,0.0,-2.7504,-2.9116,-2.9985,-2.9154,-2.9168,-2.8897,-2.8139,-2.7419,-2.6951,-2.6818,0.0,0.0,0.0,0.0,0.0,0.0,0.0,0.0,0.0,0.0,0.0,0.0,0.0,0.0,0.0,0.0,0.0,0.0,0.0,0.0,0.0,0.0,0.0,0.0,0.0,0.0,0.0,0.0,0.0,0.0,0.0,0.0,0.0,0.0,0.0,0.0,0.0,0.0,0.0,0.0,0.0,0.0,0.0,0.0,0.0,0.0,0.0,0.0,0.0,0.0,0.0,0.0,0.0,0.0,0.0,0.0,0.0,0.0,0.0,0.0,-3.3669,-3.3486,0.0,0.0,0.0,0.0,0.0,0.0,0.0,0.0,0.0,0.0,0.0,0.0,0.0,0.0,0.0,0.0,0.0,0.0,0.0,0.0,0.0,0.0,0.0,0.0,0.0,0.0,0.0,0.0,0.0,0.0,0.0,0.0,0.0,0.0,0.0,0.0,0.0,0.0,0.0,0.0,-2.6869,-2.8297,-2.9103,-2.8345,-2.832,-2.8043,-2.724,-2.7067,-2.6719,-2.6015,-2.5681,0.0,0.0,0.0,0.0,0.0,0.0,0.0,0.0,0.0,0.0,0.0,0.0,0.0,0.0,0.0,0.0,0.0,0.0,0.0,0.0,0.0,0.0,0.0,0.0,0.0,0.0,0.0,0.0,0.0,0.0,0.0,0.0,0.0,0.0,0.0,0.0,0.0,0.0,0.0,0.0,0.0,0.0,0.0,0.0,0.0,0.0,0.0,0.0,0.0,0.0,0.0,0.0,0.0,0.0,0.0,0.0,0.0,0.0,0.0,-3.3845,-3.3705,0.0,0.0,0.0,0.0,0.0,0.0,0.0,0.0,0.0,0.0,0.0,0.0,0.0,0.0,0.0,0.0,0.0,0.0,0.0,0.0,0.0,0.0,0.0,0.0,0.0,0.0,0.0,0.0,0.0,0.0,0.0,0.0,0.0,0.0,0.0,0.0,0.0,0.0,0.0,0.0,-2.6638,-2.7643,-2.8121,-2.7412,-2.74,-2.7098,-2.6313,-2.6272,-2.6169,-2.5742,-2.5654,0.0,0.0,0.0,0.0,0.0,0.0,0.0,0.0,0.0,0.0,0.0,0.0,0.0,0.0,0.0,0.0,0.0,0.0,0.0,0.0,0.0,0.0,0.0,0.0,0.0,0.0,0.0,0.0,0.0,0.0,0.0,0.0,0.0,0.0,0.0,0.0,0.0,0.0,0.0,0.0,0.0,0.0,0.0,0.0,0.0,0.0,0.0,0.0,0.0,0.0,0.0,0.0,0.0,-3.5048,-3.4935,-3.4331,-3.4331,-3.403,-3.347,-3.4323,-3.4298,-3.3671,-3.353,0.0,0.0,0.0,0.0,0.0,0.0,0.0,0.0,0.0,0.0,0.0,0.0,0.0,0.0,0.0,0.0,0.0,0.0,0.0,0.0,0.0,0.0,-2.6945,-2.5939,-2.5961,-2.6248,-2.6441,0.0,0.0,0.0,0.0,0.0,0.0,0.0,0.0,0.0,0.0,0.0,-2.6266,-2.693,-2.7109,-2.6381,-2.6408,-2.6206,-2.5543,-2.5535,-2.5611,-2.5663,-2.5659,-2.5593,0.0,0.0,0.0,0.0,0.0,0.0,0.0,0.0,0.0,0.0,0.0,0.0,0.0,0.0,0.0,0.0,0.0,0.0,0.0,0.0,0.0,0.0,0.0,0.0,0.0,0.0,0.0,0.0,0.0,0.0,0.0,0.0,-3.5578,-3.5573,0.0,0.0,0.0,0.0,0.0,0.0,0.0,0.0,0.0,0.0,0.0,0.0,0.0,-3.4669,-3.4468,-3.4547,-3.4599,-3.4599,-3.4117,-3.3813,-3.3716,-3.3716,-3.3684,-3.3612,-3.431,0.0,-3.3994,-3.3338,0.0,0.0,0.0,0.0,0.0,0.0,0.0,0.0,0.0,0.0,0.0,0.0,0.0,0.0,0.0,0.0,0.0,0.0,0.0,0.0,0.0,0.0,-2.6723,-2.6569,-2.657,-2.6719,-2.7098,-2.6468,-2.5944,-2.6334,-2.6457,-2.6412,0.0,0.0,0.0,0.0,0.0,0.0,-2.5139,-2.5869,-2.6142,-2.5282,-2.5432,-2.5518,-2.5417,-2.5513,-2.5603,-2.5607,-2.5663,-2.5614,-2.5496,-2.4827,0.0,0.0,0.0,0.0,0.0,0.0,0.0,0.0,0.0,0.0,0.0,0.0,0.0,0.0,0.0,0.0,0.0,0.0,0.0,0.0,0.0,0.0,0.0,0.0,0.0,0.0,0.0,0.0,0.0,-3.4215,-3.5163,-3.5541,-3.5642,-3.5239,0.0,0.0,0.0,0.0,0.0,0.0,0.0,0.0,0.0,-3.4101,-3.4415,-3.4376,-3.3979,-3.4347,-3.4352,-3.3975,-3.4091,-3.395,-3.3598,-3.3598,-3.3598,-3.3624,-3.3896,-3.3957,-3.3781,-3.3384,-3.3093,-3.2803,0.0,0.0,0.0,0.0,-2.9987,-2.9698,-2.9035,-2.8583,-2.82,-2.7613,0.0,0.0,0.0,0.0,0.0,0.0,0.0,-2.6906,-2.6741,-2.6691,-2.6691,-2.6691,-2.6691,-2.6758,-2.6906,-2.6592,-2.6457,-2.7092,-2.6525,-2.5986,-2.6019,-2.5393,0.0,0.0,0.0,-2.5091,-2.4827,-2.5084,-2.5225,-2.5005,-2.5105,-2.523,-2.5391,-2.5476,-2.5579,-2.5601,-2.5661,-2.566,-2.5579,-2.5228,-2.5046,0.0,0.0,0.0,0.0,0.0,0.0,0.0,0.0,0.0,0.0,0.0,0.0,0.0,0.0,0.0,0.0,0.0,0.0,0.0,0.0,0.0,0.0,0.0,0.0,0.0,0.0,0.0,0.0,-3.4349,-3.4983,-3.5519,-3.5591,-3.5331,0.0,0.0,0.0,0.0,0.0,0.0,-3.5043,-3.5043,-3.4815,-3.4264,-3.4419,-3.4242,-3.3754,-3.4242,-3.4143,-3.3499,-3.3876,-3.3711,-3.305,-3.305,-3.305,-3.3077,-3.3261,-3.3339,-3.3348,-3.3218,-3.2859,-3.2249,-3.151,-3.0954,-3.0491,-3.0217,-2.9832,-2.9399,-2.9368,-2.8887,-2.8215,-2.7914,-2.7183,-2.6324,-2.5715,0.0,0.0,0.0,0.0,-2.6691,-2.6691,-2.6691,-2.6691,-2.6691,-2.6691,-2.6691,-2.6691,-2.6691,-2.6855,-2.7376,-2.6486,-2.5676,-2.5601,-2.474,0.0,-2.4266,-2.4302,-2.4391,-2.4615,-2.4551,-2.4607,-2.4871,-2.4936,-2.5078,-2.5266,-2.5402,-2.5486,-2.5566,-2.5612,-2.5625,-2.5574,-2.5605,-2.549,-2.5292,0.0,0.0,0.0,0.0,0.0,0.0,0.0,0.0,0.0,0.0,0.0,0.0,0.0,0.0,0.0,0.0,0.0,0.0,0.0,0.0,0.0,0.0,0.0,0.0,0.0,0.0,0.0,0.0,0.0,-3.5503,-3.5554,0.0,0.0,0.0,0.0,-3.3547,-3.3547,-3.3577,-3.3607,-3.3607,-3.3576,-3.3546,-3.4145,-3.4475,-3.4444,-3.4475,-3.4145,-3.3486,-3.2886,-3.2256,-3.1596,-3.1596,-3.1596,-3.1625,-3.2355,-3.2625,-3.2648,-3.2577,-3.2481,-3.2329,-3.1572,-3.0891,-3.0323,-3.0152,-2.9699,-2.9198,-2.9065,-2.852,-2.7825,-2.7809,-2.6843,-2.5657,-2.5623,-2.5607,0.0,0.0,-2.6166,-2.6691,-2.6691,-2.6691,-2.6691,-2.6691,-2.6691,-2.6691,-2.6691,-2.6691,-2.6637,-2.6323,-2.6204,-2.5798,-2.4663,0.0,-2.4219,-2.3793,-2.3727,-2.3858,-2.4199,-2.4393,-2.4493,-2.4518,-2.483,-2.4997,-2.5009,-2.5249,-2.5409,-2.5413,-2.5518,-2.5576,-2.5508,-2.5576,-2.5545,-2.5489,-2.5484,0.0,0.0,0.0,0.0,0.0,0.0,0.0,0.0,0.0,0.0,0.0,0.0,0.0,0.0,0.0,0.0,0.0,0.0,0.0,0.0,0.0,0.0,0.0,0.0,0.0,0.0,0.0,0.0,-3.3711,-3.3652,0.0,-3.3605,-3.3404,-3.3483,-3.4082,-3.4144,-3.4322,-3.4771,-3.4801,-3.4801,-3.4801,-3.5011,-3.513,-3.513,-3.513,-3.4592,-3.3484,-3.3275,-3.2587,-3.1511,-3.1511,-3.1511,-3.1511,-3.1768,-3.1881,-3.1849,-3.1427,-3.145,-3.1754,-3.0997,-3.0309,-2.9707,-2.9675,-2.9502,-2.9318,-2.9284,-2.8486,-2.7401,-2.6818,-2.6486,-2.6319,-2.6319,-2.6319,-2.6319,-2.6319,-2.6488,-2.6691,-2.6691,-2.6691,-2.6691,-2.6691,-2.6691,-2.6691,-2.6691,-2.6691,-2.6538,-2.5936,-2.5437,-2.4888,-2.4203,-2.3654,-2.3325,-2.3388,-2.3555,-2.3753,-2.3847,-2.4134,-2.4348,-2.4505,-2.4623,-2.478,-2.4967,-2.5129,-2.5254,-2.5395,-2.5473,-2.5543,-2.5576,-2.5582,-2.5625,-2.5613,-2.5594,-2.5264,0.0,0.0,0.0,0.0,0.0,0.0,0.0,0.0,0.0,0.0,0.0,0.0,0.0,0.0,0.0,0.0,0.0,0.0,0.0,0.0,0.0,0.0,0.0,0.0,0.0,-3.3277,-3.3325,-3.2664,-3.2593,-3.2702,-3.2925,-3.3235,-3.367,-3.4289,-3.4641,-3.5011,-3.5489,-3.5519,-3.5519,-3.5519,-3.5519,-3.5519,-3.5519,-3.5519,-3.4831,-3.3484,-3.3484,-3.2796,-3.1511,-3.1511,-3.1511,-3.1511,-3.1511,-3.1511,-3.1481,-3.1002,-3.0857,-3.081,-3.0321,-2.9824,-2.9428,-2.9412,-2.9271,-2.9048,-2.8796,-2.8094,-2.7132,-2.6067,-2.5961,-2.6228,-2.6418,-2.647,-2.6504,-2.6657,-2.6691,-2.6691,-2.6691,-2.6691,-2.6691,-2.6691,-2.6691,-2.6691,-2.6691,-2.6691,-2.6488,-2.5728,-2.5,-2.4347,-2.381,-2.3096,-2.2678,-2.2984,-2.3212,-2.3385,-2.3522,-2.3816,-2.4095,-2.4229,-2.4391,-2.4599,-2.4792,-2.4983,-2.5134,-2.5249,-2.5388,-2.5476,-2.5518,-2.5588,-2.561,-2.5661,-2.5625,-2.5193,-2.4335,0.0,0.0,0.0,0.0,0.0,0.0,0.0,0.0,0.0,0.0,0.0,0.0,0.0,0.0,0.0,0.0,0.0,0.0,0.0,0.0,0.0,0.0,0.0,-3.2439,-3.2558,-3.2522,-3.2522,-3.2486,-3.2522,-3.2558,-3.3394,-3.391,-3.3945,-3.4872,-3.5392,-3.5392,-3.5392,-3.5424,-3.5457,-3.5424,-3.5424,-3.5519,-3.5457,-3.4799,-3.3484,-3.3484,-3.2796,-3.1511,-3.1511,-3.1511,-3.1511,-3.1511,-3.1511,-3.1511,-3.1481,-3.0761,-2.9615,-2.9541,-2.9484,-2.9434,-2.9365,-2.8973,-2.8372,-2.7549,-2.7285,-2.705,-2.5662,-2.5182,-2.5297,-2.5815,-2.5979,-2.605,-2.6539,-2.6657,-2.6657,-2.6657,-2.6657,-2.6657,-2.6657,-2.6674,-2.6674,-2.6657,-2.6674,-2.6471,-2.5729,-2.4968,-2.424,-2.3511,-2.2801,-2.2405,-2.263,-2.2695,0.0,-2.3141,-2.3488,-2.371,-2.371,-2.4146,-2.4468,-2.4485,-2.4816,-2.4973,-2.4979,-2.523,-2.5391,-2.5406,-2.5511,-2.5598,-2.5599,-2.5599,-2.5166,-2.4222,0.0,0.0,0.0,0.0,0.0,0.0,0.0,0.0,0.0,0.0,0.0,0.0,0.0,0.0,0.0,0.0,0.0,0.0,0.0,0.0,0.0,-2.9914,-3.0589,-3.1436,-3.1573,-3.1341,-3.0646,-3.057,-3.0846,-3.1536,-3.1829,-3.2236,-3.2912,-3.3255,-3.3394,-3.3394,-3.3394,-3.3705,-3.4409,-3.3768,-3.4075,-3.5519,-3.4773,-3.4097,-3.3484,-3.3484,-3.2796,-3.1511,-3.1511,-3.1511,-3.1511,-3.1511,-3.1511,-3.1481,-3.0972,-3.0582,-3.022,-2.975,-2.8984,-2.8127,-2.8118,-2.7978,-2.7764,-2.7028,-2.671,-2.6508,-2.5633,-2.5262,-2.524,-2.5373,-2.5411,-2.5449,-2.558,-2.5617,-2.5617,-2.5617,-2.5617,-2.5617,-2.5617,-2.5924,-2.6086,-2.5691,-2.5924,-2.6002,-2.5411,-2.433,-2.3457,-2.3407,-2.3241,-2.2931,-2.25,-2.2573,-2.2733,-2.2835,-2.3129,-2.3444,-2.3653,-2.3821,-2.407,-2.4459,-2.4591,-2.4685,-2.483,-2.493,-2.5044,-2.5172,-2.5236,-2.5331,-2.5513,-2.5516,-2.5397,0.0,0.0,0.0,0.0,0.0,0.0,0.0,0.0,0.0,0.0,0.0,0.0,0.0,0.0,0.0,0.0,0.0,0.0,0.0,0.0,0.0,0.0,-2.9428,-3.0011,-3.0533,-3.062,-3.0419,-2.9856,-2.9804,-3.0011,-3.057,-3.097,-3.1426,-3.1947,-3.2379,-3.2593,-3.2593,-3.2593,-3.2841,-3.3394,-3.2876,-3.315,-3.4274,-3.3705,-3.3157,-3.2706,-3.2478,-3.1811,-3.0765,-3.0924,-3.0984,-3.1014,-3.1336,-3.1511,-3.1481,-3.1062,-3.0761,-3.0402,0.0,0.0,0.0,0.0,-2.7585,-2.7465,-2.6512,-2.6126,-2.5887,-2.4963,-2.4585,-2.4572,-2.4812,-2.4871,-2.491,-2.5144,-2.5202,-2.5202,-2.5202,-2.5202,-2.5202,-2.5202,-2.543,-2.5561,-2.5278,-2.5222,-2.5157,-2.4829,-2.3875,0.0,-2.2878,-2.273,-2.2578,-2.2333,-2.244,-2.2541,-2.2541,-2.2784,-2.3069,-2.3247,-2.3533,-2.3811,-2.4127,-2.4373,0.0,0.0,0.0,-2.4853,-2.4952,-2.5057,0.0,0.0,0.0,0.0,0.0,0.0,0.0,0.0,-2.5469,-2.5774,0.0,0.0,0.0,0.0,0.0,0.0,0.0,0.0,0.0,0.0,0.0,0.0,0.0,0.0,0.0,0.0,-2.9261,-2.9663,-2.9779,-2.9804,-2.9804,-2.9804,-2.9804,-2.9804,-2.9804,-3.0545,-3.1044,-3.1044,-3.1829,-3.2272,-3.2272,-3.2272,0.0,0.0,0.0,-3.2379,-3.2593,-3.2486,-3.2148,-3.1578,-3.1123,-3.0516,-2.9821,-3.012,-3.0205,-3.0208,-3.0896,-3.1278,-3.1336,-3.1248,-3.0774,-3.0002,-2.8896,-2.8495,-2.8397,-2.7722,-2.7509,-2.7435,-2.6243,0.0,0.0,-2.4208,-2.3729,-2.3687,-2.4163,-2.4307,-2.441,-2.4891,-2.5028,-2.5028,-2.5028,-2.5028,-2.5028,-2.5028,-2.5067,-2.5073,-2.4952,-2.4499,-2.4058,-2.3938,-2.3383,-2.2716,-2.2094,-2.1842,-2.1849,-2.2166,-2.2251,-2.2313,-2.2313,-2.2514,-2.2656,-2.2695,0.0,0.0,-2.3674,-2.4154,-2.4417,-2.4442,-2.4654,-2.4764,-2.4765,-2.4963,-2.5081,-2.5081,-2.5245,-2.5327,-2.5288,-2.5339,-2.5395,-2.5395,-2.5454,-2.552,0.0,0.0,0.0,0.0,0.0,0.0,0.0,0.0,0.0,0.0,0.0,0.0,0.0,0.0,0.0,-2.81,-2.8354,-2.8767,-2.9663,-2.9804,-2.9804,-2.9804,-2.9804,-2.9804,-2.9804,-2.9972,-3.0062,-3.0062,-3.0254,-3.0368,-3.0368,-3.0368,-3.0696,-3.1462,-3.0733,-3.1071,-3.2593,-3.1865,-3.1532,-3.1605,-3.1468,0.0,-2.9788,-2.9873,-2.9664,-2.9254,-2.9411,-2.9875,-3.048,-2.9752,-2.8858,-2.782,-2.7734,-2.7748,-2.7688,-2.6974,-2.71,-2.7555,-2.7315,-2.6512,-2.5555,-2.5315,-2.4477,-2.3631,-2.3709,-2.3752,0.0,-2.3879,-2.3921,-2.3921,-2.3921,-2.3921,-2.3921,-2.3921,-2.4225,-2.4295,-2.3376,-2.3372,-2.327,-2.235,-2.1633,-2.1228,-2.1424,-2.202,-2.2317,-2.1801,-2.2046,-2.2313,-2.2313,-2.2349,-2.248,-2.2669,-2.2822,-2.3105,-2.3642,-2.3816,-2.3969,-2.4256,-2.4462,-2.4567,-2.457,-2.4766,-2.4871,-2.4871,-2.4997,-2.5061,-2.5071,-2.5244,-2.5307,-2.5312,-2.5428,-2.5498,0.0,0.0,0.0,0.0,0.0,0.0,0.0,0.0,0.0,0.0,0.0,-2.6404,-2.6607,0.0,-2.7285,-2.7809,-2.7727,-2.7772,-2.839,-2.8738,-2.9145,-2.974,-2.9804,-2.9804,-2.9804,-2.9804,-2.9804,-2.9804,-2.9804,-2.9804,-2.9804,-2.9804,-3.0011,-3.0495,-3.0024,-3.0254,-3.1193,-3.0733,-3.0566,-3.0698,-3.0382,-2.9802,-2.896,-2.9093,-2.8837,-2.8363,-2.8812,-2.9254,-2.9628,-2.9192,-2.8284,-2.7179,-2.6905,-2.6666,-2.6441,-2.6095,-2.5975,-2.611,-2.6418,-2.5928,-2.5206,-2.5521,-2.5166,-2.4597,-2.4597,-2.4388,-2.4096,-2.4096,-2.3879,-2.361,-2.361,-2.361,-2.361,-2.361,-2.3794,-2.376,-2.2885,-2.2627,-2.2271,-2.1394,-2.0647,-2.0242,-2.0466,-2.1067,-2.1456,-2.1324,-2.1675,-2.1959,-2.1959,-2.2166,-2.2349,-2.2473,-2.2625,-2.2835,-2.3165,-2.3511,-2.3774,-2.3955,-2.421,-2.4348,-2.4348,-2.4534,-2.4647,-2.4647,-2.4809,-2.4897,-2.4897,-2.5019,-2.5056,-2.5062,-2.5137,-2.5258,0.0,0.0,0.0,0.0,0.0,0.0,0.0,-2.5992,-2.6081,-2.6519,-2.6563,-2.6672,-2.7019,-2.7085,-2.7129,-2.7349,-2.7106,-2.6971,-2.7073,-2.7548,-2.8226,-2.9052,-2.9546,-2.9804,-2.9804,-2.9804,-2.9804,-2.9804,-2.9804,-2.9804,-2.9804,-2.9804,-2.9804,-2.9804,-2.9804,-2.9804,-2.9804,-2.9804,-2.9804,-2.9779,-2.9327,-2.875,-2.8133,-2.8315,-2.8064,-2.7504,-2.8363,-2.8652,-2.8524,-2.8684,-2.7943,-2.6668,-2.6083,-2.5488,-2.4965,-2.5133,-2.497,-2.4745,-2.5275,-2.5109,-2.4718,-2.5214,-2.5271,-2.5206,-2.5349,-2.5017,-2.4571,-2.4589,-2.4216,-2.3759,-2.364,-2.361,-2.361,-2.361,-2.361,-2.34,-2.2673,-2.2084,-2.1455,-2.0677,-2.0079,-1.9708,-1.9708,-1.998,-2.0347,-2.0797,-2.1228,-2.1506,-2.1582,-2.1945,-2.2194,-2.2279,-2.2487,-2.2617,-2.2695,-2.3247,-2.3599,-2.3599,-2.3847,-2.4026,-2.4112,-2.4248,-2.4373,-2.4454,-2.4639,-2.4746,-2.4746,-2.4782,-2.4804,-2.4804,-2.4804,-2.5005,-2.3454,-2.417,-2.4639,-2.3714,-2.4253,-2.4828,0.0,-2.4113,-2.4232,-2.4604,-2.4703,-2.4703,-2.4762,-2.4762,-2.5083,-2.6104,-2.6241,-2.6405,-2.7012,-2.7133,-2.7121,-2.6899,-2.8593,-2.9804,-2.9804,-2.9804,-2.9804,-2.9804,-2.9804,-2.9804,-2.9804,-2.9804,-2.9804,-2.9804,-2.9804,-2.9804,-2.9804,-2.9804,-2.9804,-2.9804,-2.9729,-2.9151,-2.8097,-2.8131,-2.7586,-2.6679,-2.7471,-2.7438,-2.685,-2.7537,-2.6752,-2.5065,-2.4968,-2.4292,-2.3454,-2.4163,-2.4797,-2.5329,-2.5384,-2.4995,-2.444,-2.4521,-2.4132,-2.3791,-2.4418,-2.4586,-2.4534,-2.4571,-2.4545,-2.4365,-2.3759,-2.361,-2.361,-2.361,-2.361,-2.3281,-2.2054,-2.1754,-2.1335,-2.0067,-1.9768,-1.9708,-1.9708,-1.9744,-1.9909,-2.033,-2.078,-2.1197,-2.1552,-2.1642,-2.1838,-2.2251,-2.2321,-2.2453,-2.2669,-2.3045,-2.3247,-2.3247,-2.3282,-2.3455,-2.3753,-2.3795,-2.3929,-2.4228,-2.4436,-2.4518,-2.4518,-2.4716,-2.4804,-2.4804,-2.4804,-2.4884,-2.0989,-2.1861,-2.2654,-2.2164,-2.2955,-2.3731,-2.3448,-2.3418,-2.3594,-2.4277,-2.4414,-2.457,-2.505,-2.5148,-2.5318,-2.5792,-2.5645,-2.5508,-2.5516,-2.5867,-2.5958,-2.5569,-2.6912,-2.8131,-2.8727,-2.8806,-2.9106,-2.974,-2.9804,-2.9804,-2.9804,-2.9804,-2.9804,-2.9804,-2.9804,-2.9804,-2.9804,-2.9804,-2.9804,-2.9804,-2.9453,-2.8875,-2.8097,-2.777,-2.7228,-2.6533,-2.685,-2.6816,-2.6508,-2.6467,-2.5815,-2.475,-2.4481,-2.3822,-2.3125,-2.3484,-2.3606,-2.3717,-2.449,-2.4362,-2.3959,-2.4723,-2.4804,-2.4638,-2.4932,-2.4731,-2.4362,-2.4095,-2.374,-2.3383,-2.3139,-2.3076,-2.3165,-2.3523,-2.361,-2.3251,-2.1964,-2.1695,-2.1306,-1.9977,-1.9708,-1.9708,-1.9708,-1.9708,-1.978,-1.9927,-2.0313,-2.0634,-2.0814,-2.1086,-2.1414,-2.1838,-2.1882,-2.2041,-2.2419,-2.2755,-2.291,-2.291,-2.3093,-2.3259,-2.3385,-2.3421,-2.3566,-2.3888,-2.3999,-2.4135,-2.4312,-2.4419,-2.4462,-2.4462,-2.4462,-2.4551,-1.9497,-2.0116,-2.0881,-2.1194,-2.1943,-2.2706,-2.3193,-2.3276,-2.3471,-2.4258,-2.4512,-2.4785,-2.543,-2.5615,-2.5839,-2.6159,-2.5976,-2.5605,-2.5025,-2.532,-2.5328,-2.4444,-2.5062,-2.6005,-2.7093,-2.7763,-2.8426,-2.9287,-2.9624,-2.9804,-2.9804,-2.9804,-2.9804,-2.9804,-2.9804,-2.9804,-2.9804,-2.9804,-2.9804,-2.9779,-2.9202,-2.8612,-2.8072,-2.7369,-2.6876,-2.6499,-2.6499,-2.6499,-2.6474,-2.6047,-2.5435,-2.475,-2.4381,-2.3747,-2.3095,-2.3095,-2.2844,-2.2657,-2.3625,-2.3699,-2.3472,-2.4435,-2.4768,-2.4796,-2.5049,-2.475,-2.4286,-2.3924,-2.337,-2.2834,-2.2729,-2.2534,-2.2529,-2.2958,-2.3069,-2.2776,-2.17,-2.1465,-2.1096,-1.9937,-1.969,-1.9686,-1.9702,-1.9708,-1.9708,-1.9708,-1.9962,-2.0176,-2.0313,-2.0715,-2.1102,-2.1399,-2.143,-2.1552,-2.1915,-2.222,-2.2405,-2.2405,-2.2733,-2.296,-2.3057,-2.3057,-2.3212,-2.3555,-2.3555,-2.3664,-2.3899,-2.3899,-2.3899,-2.3899,-2.3899,-2.4049,-1.9497,-1.9542,-1.9861,-2.1033,-2.1346,-2.1768,-2.3384,-2.3769,-2.3887,-2.4316,-2.4746,-2.5106,-2.5125,-2.5449,-2.611,-2.7363,-2.7531,-2.7243,-2.6343,-2.6241,-2.5526,-2.3398,-2.3169,-2.3627,-2.4787,-2.6849,-2.8124,-2.8124,-2.9184,-2.9804,-2.9804,-2.9804,-2.9804,-2.9804,-2.9804,-2.9804,-2.9804,-2.9804,-2.9804,-2.9779,-2.9202,-2.8612,-2.8072,-2.7027,-2.6524,-2.6499,-2.6499,-2.6499,-2.6499,-2.6474,-2.5787,-2.48,-2.4775,-2.4073,-2.3095,-2.3095,-2.3095,-2.307,-2.3125,-2.3125,-2.3125,-2.3155,-2.3155,-2.3305,-2.4076,-2.4337,-2.4292,-2.4368,-2.3977,-2.3423,-2.2763,-2.2152,-2.1734,-2.1758,-2.1781,-2.1592,-2.0937,-2.0826,-2.0601,-1.9843,-1.9686,-1.971,-1.9689,-1.9708,-1.9708,-1.9708,-1.9726,-1.9856,-2.0261,-2.0715,-2.0991,-2.1007,-2.1007,-2.1007,-2.1023,-2.1399,-2.1627,-2.1627,-2.2075,-2.244,-2.2708,-2.2721,-2.2873,-2.32,-2.3212,-2.3212,-2.3224,-2.3224,-2.3224,-2.3224,-2.3224,-2.3421,-1.7077,-1.7669,-1.8411,-1.8826,-2.0116,-2.1472,-2.202,-2.2745,-2.3477,-2.3906,-2.4121,-2.4394,-2.5008,-2.5195,-2.5534,-2.6244,-2.6332,-2.6132,-2.5558,-2.5524,-2.5019,-2.3717,-2.3574,-2.359,-2.3667,-2.5041,-2.6232,-2.6994,-2.8068,-2.8688,-2.8688,-2.9404,-2.9804,-2.9804,-2.9804,-2.9804,-2.9804,-2.9804,-2.9804,-2.9779,-2.8825,-2.7896,-2.7027,-2.6675,-2.6499,-2.6499,-2.6499,-2.6499,-2.6474,-2.6072,-2.5661,-2.5259,-2.4556,-2.4029,-2.3653,-2.3246,-2.3095,-2.3095,-2.3095,-2.3095,-2.3095,-2.3095,-2.3095,-2.3155,-2.3424,-2.3514,-2.3445,-2.3085,-2.26,-2.2164,-2.1979,-2.1519,-2.121,-2.1615,-2.171,-2.1545,-2.0919,-2.05,-1.9992,-1.9315,-1.8875,-1.8638,-1.8655,-1.8645,-1.876,-1.9118,-1.946,-1.9762,-1.9892,-2.005,-2.0227,-2.0515,-2.0549,-2.0665,-2.0975,-2.1118,-2.1197,-2.1197,-2.1615,-2.1897,-2.196,-2.2281,-2.2581,-2.286,-2.2873,-2.2984,-2.32,-2.32,-2.32,-2.32,-2.32,-2.3247,-1.5784,-1.6386,-1.7138,-1.7591,-1.8872,-2.0251,-2.1105,-2.1898,-2.2656,-2.3407,-2.3691,-2.3965,-2.4512,-2.4727,-2.5122,-2.5984,-2.6139,-2.6039,-2.5785,-2.5745,-2.5298,-2.4147,-2.4004,-2.3906,-2.3569,-2.4078,-2.4848,-2.5819,-2.7031,-2.783,-2.8108,-2.8806,-2.9365,-2.9804,-2.9804,-2.9585,-2.9184,-2.9585,-2.9603,-2.9176,-2.8448,-2.7519,-2.6499,-2.6499,-2.6499,-2.6499,-2.6499,-2.6373,-2.6147,-2.5762,-2.536,-2.4958,-2.428,-2.3879,-2.3653,-2.3246,-2.3095,-2.3095,-2.3095,-2.3095,-2.3095,-2.3095,-2.3095,-2.3095,-2.3095,-2.3095,-2.302,-2.2669,-2.2071,-2.1504,-2.1557,-2.1017,-2.0547,-2.0915,-2.1013,-2.0906,-2.0534,-2.0137,-1.9672,-1.9049,-1.8654,-1.8351,-1.8135,-1.8092,-1.821,-1.8568,-1.8912,-1.9277,-1.9654,-1.9708,-1.9785,-2.0054,-2.0089,-2.021,-2.0499,-2.0665,-2.0764,-2.0764,-2.115,-2.1384,-2.1384,-2.1675,-2.1926,-2.2082,-2.2221,-2.2398,-2.2622,-2.2819,-2.287,-2.287,-2.287,-2.2945,-1.5784,-1.5784,-1.6103,-1.7311,-1.7638,-1.8319,-2.0657,-2.1239,-2.1658,-2.2862,-2.3477,-2.3769,-2.3789,-2.4141,-2.4921,-2.6568,-2.6836,-2.6836,-2.6857,-2.6857,-2.6254,-2.4631,-2.4453,-2.4434,-2.4414,-2.4062,-2.4102,-2.47,-2.6149,-2.7288,-2.7907,-2.8004,-2.8505,-2.9585,-2.9624,-2.9106,-2.8044,-2.9067,-2.9113,-2.8147,-2.8049,-2.7509,-2.6524,-2.6465,-2.6465,-2.6499,-2.6465,-2.6138,-2.5636,-2.5636,-2.5034,-2.413,-2.4054,-2.3703,-2.317,-2.312,-2.3095,-2.3095,-2.3095,-2.3095,-2.3095,-2.3095,-2.3095,-2.3095,-2.3095,-2.3095,-2.3095,-2.3095,-2.2347,-2.1493,-2.1493,-2.0639,-1.9811,-1.9811,-1.9811,-1.9811,-1.9811,-1.9786,-1.9611,-1.9089,-1.8966,-1.8724,-1.8132,-1.8013,-1.8013,-1.8033,-1.8052,-1.8444,-1.9515,-1.9672,-1.9672,-1.9708,-1.9708,-1.9708,-1.9708,-2.0037,-2.0278,-2.0278,-2.0715,-2.0959,-2.0959,-2.0975,-2.0991,-2.0991,-2.1368,-2.1567,-2.1567,-2.2017,-2.2223,-2.2223,-2.2223,-2.2364,-1.5784,-1.5784,-1.5879,-1.6197,-1.6998,-1.8102,-1.9633,-2.0657,-2.1658,-2.2862,-2.3179,-2.3398,-2.373,-2.4141,-2.4761,-2.5813,-2.6028,-2.6147,-2.6486,-2.6247,-2.5726,-2.5008,-2.4902,-2.4766,-2.4453,-2.4316,-2.4218,-2.4078,-2.4887,-2.5465,-2.5608,-2.6461,-2.7058,-2.7342,-2.7342,-2.7221,-2.6912,-2.718,-2.7798,-2.8687,-2.7493,-2.6993,-2.7067,-2.5917,-2.5816,-2.6465,-2.5687,-2.5718,-2.6273,-2.6273,-2.6122,-2.5795,-2.4933,-2.4499,-2.4249,-2.3421,-2.3095,-2.3095,-2.3095,-2.3095,-2.3095,-2.3095,-2.3095,-2.3095,-2.3095,-2.3095,-2.3095,-2.3095,-2.2347,-2.1493,-2.1493,-2.0639,-1.9811,-1.9811,-1.9811,-1.9811,-1.9811,-1.951,-1.9158,-1.9028,-1.834,-1.7619,-1.7029,-1.6921,-1.7021,-1.7456,-1.7517,-1.7874,-1.8968,-1.9099,-1.9277,-1.9672,-1.9708,-1.9708,-1.9708,-1.9785,-1.9856,-1.9856,-2.0244,-2.0499,-2.0499,-2.0813,-2.0991,-2.0991,-2.1102,-2.115,-2.115,-2.126,-2.1339,-2.1339,-2.1339,-2.1521,-1.7436,-1.703,-1.6622,-1.6622,-1.7171,-1.801,-1.9222,-2.0432,-2.1658,-2.2862,-2.3101,-2.3179,-2.3457,-2.3848,-2.4355,-2.4992,-2.5312,-2.5605,-2.6035,-2.5898,-2.5644,-2.5391,-2.5371,-2.5254,-2.5019,-2.4602,-2.4316,-2.4082,-2.4255,-2.4502,-2.4808,-2.542,-2.5964,-2.6483,-2.6524,-2.6524,-2.6524,-2.6005,-2.658,-2.8194,-2.6609,-2.6127,-2.6612,-2.5051,-2.4886,-2.5816,-2.5264,-2.5401,-2.6122,-2.6122,-2.5996,-2.5686,-2.5059,-2.4682,-2.4381,-2.3722,-2.3321,-2.3095,-2.3095,-2.3095,-2.3095,-2.3095,-2.3095,-2.3095,-2.3095,-2.3095,-2.3095,-2.3095,-2.2493,-2.1794,-2.1543,-2.0867,-2.0138,-1.9861,-1.9811,-1.9811,-1.9811,-1.956,-1.9284,-1.9058,-1.8129,-1.7297,-1.6948,-1.6697,-1.6607,-1.69,-1.6964,-1.725,-1.8072,-1.8386,-1.8664,-1.8968,-1.9221,-1.935,-1.935,-1.9551,-1.9708,-1.9708,-1.9909,-2.0037,-2.0037,-2.0278,-2.0414,-2.0414,-2.0599,-2.0698,-2.0698,-2.0894,-2.0991,-2.0991,-2.0991,-2.1118,-1.982,-1.901,-1.8133,-1.7948,-1.7963,-1.8226,-1.9451,-2.0522,-2.1658,-2.2862,-2.3101,-2.3101,-2.3101,-2.3496,-2.3945,-2.4434,-2.4824,-2.5254,-2.5762,-2.5732,-2.5693,-2.5693,-2.5693,-2.5693,-2.5693,-2.4894,-2.4414,-2.4414,-2.3984,-2.3958,-2.451,-2.4575,-2.5041,-2.6027,-2.6069,-2.611,-2.6276,-2.5126,-2.5411,-2.7066,-2.5542,-2.5058,-2.5546,-2.3985,-2.3927,-2.4981,-2.4707,-2.5011,-2.5711,-2.5418,-2.5136,-2.4805,-2.4607,-2.4342,-2.4016,-2.379,-2.3511,-2.319,-2.3074,-2.308,-2.3095,-2.3095,-2.3095,-2.3095,-2.3095,-2.3005,-2.2944,-2.2944,-2.2546,-2.1998,-2.1478,-2.1011,-2.0541,-1.9936,-1.9811,-1.9811,-1.9811,-1.9708,-1.9482,-1.8958,-1.8015,-1.7274,-1.7126,-1.6749,-1.6445,-1.6392,-1.6457,-1.6667,-1.7126,-1.7653,-1.8013,-1.8072,-1.8502,-1.8798,-1.8798,-1.924,-1.9479,-1.9479,-1.9479,-1.9515,-1.9599,-1.9599,-1.9636,-1.9708,-2.0037,-2.0227,-2.0227,-2.0632,-2.0829,-2.0829,-2.0829,-2.0845,-2.1526,-2.105,-2.0283,-1.9434,-1.9177,-1.9497,-2.0702,-2.1168,-2.1658,-2.2862,-2.3101,-2.3101,-2.3101,-2.3496,-2.4043,-2.4824,-2.5067,-2.5399,-2.6172,-2.5957,-2.5693,-2.5693,-2.5693,-2.5693,-2.5693,-2.4894,-2.4414,-2.4414,-2.3647,-2.3247,-2.3387,-2.3387,-2.3474,-2.3691,-2.3691,-2.4125,-2.5083,-2.3973,-2.4282,-2.6041,-2.4375,-2.3937,-2.4506,-2.2945,-2.3268,-2.4909,-2.3246,-2.3967,-2.6186,-2.4543,-2.4282,-2.4847,-2.3572,-2.3537,-2.4,-2.2741,-2.2939,-2.3729,-2.2902,-2.2799,-2.3095,-2.3095,-2.3095,-2.3095,-2.3095,-2.2641,-2.2094,-2.2094,-2.168,-2.1099,-2.0572,-2.0545,-2.0541,-1.9936,-1.9811,-1.9811,-1.9811,-1.9319,-1.873,-1.8202,-1.7431,-1.6632,-1.5813,-1.6033,-1.6191,-1.5826,-1.6194,-1.6543,-1.6625,-1.7105,-1.7619,-1.8033,-1.8171,-1.823,-1.823,-1.8308,-1.8366,-1.8366,-1.8366,-1.8588,-1.9024,-1.9043,-1.9258,-1.969,-1.978,-1.9803,-1.9803,-1.9874,-1.9927,-1.9927,-1.9927,-2.0089,-2.4661,-2.3834,-2.2655,-2.1566,-2.1337,-2.1337,-2.1284,-2.1791,-2.2403,-2.2994,-2.3101,-2.3101,-2.3101,-2.3496,-2.4004,-2.4629,-2.4727,-2.5039,-2.5918,-2.5664,-2.5469,-2.5654,-2.5693,-2.5596,-2.541,-2.4805,-2.4316,-2.4102,-2.3452,-2.3101,-2.3101,-2.3101,-2.3101,-2.3101,-2.3101,-2.3343,-2.393,-2.3387,-2.375,-2.4954,-2.3329,-2.2913,-2.352,-2.1963,-2.2075,-2.3379,-2.2392,-2.3099,-2.4886,-2.3891,-2.3781,-2.4158,-2.3401,-2.3225,-2.3305,-2.2295,-2.2205,-2.243,-2.1753,-2.1658,-2.1791,-2.1791,-2.2125,-2.2488,-2.2488,-2.1908,-2.1227,-2.1227,-2.1034,-2.068,-2.009,-1.9901,-1.9813,-1.9643,-1.9699,-1.9811,-1.9811,-1.924,-1.8617,-1.8356,-1.7341,-1.6327,-1.5858,-1.5584,-1.5383,-1.5153,-1.5644,-1.6017,-1.6017,-1.6514,-1.6985,-1.7229,-1.7537,-1.7673,-1.7673,-1.7933,-1.8092,-1.8092,-1.8092,-1.821,-1.8463,-1.8463,-1.8607,-1.8855,-1.8874,-1.9006,-1.9295,-1.9295,-1.9424,-1.9708,-1.9708,-1.9803,-2.7508,-2.6543,-2.5081,-2.4002,-2.3551,-2.3138,-2.224,-2.2604,-2.3101,-2.3101,-2.3101,-2.3101,-2.3101,-2.3418,-2.3828,-2.4336,-2.4414,-2.468,-2.5557,-2.543,-2.5352,-2.5635,-2.5596,-2.5449,-2.5145,-2.459,-2.4141,-2.3809,-2.3379,-2.3101,-2.3101,-2.3101,-2.3101,-2.3101,-2.3101,-2.3101,-2.3101,-2.3101,-2.3342,-2.3826,-2.2527,-2.2129,-2.2496,-2.1172,-2.1106,-2.2,-2.1773,-2.2376,-2.3489,-2.3047,-2.301,-2.3158,-2.2973,-2.2703,-2.235,-2.1778,-2.1413,-2.1163,-2.0653,-2.0519,-2.059,-2.059,-2.1069,-2.1628,-2.1628,-2.1005,-2.0333,-2.0333,-2.0333,-2.019,-1.9588,-1.9257,-1.9132,-1.9225,-1.94,-1.9605,-1.9785,-1.9085,-1.8474,-1.8474,-1.7138,-1.6003,-1.592,-1.5299,-1.4755,-1.4668,-1.5085,-1.5443,-1.5576,-1.5996,-1.6371,-1.65,-1.6879,-1.7126,-1.7126,-1.7517,-1.7753,-1.7753,-1.7753,-1.7794,-1.7913,-1.7913,-1.7973,-1.8092,-1.8092,-1.8308,-1.8741,-1.8741,-1.8949,-1.9369,-1.9369,-1.9369,-2.8722,-2.8262,-2.7498,-2.6461,-2.542,-2.4617,-2.4489,-2.3737,-2.3101,-2.3101,-2.3101,-2.3101,-2.3101,-2.314,-2.3413,-2.4277,-2.4414,-2.468,-2.5557,-2.5654,-2.5635,-2.5693,-2.5371,-2.5165,-2.5125,-2.4336,-2.3828,-2.3789,-2.3379,-2.3101,-2.3101,-2.3101,-2.3101,-2.3101,-2.3101,-2.3101,-2.3101,-2.3101,-2.2973,-2.267,-2.2132,-2.1701,-2.1331,-2.084,-2.1106,-2.1962,-2.1106,-2.1794,0.0,-2.1603,-2.1375,-2.2038,-2.1183,-2.1148,-2.1382,-2.0441,-2.063,-2.1241,-2.0292,-2.0225,-2.059,-2.059,-2.0655,-2.0719,-2.0719,-2.0107,-1.9441,-1.9441,-1.9441,-1.9282,-1.8754,-1.885,-1.9041,-1.8807,-1.8765,-1.898,-1.9657,-1.8688,-1.7715,-1.7715,-1.6511,-1.5376,-1.498,-1.4987,-1.4927,-1.4489,-1.4615,-1.4994,-1.5531,-1.5666,-1.5886,-1.6457,-1.6543,-1.6586,-1.6586,-1.6603,-1.6646,-1.6646,-1.6646,-1.6879,-1.7353,-1.7374,-1.7619,-1.8072,-1.8092,-1.8112,-1.8171,-1.8171,-1.819,-1.8249,-1.8249,-1.8249,-3.0212,-2.981,-2.8943,-2.8122,-2.7364,-2.6603,-2.5964,-2.4914,-2.4125,-2.4125,-2.3584,-2.3101,-2.3101,-2.3101,-2.3296,-2.3945,-2.3828,-2.3997,-2.5176,-2.5117,-2.5039,-2.5293,-2.5223,-2.491,-2.4355,-2.3984,-2.3691,-2.3418,-2.3198,-2.3101,-2.3101,-2.3101,-2.3101,-2.3101,-2.3101,-2.3101,-2.3101,-2.2847,-2.2559,-2.2129,-2.1699,-2.1269,-2.082,-2.0683,-2.0779,-2.1165,-2.0741,-2.1049,0.0,-2.0934,-2.0818,-2.1126,-2.076,-2.0719,-2.0805,-1.9875,-1.9769,-2.0023,-1.9075,-1.8873,-1.9044,-1.9044,-1.9044,-1.9144,-1.965,-1.921,-1.8529,-1.8529,-1.8529,-1.8455,-1.8241,-1.8268,-1.8154,-1.7544,-1.807,-1.8661,-1.8501,-1.8015,-1.7468,-1.7024,-1.5887,-1.498,-1.4833,-1.4631,-1.4353,-1.3937,-1.4219,-1.4538,-1.4513,-1.4812,-1.5152,-1.5377,-1.6064,-1.65,-1.65,-1.65,-1.65,-1.65,-1.65,-1.6607,-1.6816,-1.6816,-1.6921,-1.7126,-1.7126,-1.7312,-1.7639,-1.7639,-1.7773,-1.8092,-1.8092,-1.8092,-3.0708,-3.0357,-2.9724,-2.9269,-2.8611,-2.7884,-2.7157,-2.613,-2.521,-2.4872,-2.4168,-2.3517,-2.3188,-2.3101,-2.3237,-2.3711,-2.3633,-2.3887,-2.4969,-2.4922,-2.4922,-2.5234,-2.5039,-2.4648,-2.4043,-2.375,-2.3477,-2.312,-2.3101,-2.3101,-2.3101,-2.3101,-2.3101,-2.3101,-2.3101,-2.3042,-2.2906,-2.2656,-2.2305,-2.1875,-2.1405,-2.1074,-2.0762,-2.0664,-2.0605,-2.0605,-2.0605,-2.0605,0.0,-2.0605,-2.0605,-2.0605,-2.0605,-2.0527,-2.0273,-1.9551,-1.9199,-1.8984,-1.8262,-1.8008,-1.8008,-1.8008,-1.8008,-1.811,-1.8731,-1.8496,-1.8008,-1.8008,-1.8008,-1.7988,-1.7852,-1.7735,-1.7503,-1.6863,-1.7494,-1.8144,-1.7683,-1.744,-1.7107,-1.6595,-1.5669,-1.498,-1.498,-1.4609,-1.4153,-1.3724,-1.4037,-1.4229,-1.4017,-1.4359,-1.4689,-1.4875,-1.5538,-1.6042,-1.6216,-1.6414,-1.65,-1.65,-1.65,-1.65,-1.65,-1.65,-1.65,-1.65,-1.65,-1.6689,-1.7042,-1.7042,-1.725,-1.7639,-1.7639,-1.7693,-2.9804,-2.9804,-2.9804,-2.9804,-2.8949,-2.8084,-2.8084,-2.7238,-2.613,-2.5041,-2.4787,-2.4425,-2.3299,-2.3101,-2.3237,-2.3711,-2.4141,-2.4551,-2.5047,-2.5449,-2.5674,-2.5674,-2.4914,-2.4414,-2.4414,-2.3608,-2.3101,-2.3101,-2.3101,-2.3101,-2.3101,-2.3101,-2.3101,-2.3101,-2.3101,-2.2906,-2.2519,-2.2519,-2.2305,-2.1875,-2.1405,-2.119,-2.1171,-2.0762,-2.0605,-2.0605,-2.0605,-2.0605,0.0,-2.0605,-2.0605,-2.0605,-2.0605,-2.0331,-1.9863,-1.9434,-1.9023,-1.8539,-1.813,-1.8008,-1.8008,-1.8008,-1.8008,-1.8008,-1.8008,-1.8008,-1.8008,-1.8008,-1.8008,-1.791,-1.75,-1.7416,-1.7375,-1.7222,-1.7202,-1.7281,-1.7551,-1.7045,-1.651,-1.6482,-1.5882,-1.5381,-1.5381,-1.5059,-1.4629,-1.4172,-1.4094,-1.4175,-1.4378,-1.4415,-1.4637,-1.5246,-1.4942,-1.4971,-1.5554,-1.6173,-1.65,-1.65,-1.65,-1.65,-1.65,-1.65,-1.65,-1.65,-1.65,-1.65,-1.6522,-1.6522,-1.6522,-1.6522,-1.6522,-1.6795,-3.0256,-3.008,-2.988,-3.0256,-2.982,-2.9287,-2.9287,-2.841,-2.7481,-2.7134,-2.5859,-2.4702,-2.4339,-2.3627,-2.3237,-2.3711,-2.3906,-2.4238,-2.5008,-2.4941,-2.4797,-2.4797,-2.4017,-2.3491,-2.3491,-2.3257,-2.3101,-2.3101,-2.3101,-2.3101,-2.3101,-2.3101,-2.3101,-2.3101,-2.2808,-2.2656,-2.2519,-2.1892,-2.1541,-2.1445,-2.0996,-2.0781,-2.0781,-2.0664,-2.0605,-2.0605,-2.0605,-2.0605,-2.0605,-2.0605,-2.0605,-2.0605,-2.0605,-2.0527,-2.0273,-1.9551,-1.9199,-1.8984,-1.8262,-1.8008,-1.8008,-1.8008,-1.8008,-1.8008,-1.8008,-1.8008,-1.8008,-1.8008,-1.8008,-1.791,-1.75,-1.7383,-1.7292,-1.6923,-1.7226,-1.7416,-1.6723,-1.6788,-1.6734,-1.5914,-1.5555,-1.541,-1.541,-1.5293,-1.4961,-1.4211,-1.4367,-1.4397,-1.3855,-1.4015,-1.4272,-1.4454,-1.4478,-1.4775,-1.5557,-1.5776,-1.6039,-1.6479,-1.65,-1.65,-1.65,-1.65,-1.65,-1.65,-1.65,-1.65,-1.65,-1.65,-1.65,-1.65,-1.65,-1.6607,-3.0206,-3.0055,-2.9802,-2.9707,-2.9391,-2.9145,-2.9145,-2.8609,-2.8084,-2.8084,-2.6685,-2.5294,-2.4872,-2.3887,-2.3179,-2.3496,-2.3809,-2.4219,-2.4746,-2.4727,-2.4551,-2.4219,-2.3711,-2.3276,-2.312,-2.3101,-2.3101,-2.3101,-2.3101,-2.3101,-2.3101,-2.3101,-2.3101,-2.3101,-2.2734,-2.2441,-2.2285,-2.1541,-2.1112,-2.0977,-2.0742,-2.0605,-2.0605,-2.0605,-2.0605,-2.0605,-2.0605,-2.0605,0.0,-2.0605,-2.0605,-2.0605,-2.0605,-2.0605,-2.0507,-1.9785,-1.9531,-1.9394,-1.8555,-1.8208,-1.8188,-1.8066,-1.8008,-1.8008,-1.8008,-1.8008,-1.8008,-1.8008,-1.8008,-1.7949,-1.7695,-1.7617,-1.7519,-1.709,-1.7304,-1.7376,-1.6314,-1.6447,-1.6516,-1.5576,-1.541,-1.541,-1.541,-1.541,-1.5176,-1.4465,-1.4746,-1.4766,-1.4082,-1.4219,-1.4348,-1.4348,-1.4192,-1.4359,-1.5083,-1.5222,-1.5533,-1.6129,-1.6173,-1.6259,-1.65,-1.65,-1.65,-1.65,-1.65,-1.6389,-1.6173,-1.5932,-1.5954,-1.6151,-1.5932,-1.5954,0.0,-2.9804,-2.9546,-2.8466,-2.8164,-2.8084,-2.8084,-2.8044,0.0,-2.7964,-2.7116,-2.6069,-2.5041,-2.3907,-2.312,-2.3179,-2.3861,-2.4414,-2.4414,-2.4746,-2.4668,-2.3848,-2.375,-2.3574,-2.314,-2.3101,-2.3101,-2.3101,-2.3101,-2.3101,-2.3101,-2.3101,-2.3081,-2.3042,-2.2695,-2.2285,-2.1894,-2.1426,-2.0977,-2.0605,-2.0605,-2.0605,-2.0605,-2.0605,-2.0605,-2.0605,-2.0605,-2.0605,-2.0605,-2.0605,-2.0605,-2.0605,-2.0605,-2.0586,-2.0507,-2.0019,-1.9844,-1.9707,-1.8851,-1.8559,-1.85,-1.8144,-1.8008,-1.8008,-1.8008,-1.8008,-1.8008,-1.8008,-1.8008,-1.8008,-1.8008,-1.8008,-1.791,-1.7519,-1.7422,-1.722,-1.6378,-1.6183,-1.6046,-1.5547,-1.5449,-1.5449,-1.541,-1.541,-1.5273,-1.4844,-1.5137,-1.5254,-1.4844,-1.4805,-1.4824,-1.4824,-1.4102,-1.3804,-1.4329,-1.4542,-1.4903,-1.5487,-1.5531,-1.5798,-1.6414,-1.6389,-1.6392,-1.6457,-1.6392,-1.6107,-1.5531,-1.4971,-1.4994,-1.5509,-1.4971,-1.4994,-2.9585,0.0,-2.974,-2.9443,-2.8727,-2.8084,0.0,-2.7481,-2.6894,-2.6894,-2.5964,-2.519,-2.527,-2.4085,-2.3315,-2.4004,-2.4277,-2.4414,-2.4414,-2.4219,-2.3887,-2.3315,-2.3257,-2.3198,-2.3101,-2.3101,-2.3101,-2.3101,-2.3101,-2.3101,-2.3101,-2.3101,-2.2945,-2.2676,-2.2246,-2.1992,-2.1894,-2.1113,-2.0703,-2.0605,-2.0605,-2.0605,-2.0605,-2.0605,-2.0605,-2.0605,-2.0605,-2.0605,-2.0605,-2.0605,-2.0605,-2.0605,-2.0605,-2.0371,-2.0019,-1.959,-1.9219,-1.8831,-1.834,-1.813,-1.8144,-1.8047,-1.8008,-1.8008,-1.8008,-1.8008,-1.8008,-1.8008,-1.8008,-1.8008,-1.8008,-1.8008,-1.7988,-1.7891,-1.7871,-1.7715,-1.722,-1.7103,-1.6868,-1.6085,-1.5948,-1.5831,-1.5469,-1.541,-1.5273,-1.4844,-1.5137,-1.5254,-1.4844,-1.5059,-1.5273,-1.5273,-1.4805,-1.439,-1.4189,-1.408,-1.4283,-1.488,-1.4903,-1.5197,-1.5798,-1.5377,-1.5332,-1.5798,-1.5354,-1.5039,-1.4903,-1.4766,-1.4766,-1.4903,-1.4766,-1.4766,-2.8131,-2.9224,-2.992,-2.8811,-2.8139,-2.7584,-2.7005,-2.6285,-2.588,-2.64,-2.5588,-2.4871,-2.508,-2.4005,-2.3315,-2.4023,-2.4121,-2.4121,-2.4121,-2.3926,-2.3633,-2.314,-2.3101,-2.3101,-2.3101,-2.3101,-2.3101,-2.3101,-2.3101,-2.3101,-2.3101,-2.3101,-2.2984,-2.2769,-2.2207,-2.1797,-2.1582,-2.0938,-2.0605,-2.0605,-2.0605,-2.0605,-2.0605,-2.0605,-2.0605,-2.0605,-2.0605,-2.0605,-2.0605,-2.0605,-2.0605,-2.0605,-2.0605,-2.0293,-1.9883,-1.9668,-1.9297,-1.8867,-1.8437,-1.813,-1.8008,-1.8008,-1.8008,-1.8008,-1.8008,-1.8008,-1.8008,-1.8008,-1.8008,-1.8008,-1.8008,-1.8008,-1.8008,-1.8008,-1.8008,-1.7891,-1.748,-1.7383,-1.7161,-1.6261,-1.6085,-1.5948,-1.5488,-1.541,-1.5332,-1.5098,-1.5273,-1.5332,-1.5098,-1.5273,-1.541,-1.541,-1.5039,-1.4687,-1.4453,-1.3941,-1.3852,-1.4258,-1.4283,-1.456,-1.5175,-1.488,-1.4858,-1.5197,-1.4606,-1.4422,-1.4698,-1.4142,-1.4025,-1.4283,-1.4001,-1.4025,-2.6442,-2.8315,-2.9667,-2.7554,-2.7028,-2.671,-2.5591,-2.4909,-2.4787,-2.5755,-2.521,-2.4553,-2.4636,-2.3858,-2.3379,-2.3809,-2.3828,-2.3809,-2.3867,-2.3769,-2.3555,-2.314,-2.3101,-2.3101,-2.3101,-2.3101,-2.3101,-2.3101,-2.3101,-2.3101,-2.3101,-2.3101,-2.3062,-2.3003,-2.2363,-2.1738,-2.121,-2.0781,-2.0605,-2.0605,-2.0605,-2.0605,-2.0605,-2.0605,-2.0605,-2.0605,-2.0605,0.0,-2.0605,-2.0605,-2.0605,-2.0605,-2.0605,-2.0293,-1.9902,-1.9844,-1.9551,-1.9121,-1.8656,-1.8266,-1.8008,-1.8008,-1.8008,-1.8008,-1.8008,-1.8008,-1.8008,-1.8008,-1.8008,-1.8008,-1.8008,-1.8008,-1.8008,-1.8008,-1.8008,-1.791,-1.7559,-1.748,-1.7207,-1.6359,-1.6202,-1.6026,-1.5508,-1.541,-1.541,-1.541,-1.541,-1.541,-1.541,-1.541,-1.541,-1.541,-1.5098,-1.4891,-1.4813,-1.4121,-1.3725,-1.3852,-1.3733,-1.3886,-1.4399,-1.4514,-1.4514,-1.4444,-1.3909,-1.3909,-1.4422,-1.3406,-1.3142,-1.3647,-1.3142,-1.3166,-2.6235,-2.7386,-2.8054,-2.688,-2.6149,-2.5569,-2.504,-2.41,-2.343,-2.3604,-2.3474,-2.3505,-2.388,-2.3826,-2.3828,-2.4258,-2.4023,-2.3906,-2.4277,-2.3647,-2.3179,-2.3101,-2.3101,-2.3101,-2.3101,-2.3101,-2.3101,-2.3101,-2.3101,-2.3101,-2.3101,-2.3101,-2.2925,-2.2617,-2.248,-2.2031,-2.121,-2.0781,-2.0605,-2.0605,-2.0605,-2.0605,-2.0605,-2.0605,-2.0605,-2.0605,0.0,-2.0605,-2.0605,-2.0605,-2.0605,-2.0605,-2.0605,-2.0293,-1.9863,-1.9512,-1.9102,-1.8637,-1.8242,-1.8066,-1.8008,-1.8008,-1.8008,-1.8008,-1.8008,-1.8008,-1.8008,-1.8008,-1.8008,-1.8008,-1.8008,-1.8008,-1.8008,-1.8008,-1.8008,-1.7988,-1.793,-1.791,-1.7656,-1.6797,-1.6609,-1.6336,-1.5547,-1.541,-1.541,-1.541,-1.541,-1.541,-1.541,-1.541,-1.541,-1.541,-1.5352,-1.5176,-1.4833,-1.4696,-1.4422,-1.4097,-1.3412,-1.3089,-1.3186,-1.3671,-1.3695,-1.3186,-1.3089,-1.3089,-1.3186,-1.2992,-1.2944,-1.3041,-1.2944,-1.2944,-2.451,-2.5182,-2.5578,-2.5161,-2.5643,-2.5906,-2.4828,-2.4033,-2.3418,-2.314,-2.3101,-2.3159,-2.3398,-2.3633,-2.3699,-2.3345,-2.3779,-2.3873,-2.3101,-2.307,-2.3101,-2.3101,-2.3101,-2.3101,-2.3101,-2.3101,-2.3101,-2.3101,-2.3101,-2.3101,-2.3101,-2.3101,-2.3003,-2.2808,-2.2637,-2.2207,-2.1582,-2.1152,-2.0801,-2.0605,-2.0605,-2.0605,-2.0605,-2.0605,-2.0605,-2.0605,0.0,-2.0605,-2.0605,-2.0605,-2.0605,-2.0605,-2.0605,-2.0293,-1.9824,-1.918,-1.8773,-1.8539,-1.813,-1.8008,-1.8008,-1.8008,-1.8008,-1.8008,-1.8008,-1.8008,-1.8008,-1.8008,-1.8008,-1.8008,-1.8008,-1.8008,-1.8008,-1.8008,-1.8008,-1.8008,-1.8008,-1.8008,-1.7754,-1.6863,-1.6707,-1.6414,-1.5537,-1.541,-1.541,-1.541,-1.541,-1.541,-1.541,-1.541,-1.541,-1.541,-1.541,-1.5332,-1.5137,-1.4922,-1.4512,-1.3821,-1.3437,-1.3125,-1.2915,-1.3166,-1.3166,-1.2915,-1.2915,-1.2915,-1.2915,-1.2915,-1.2915,-1.2915,-1.2915,-1.2915,-2.3101,-2.3457,-2.3789,-2.3789,-2.4987,-2.587,-2.4638,-2.4102,-2.3691,-2.3359,-2.3257,-2.3218,-2.312,-2.3274,-2.318,-2.255,-2.3233,-2.3361,-2.2015,-2.2598,-2.3101,-2.3101,-2.3101,-2.3101,-2.3101,-2.3101,-2.3101,-2.3101,-2.3101,-2.3101,-2.3101,-2.3101,-2.3101,-2.3101,-2.2789,-2.2402,-2.1894,-2.1562,-2.1113,-2.0605,-2.0605,-2.0605,-2.0605,-2.0605,-2.0605,-2.0605,-2.0605,-2.0605,-2.0605,-2.0605,-2.0605,-2.0605,-2.0605,-2.0293,-1.9824,-1.9143,-1.8773,-1.8559,-1.8379,-1.8184,-1.8027,-1.8125,-1.8086,-1.8008,-1.8008,-1.8008,-1.8008,-1.8008,-1.8008,-1.8008,-1.8008,-1.8008,-1.8008,-1.8008,-1.8008,-1.8008,-1.8008,-1.8008,-1.7793,-1.6999,-1.6765,-1.6453,-1.5703,-1.5469,-1.541,-1.541,-1.541,-1.541,-1.541,-1.541,-1.541,-1.541,-1.541,-1.541,-1.541,-1.5117,-1.4609,-1.3848,-1.3613,-1.332,-1.2915,-1.2915,-1.2915,-1.2915,-1.2915,-1.2915,-1.2915,-1.2915,-1.2915,-1.2915,-1.2915,-1.2915,-2.3101,-2.3457,-2.3789,-2.3789,-2.3918,-2.41,-2.4336,-2.4102,-2.3769,-2.375,-2.375,-2.3613,-2.3179,-2.2584,-2.2244,-2.255,-2.2343,-2.2153,-2.1979,-2.2643,-2.3101,-2.3101,-2.3101,-2.3101,-2.3101,-2.3101,-2.3101,-2.3101,-2.3101,-2.3101,-2.3101,-2.3101,-2.3101,-2.3101,-2.3062,-2.2652,-2.1894,-2.1855,-2.1447,-2.0605,-2.0605,-2.0605,-2.0605,-2.0605,-2.0605,-2.0605,-2.0605,-2.0605,-2.0605,-2.0605,-2.0605,-2.0605,-2.0605,-2.0293,-1.9902,-1.9844,-1.928,-1.8656,-1.9062,-1.8672,-1.8066,-1.8422,-1.8286,-1.8008,-1.8008,-1.8008,-1.8008,-1.8008,-1.8008,-1.8008,-1.8008,-1.8008,-1.8008,-1.8008,-1.8008,-1.8008,-1.8008,-1.8008,-1.7871,-1.7422,-1.7012,-1.6551,-1.6124,-1.5684,-1.541,-1.541,-1.541,-1.541,-1.541,-1.541,-1.541,-1.541,-1.541,-1.541,-1.541,-1.5391,-1.5176,-1.4727,-1.3945,-1.332,-1.2915,-1.2915,-1.2915,-1.2915,-1.2915,-1.2915,-1.2915,-1.2915,-1.2915,-1.2915,-1.2915,-1.2915,-2.3101,-2.3218,-2.3457,-2.373,-2.3594,-2.3574,-2.4258,-2.4297,-2.418,-2.418,-2.3965,-2.3506,-2.2614,-2.2208,-2.1596,-2.0376,-2.0557,-2.0788,-2.0695,-2.1419,-2.2252,-2.2994,-2.3101,-2.3101,-2.3101,-2.3101,-2.3101,-2.3101,-2.3101,-2.3101,-2.3101,-2.3101,-2.3101,-2.3101,-2.2847,-2.248,-2.1894,-2.1621,-2.1172,-2.0605,-2.0605,-2.0605,-2.0605,-2.0605,-2.0605,-2.0605,-2.0605,-2.0605,-2.0605,-2.0605,-2.0605,-2.0605,-2.0605,-2.0507,-2.0293,-2.0019,-1.9551,-1.9062,-1.9238,-1.8887,-1.8442,-1.8906,-1.8715,-1.8364,-1.8364,-1.8223,-1.8008,-1.8008,-1.8008,-1.8008,-1.8008,-1.8008,-1.8008,-1.8008,-1.8008,-1.8008,-1.8008,-1.8008,-1.7891,-1.7461,-1.7246,-1.6914,-1.6222,-1.5948,-1.5723,-1.5449,-1.541,-1.541,-1.541,-1.541,-1.541,-1.541,-1.541,-1.541,-1.541,-1.541,-1.5234,-1.4833,-1.4238,-1.3685,-1.3281,-1.3052,-1.2915,-1.2915,-1.2915,-1.2915,-1.2915,-1.2915,-1.2915,-1.2915,-1.2915,-1.2915,-2.3101,-2.3101,-2.3159,-2.3516,-2.303,-2.2764,-2.3556,-2.3746,-2.3784,-2.3918,-2.3223,-2.2327,-2.1501,-2.0934,-2.0145,-1.8649,-1.8909,-1.9441,-1.972,-2.065,-2.1747,-2.295,-2.3101,-2.3101,-2.3101,-2.3101,-2.3101,-2.3101,-2.3101,-2.3101,-2.3101,-2.3101,-2.3101,-2.3101,-2.2734,-2.2305,-2.1894,-2.1405,-2.1016,-2.0605,-2.0605,-2.0605,-2.0605,-2.0605,-2.0605,-2.0605,-2.0605,-2.0605,-2.0605,-2.0605,-2.0605,-2.0605,-2.0605,-2.0605,-2.0566,-2.0234,-1.9844,-1.9512,-1.9648,-1.9316,-1.887,-1.9336,-1.9199,-1.8773,-1.8637,-1.8403,-1.8149,-1.8047,-1.8008,-1.8008,-1.8008,-1.8008,-1.8008,-1.8008,-1.8008,-1.8008,-1.8008,-1.8008,-1.793,-1.7637,-1.748,-1.7148,-1.6437,-1.6183,-1.5948,-1.5469,-1.541,-1.541,-1.541,-1.541,-1.541,-1.541,-1.541,-1.541,-1.541,-1.541,-1.5293,-1.5,-1.459,-1.4055,-1.3535,-1.3105,-1.2915,-1.2915,-1.2915,-1.2915,-1.2915,-1.2915,-1.2915,-1.2915,-1.2915,-1.2915,-2.3101,-2.3101,-2.3101,-2.3101,-2.2183,-2.1473,-2.2218,-2.2369,-2.2524,-2.2901,-2.135,-1.9884,-1.9884,-1.8676,-1.7684,-1.7684,-1.7684,-1.8149,-1.9314,-2.0522,-2.1747,-2.295,-2.3101,-2.3101,-2.3101,-2.3101,-2.3101,-2.3101,-2.3101,-2.3101,-2.3101,-2.3101,-2.3101,-2.3081,-2.2672,-2.2305,-2.1894,-2.1445,-2.0996,-2.0605,-2.0605,-2.0605,-2.0605,-2.0605,-2.0605,-2.0605,-2.0605,-2.0605,-2.0605,-2.0605,-2.0605,-2.0605,-2.0605,-2.0605,-2.0605,-2.0605,-2.0293,-1.998,-2.0449,-2.0038,-1.9355,-1.9785,-1.9629,-1.9219,-1.8734,-1.8617,-1.852,-1.8144,-1.8008,-1.8008,-1.8008,-1.8008,-1.8008,-1.8008,-1.8008,-1.8008,-1.8008,-1.8008,-1.8008,-1.8008,-1.7676,-1.7246,-1.6785,-1.6367,-1.5948,-1.5488,-1.541,-1.541,-1.541,-1.541,-1.541,-1.541,-1.541,-1.541,-1.541,-1.541,-1.541,-1.541,-1.5019,-1.4394,-1.3555,-1.3105,-1.2915,-1.2915,-1.2915,-1.2915,-1.2915,-1.2915,-1.2915,-1.2915,-1.2915,-1.2915,-2.3101,-2.2492,-2.1836,-2.1836,-2.1048,-2.0391,-2.0704,-2.0959,-2.1179,-2.1298,-2.0793,-1.9971,-1.8598,-1.7977,-1.7404,-1.6527,-1.7138,-1.8149,-1.9314,-2.0522,-2.1747,-2.295,-2.3101,-2.3101,-2.3101,-2.3101,-2.3101,-2.3101,-2.3101,-2.3101,-2.3101,-2.3101,-2.2964,-2.2715,-2.2285,-2.1855,-2.1385,-2.0996,-2.0742,-2.0605,-2.0605,-2.0605,-2.0605,-2.0605,-2.0605,-2.0605,-2.0605,-2.0605,-2.0605,-2.0605,-2.0605,-2.0605,-2.0605,-2.0605,-2.0605,-2.0605,-2.0293,-1.998,-2.0449,-2.0195,-1.9805,-2.0234,-2.0078,-1.9707,-1.957,-1.9085,-1.8578,-1.8461,-1.8208,-1.8008,-1.8008,-1.8008,-1.8008,-1.8008,-1.8008,-1.8008,-1.8008,-1.8008,-1.8008,-1.8008,-1.791,-1.7695,-1.7266,-1.6836,-1.6387,-1.5968,-1.5605,-1.541,-1.541,-1.541,-1.541,-1.541,-1.541,-1.541,-1.541,-1.541,-1.541,-1.541,-1.5019,-1.4531,-1.3938,-1.3555,-1.3184,-1.2915,-1.2915,-1.2915,-1.2915,-1.2915,-1.2915,-1.2915,-1.2915,-1.2915,-2.2403,-2.148,-2.0602,-2.0713,-1.9953,-1.913,-1.8841,-1.9316,-1.97,-1.9179,-1.8975,-1.852,-1.7337,-1.7037,-1.6716,-1.5927,-1.6433,-1.7529,-1.9268,-2.0133,-2.1212,-2.2906,-2.3101,-2.3101,-2.3101,-2.3101,-2.3101,-2.3101,-2.3101,-2.3101,-2.3101,-2.3101,-2.2906,-2.2519,-2.2109,-2.168,-2.119,-2.0781,-2.0605,-2.0605,-2.0605,-2.0605,-2.0605,-2.0605,-2.0605,-2.0605,-2.0605,-2.0605,-2.0605,-2.0605,-2.0605,-2.0605,-2.0605,-2.0605,-2.0605,-2.0605,-2.0429,-2.0215,-2.0507,-2.0391,-2.0215,-2.0527,-2.0429,-2.0137,-1.9961,-1.9434,-1.8831,-1.8656,-1.8305,-1.8008,-1.8008,-1.8008,-1.8008,-1.8008,-1.8008,-1.8008,-1.8008,-1.8008,-1.8008,-1.8008,-1.8008,-1.7871,-1.7461,-1.7168,-1.6836,-1.6387,-1.5957,-1.5605,-1.543,-1.541,-1.541,-1.541,-1.541,-1.541,-1.541,-1.541,-1.541,-1.541,-1.5176,-1.4844,-1.4414,-1.3958,-1.3555,-1.3145,-1.3125,-1.3071,-1.2915,-1.2915,-1.2915,-1.2915,-1.2915,-1.2915,-2.115,-2.0286,-1.9445,-1.9662,-1.8814,-1.7722,-1.6842,-1.7563,-1.8091,-1.6896,-1.646,-1.6308,-1.6233,-1.6005,-1.5784,-1.5784,-1.5927,-1.6796,-1.9177,-1.9588,-2.0539,-2.2818,-2.3101,-2.3101,-2.3101,-2.3101,-2.3101,-2.3101,-2.3101,-2.3101,-2.3101,-2.3062,-2.2847,-2.2461,-2.2051,-2.1621,-2.1132,-2.0762,-2.0605,-2.0605,-2.0605,-2.0605,-2.0605,-2.0605,-2.0605,-2.0605,-2.0605,-2.0605,-2.0605,-2.0605,-2.0605,-2.0605,-2.0605,-2.0605,-2.0605,-2.0605,-2.0605,-2.0605,-2.0605,-2.0605,-2.0605,-2.0605,-2.0605,-2.0527,-2.0098,-1.9648,-1.9199,-1.8773,-1.8325,-1.8008,-1.8008,-1.8008,-1.8008,-1.8008,-1.8008,-1.8008,-1.8008,-1.8008,-1.8008,-1.8008,-1.8008,-1.7891,-1.75,-1.7402,-1.7227,-1.6765,-1.6348,-1.5948,-1.5527,-1.543,-1.541,-1.541,-1.541,-1.541,-1.541,-1.541,-1.541,-1.541,-1.541,-1.5234,-1.4863,-1.4414,-1.3958,-1.3516,-1.3516,-1.3301,-1.2915,-1.2915,-1.2915,-1.2915,-1.2915,-1.2915,-1.9906,-1.9156,-1.8405,-1.8482,-1.7601,-1.6627,-1.6451,-1.6421,-1.6409,-1.641,-1.6313,-1.6206,-1.5965,-1.5872,-1.5784,-1.5784,-1.6622,-1.7824,-1.9314,-2.0296,-2.1436,-2.2906,-2.3101,-2.3101,-2.3101,-2.3101,-2.3101,-2.3101,-2.3101,-2.3101,-2.3101,-2.2789,-2.2461,-2.2031,-2.1602,-2.1152,-2.0723,-2.0644,-2.0605,-2.0605,-2.0605,-2.0605,-2.0605,-2.0605,-2.0605,-2.0605,-2.0605,-2.0605,-2.0605,-2.0605,-2.0605,-2.0605,-2.0605,-2.0605,-2.0605,-2.0605,-2.0605,-2.0605,-2.0605,-2.0605,-2.0605,-2.0605,-2.0605,-2.0586,-2.0488,-1.992,-1.9277,-1.918,-1.8594,-1.8008,-1.8008,-1.8008,-1.8008,-1.8008,-1.8008,-1.8008,-1.8008,-1.8008,-1.8008,-1.8008,-1.8008,-1.7988,-1.7891,-1.7598,-1.7227,-1.6765,-1.6348,-1.6065,-1.5968,-1.5625,-1.541,-1.541,-1.541,-1.541,-1.541,-1.541,-1.541,-1.541,-1.541,-1.5371,-1.5273,-1.4863,-1.4277,-1.3535,-1.3516,-1.3301,-1.2915,-1.2915,-1.2915,-1.2915,-1.2915,-1.2915,-1.8642,-1.7851,-1.7032,-1.7187,-1.6746,-1.6321,-1.6321,-1.6046,-1.5872,-1.6032,-1.6059,-1.6019,-1.5811,-1.5784,-1.5784,-1.5784,-1.6339,-1.7217,-1.8457,-1.9679,-2.0899,-2.2076,-2.2775,-2.3101,-2.3101,-2.3101,-2.3101,-2.3101,-2.3101,-2.3101,-2.3101,-2.2734,-2.2324,-2.1894,-2.1465,-2.1016,-2.0605,-2.0605,-2.0605,-2.0605,-2.0605,-2.0605,-2.0605,-2.0605,-2.0605,-2.0605,-2.0605,-2.0605,-2.0605,-2.0605,-2.0605,-2.0605,-2.0605,-2.0605,-2.0605,-2.0605,-2.0605,-2.0605,-2.0605,-2.0605,-2.0605,-2.0605,-2.0605,-2.0605,-2.0605,-1.9999,-1.9297,-1.9297,-1.8672,-1.8008,-1.8008,-1.8008,-1.8008,-1.8008,-1.8008,-1.8008,-1.8008,-1.8008,-1.8008,-1.8008,-1.8008,-1.8008,-1.8008,-1.7832,-1.7539,-1.7109,-1.6855,-1.6574,-1.6144,-1.5889,-1.5644,-1.543,-1.541,-1.541,-1.541,-1.541,-1.541,-1.541,-1.541,-1.541,-1.541,-1.5195,-1.4687,-1.3802,-1.3782,-1.3496,-1.2915,-1.2915,-1.2915,-1.2915,-1.2915,-1.2915,-1.7404,-1.6664,-1.5965,-1.6206,-1.6321,-1.6259,-1.6206,-1.6005,-1.5784,-1.5784,-1.5784,-1.5784,-1.5784,-1.5784,-1.5784,-1.5784,-1.5784,-1.6244,-1.7498,-1.8549,-1.9724,-2.1105,-2.2164,-2.2862,-2.3101,-2.3101,-2.3101,-2.3101,-2.3101,-2.3101,-2.3101,-2.2676,-2.2246,-2.1894,-2.1387,-2.0937,-2.0605,-2.0605,-2.0605,-2.0605,-2.0605,-2.0605,-2.0605,-2.0605,-2.0605,-2.0605,-2.0605,-2.0605,-2.0605,-2.0605,-2.0605,-2.0605,-2.0605,-2.0605,-2.0605,-2.0605,-2.0605,-2.0605,-2.0605,-2.0605,-2.0605,-2.0605,-2.0605,-2.0605,-2.0605,-1.9999,-1.9297,-1.9297,-1.8672,-1.8008,-1.8008,-1.8008,-1.8008,-1.8008,-1.8008,-1.8008,-1.8008,-1.8008,-1.8008,-1.8008,-1.8008,-1.8008,-1.8008,-1.8008,-1.7891,-1.7539,-1.7422,-1.7122,-1.632,-1.6144,-1.5928,-1.5449,-1.541,-1.541,-1.541,-1.541,-1.541,-1.541,-1.541,-1.541,-1.541,-1.541,-1.5011,-1.4231,-1.4133,-1.3685,-1.2915,-1.2915,-1.2915,-1.2915,-1.2915,-1.2915,-1.6339,-1.6163,-1.6219,-1.6308,-1.6321,-1.6206,-1.5952,-1.5811,-1.5784,-1.5784,-1.5784,-1.5784,-1.5784,-1.5784,-1.5784,-1.5784,-1.5784,-1.6244,-1.7498,-1.7824,-1.878,-2.1016,-2.1436,-2.1943,-2.3013,-2.3101,-2.3101,-2.3101,-2.3101,-2.3101,-2.3101,-2.2402,-2.1953,-2.1894,-2.1134,-2.0664,-2.0605,-2.0605,-2.0605,-2.0605,-2.0605,-2.0605,-2.0605,-2.0605,-2.0605,-2.0605,-2.0605,-2.0605,-2.0605,-2.0605,-2.0605,-2.0605,-2.0605,-2.0605,-2.0605,-2.0605,-2.0605,-2.0605,-2.0605,-2.0605,-2.0605,-2.0605,-2.0605,-2.0605,-2.0605,-1.9999,-1.9297,-1.9297,-1.8672,-1.8008,-1.8008,-1.8008,-1.8008,-1.8008,-1.8008,-1.8008,-1.8008,-1.8008,-1.8008,-1.8008,-1.8008,-1.8008,-1.8008,-1.8008,-1.7988,-1.793,-1.7617,-1.7207,-1.6668,-1.6339,-1.5928,-1.5449,-1.541,-1.541,-1.541,-1.541,-1.541,-1.541,-1.541,-1.541,-1.541,-1.541,-1.5195,-1.4707,-1.4309,-1.3685,-1.2915,-1.2915,-1.2915,-1.2915,-1.2915,-1.2915,-1.615,-1.5925,-1.6019,-1.6019,-1.6019,-1.5992,-1.5811,-1.5784,-1.5784,-1.5784,-1.5784,-1.5784,-1.5784,-1.5784,-1.5784,-1.5784,-1.5784,-1.6021,-1.6574,-1.7264,-1.8087,-1.9177,-1.9906,-2.0764,-2.1987,-2.2076,-2.2359,-2.3057,-2.3101,-2.2984,-2.2769,-2.2207,-2.1777,-2.1523,-2.0898,-2.0605,-2.0605,-2.0605,-2.0605,-2.0605,-2.0605,-2.0605,-2.0605,-2.0605,-2.0605,-2.0605,-2.0605,-2.0605,-2.0605,-2.0605,-2.0605,-2.0605,-2.0605,-2.0605,-2.0605,-2.0605,-2.0605,-2.0605,-2.0605,-2.0605,-2.0605,-2.0605,-2.0605,-2.0566,-2.0273,-1.9766,-1.9238,-1.8984,-1.8477,-1.8008,-1.8008,-1.8008,-1.8008,-1.8008,-1.8008,-1.8008,-1.8008,-1.8008,-1.8008,-1.8008,-1.8008,-1.8008,-1.8008,-1.8008,-1.8008,-1.8008,-1.7852,-1.7578,-1.7148,-1.6719,-1.6269,-1.585,-1.5566,-1.541,-1.541,-1.541,-1.541,-1.541,-1.541,-1.541,-1.541,-1.541,-1.5215,-1.4813,-1.459,-1.4082,-1.3242,-1.3242,-1.3105,-1.2915,-1.2915,-1.2915,-1.6608,-1.6069,-1.5784,-1.5784,-1.5784,-1.5784,-1.5784,-1.5784,-1.5784,-1.5784,-1.5784,-1.5784,-1.5784,-1.5784,-1.5784,-1.5784,-1.5784,-1.5784,-1.5784,-1.6622,-1.7358,-1.7638,-1.8503,-1.9633,-2.115,-2.1302,-2.181,-2.2994,-2.3101,-2.2906,-2.2539,-2.2109,-2.168,-2.121,-2.0801,-2.0605,-2.0605,-2.0605,-2.0605,-2.0605,-2.0605,-2.0605,-2.0605,-2.0605,-2.0605,-2.0605,-2.0605,-2.0605,-2.0605,-2.0605,-2.0605,-2.0605,-2.0605,-2.0605,-2.0605,-2.0605,-2.0605,-2.0605,-2.0605,-2.0605,-2.0605,-2.0605,-2.0527,-2.037,-2.0019,-1.9551,-1.9062,-1.8695,-1.8305,-1.8027,-1.8144,-1.813,-1.8169,-1.8301,-1.834,-1.8281,-1.8066,-1.8008,-1.8008,-1.8008,-1.8008,-1.8008,-1.8008,-1.8008,-1.8008,-1.8008,-1.8008,-1.7852,-1.7441,-1.709,-1.668,-1.6163,-1.5811,-1.5527,-1.543,-1.541,-1.541,-1.541,-1.541,-1.541,-1.541,-1.541,-1.5273,-1.4941,-1.4941,-1.4512,-1.3646,-1.3555,-1.334,-1.3047,-1.2954,-1.2915,-1.7886,-1.6716,-1.5784,-1.5784,-1.5784,-1.5784,-1.5784,-1.5784,-1.5784,-1.5784,-1.5784,-1.5784,-1.5784,-1.5784,-1.5784,-1.5784,-1.5784,-1.5784,-1.5784,-1.5879,-1.6339,-1.7544,-1.7777,-1.8734,-2.106,-2.1302,-2.181,-2.2994,-2.3101,-2.2906,-2.2539,-2.2109,-2.168,-2.121,-2.0801,-2.0605,-2.0605,-2.0605,-2.0605,-2.0605,-2.0605,-2.0605,-2.0605,-2.0605,-2.0605,-2.0605,-2.0605,-2.0605,-2.0605,-2.0605,-2.0605,-2.0605,-2.0605,-2.0605,-2.0605,-2.0605,-2.0605,-2.0605,-2.0605,-2.0605,-2.0605,-2.0605,-2.0293,-1.9941,-1.9922,-1.9299,-1.8637,-1.8617,-1.8305,-1.8105,-1.8461,-1.8559,-1.8676,-1.9121,-1.9219,-1.9004,-1.8184,-1.8008,-1.8008,-1.8008,-1.8008,-1.8008,-1.8008,-1.8008,-1.8008,-1.8008,-1.8008,-1.7852,-1.7441,-1.7363,-1.7044,-1.6183,-1.6065,-1.5889,-1.5449,-1.541,-1.541,-1.541,-1.541,-1.541,-1.541,-1.541,-1.5391,-1.5371,-1.5371,-1.4933,-1.4075,-1.3711,-1.3496,-1.3477,-1.3066,-1.2915,-1.9901,-1.8284,-1.694,-1.6632,-1.6187,-1.5784,-1.5784,-1.5784,-1.5784,-1.5784,-1.5784,-1.5784,-1.5784,-1.5784,-1.5784,-1.5784,-1.5784,-1.5784,-1.5784,-1.5784,-1.5974,-1.6433,-1.648,-1.7436,-1.9889,-2.0116,-2.0989,-2.295,-2.3101,-2.2906,-2.2539,-2.2109,-2.168,-2.121,-2.0801,-2.0605,-2.0605,-2.0605,-2.0605,-2.0605,-2.0605,-2.0605,-2.0605,-2.0605,-2.0605,-2.0605,-2.0605,-2.0605,-2.0605,-2.0605,-2.0605,-2.0605,-2.0605,-2.0605,-2.0605,-2.0605,-2.0605,-2.0605,-2.0605,-2.0605,-2.0605,-2.0605,-2.0507,-2.0273,-2.0,-1.967,-1.9358,-1.9121,-1.8945,-1.8867,-1.9023,-1.9062,-1.9102,-1.9258,-1.9082,-1.8789,-1.8442,-1.8169,-1.8008,-1.8008,-1.8008,-1.8008,-1.8008,-1.8008,-1.8008,-1.8008,-1.8008,-1.7949,-1.7812,-1.7559,-1.7298,-1.6985,-1.6437,-1.6026,-1.587,-1.5566,-1.541,-1.541,-1.541,-1.541,-1.541,-1.541,-1.541,-1.541,-1.541,-1.5137,-1.4551,-1.4094,-1.3743,-1.3496,-1.3091,-1.2915,-2.2283,-2.0386,-1.876,-1.8459,-1.7383,-1.6433,-1.6433,-1.6103,-1.5784,-1.5784,-1.5784,-1.5784,-1.5784,-1.5784,-1.5784,-1.5784,-1.5784,-1.5784,-1.5784,-1.5784,-1.5784,-1.5784,-1.5784,-1.6608,-1.8672,-1.9268,-2.0314,-2.2315,-2.2862,-2.2906,-2.2539,-2.2109,-2.1621,-2.1035,-2.0723,-2.0605,-2.0605,-2.0605,-2.0605,-2.0605,-2.0605,-2.0605,-2.0605,-2.0605,-2.0605,-2.0605,-2.0605,-2.0605,-2.0605,-2.0605,-2.0605,-2.0605,-2.0605,-2.0605,-2.0605,-2.0605,-2.0605,-2.0605,-2.0605,-2.0605,-2.0605,-2.0605,-2.0507,-2.0293,-2.0,-1.9824,-1.9648,-1.9375,-1.9297,-1.9316,-1.9453,-1.9609,-1.9764,-1.9764,-1.9394,-1.8987,-1.8851,-1.8418,-1.8008,-1.8008,-1.8008,-1.8008,-1.8008,-1.8008,-1.8008,-1.8008,-1.8008,-1.8008,-1.8008,-1.7773,-1.7539,-1.7402,-1.6887,-1.6418,-1.6124,-1.5801,-1.5566,-1.543,-1.541,-1.541,-1.541,-1.541,-1.541,-1.541,-1.541,-1.5273,-1.5,-1.457,-1.4219,-1.3926,-1.3496,-1.3223,0.0,0.0,0.0,-2.1166,-1.9459,-1.7777,-1.7731,-1.6763,-1.5832,-1.5832,-1.5784,-1.5784,-1.5784,-1.5784,-1.5784,-1.5784,-1.5784,-1.5784,-1.5784,-1.5784,-1.5784,-1.5784,-1.5784,-1.6292,-1.7591,-1.8764,-1.9997,-2.1204,-2.2422,-2.2925,-2.2559,-2.2129,-2.1525,-2.0644,-2.0605,-2.0605,-2.0605,-2.0605,-2.0605,-2.0605,-2.0605,-2.0605,-2.0605,-2.0605,-2.0605,-2.0605,-2.0605,-2.0605,-2.0605,-2.0605,-2.0605,-2.0605,-2.0605,-2.0605,-2.0605,-2.0605,-2.0605,-2.0605,-2.0605,-2.0605,-2.0605,-2.0605,-2.0273,-1.9941,-1.9941,-1.9648,-1.9316,-1.9316,-1.9316,-1.9414,-1.9824,-2.0254,-2.0605,-2.0605,-2.0234,-1.9805,-1.9375,-1.8633,-1.8027,-1.8008,-1.8008,-1.8008,-1.8008,-1.8008,-1.8008,-1.8008,-1.8008,-1.8008,-1.8008,-1.8008,-1.7852,-1.7441,-1.7416,-1.7063,-1.6202,-1.6105,-1.5909,-1.5469,-1.54,-1.541,-1.543,-1.541,-1.541,-1.541,-1.541,-1.541,-1.541,-1.5,-1.4813,-1.4793,-1.4309,-1.3899,-2.685,0.0,0.0,0.0,0.0,0.0,-1.8087,-1.7404,-1.6904,-1.5974,-1.5784,-1.5784,-1.5784,-1.5784,-1.5784,-1.5784,-1.5784,-1.5784,-1.5784,-1.5784,-1.5784,-1.5784,-1.5784,-1.6292,-1.7591,-1.8764,-1.9997,-2.1212,-2.2403,-2.3042,-2.2925,-2.2285,-2.1621,-2.1074,-2.0742,-2.0605,-2.0605,-2.0605,-2.0605,-2.0605,-2.0605,-2.0605,-2.0605,-2.0605,-2.0605,-2.0605,-2.0605,-2.0605,-2.0605,-2.0605,-2.0605,-2.0605,-2.0605,-2.0605,-2.0605,-2.0605,-2.0605,-2.0605,-2.0605,-2.0605,-2.0605,-2.0605,-2.0527,-2.0429,-2.0429,-2.0351,-2.0253,-2.0253,-2.0253,-2.0273,-2.039,-2.0507,-2.0605,-2.0605,-2.0234,-1.9805,-1.9375,-1.8848,-1.8344,-1.8066,-1.8008,-1.8008,-1.8008,-1.8008,-1.8008,-1.8008,-1.8008,-1.8008,-1.8008,-1.8008,-1.7969,-1.7852,-1.7559,-1.7285,-1.7063,-1.6457,-1.6183,-1.6317,-1.5732,-1.5547,-1.5889,-1.5586,-1.541,-1.541,-1.541,-1.541,-1.541,-1.5,-1.4813,-1.4793,-1.4309,-1.4036,-2.8519,-2.7282,-2.5848,-2.4968,0.0,0.0,-2.0165,-1.9001,-1.7873,-1.6828,-1.6574,-1.6433,-1.5927,-1.5784,-1.5784,-1.5784,-1.5784,-1.5784,-1.5784,-1.5784,-1.5784,-1.5784,-1.5939,-1.6252,-1.6871,-1.8116,-1.9385,-2.0449,-2.1676,-2.2503,-2.2847,-2.2422,-2.1953,-2.1523,-2.1074,-2.084,-2.084,-2.0703,-2.0605,-2.0605,-2.0605,-2.0605,-2.0605,-2.0605,-2.0605,-2.0605,-2.0605,-2.0605,-2.0605,-2.0605,-2.0605,-2.0605,-2.0605,-2.0605,-2.0605,-2.0605,-2.0605,-2.0605,-2.0605,-2.0605,-2.0605,-2.0605,-2.0605,-2.0605,-2.0605,-2.0605,-2.0605,-2.0605,-2.0605,-2.0605,-2.0605,-2.0605,-2.0605,-2.0605,-2.041,-2.0078,-1.9648,-1.9355,-1.8909,-1.8164,-1.8008,-1.8008,-1.8008,-1.8008,-1.8008,-1.8008,-1.8008,-1.8008,-1.8008,-1.8008,-1.8008,-1.8008,-1.7793,-1.7578,-1.7402,-1.6738,-1.6445,-1.6687,-1.5868,-1.5605,-1.6065,-1.5644,-1.541,-1.541,-1.541,-1.541,-1.541,-1.5156,-1.5039,-1.5039,-1.4609,-1.4387,-2.9804,-2.9067,-2.8267,-2.8124,-2.5505,0.0,-2.313,-2.1134,-1.9039,-1.8241,-1.7994,-1.7498,-1.6244,-1.6008,-1.5974,-1.5832,-1.5784,-1.5784,-1.5784,-1.5784,-1.5798,-1.5872,-1.6112,-1.6179,-1.5952,-1.7218,-1.8517,-1.9487,-2.0782,-2.1838,-2.2512,-2.2539,-2.2344,-2.1973,-2.1484,-2.119,-2.119,-2.0781,-2.0605,-2.0605,-2.0605,-2.0605,-2.0605,-2.0605,-2.0605,-2.0605,-2.0605,-2.0605,-2.0605,-2.0605,-2.0605,-2.0605,-2.0605,-2.0605,-2.0605,-2.0605,-2.0605,-2.0605,-2.0605,-2.0605,-2.0605,-2.0605,-2.0605,-2.0605,-2.0605,-2.0605,-2.0605,-2.0605,-2.0605,-2.0605,-2.0605,-2.0605,-2.0605,-2.0605,-2.0605,-2.0488,-2.0,-1.9922,-1.957,-1.8379,-1.8105,-1.8066,-1.8008,-1.8008,-1.8008,-1.8008,-1.8008,-1.8008,-1.8008,-1.8008,-1.8008,-1.8008,-1.8008,-1.7852,-1.748,-1.7051,-1.6804,-1.6843,-1.6024,-1.5762,-1.6222,-1.5742,-1.5488,-1.5488,-1.543,-1.541,-1.541,-1.541,-1.541,-1.5391,-1.5019,-1.4891,-2.9804,-2.9624,-2.9248,-2.8347,-2.7549,0.0,-2.4682,-2.3173,-2.187,-2.0668,-1.9748,-1.878,-1.7544,-1.7326,-1.6998,-1.5974,-1.5784,-1.5784,-1.5784,-1.5784,-1.5912,-1.6152,-1.6233,-1.6339,-1.6513,-1.7475,-1.8561,-1.9739,-2.1635,-2.2824,-2.2984,-2.2695,-2.248,-2.2402,-2.16,-2.119,-2.119,-2.0781,-2.0605,-2.0605,-2.0605,-2.0605,-2.0605,-2.0605,-2.0605,-2.0605,-2.0605,-2.0605,-2.0605,-2.0605,-2.0605,-2.0605,-2.0605,-2.0605,-2.0605,-2.0605,-2.0605,-2.0605,-2.0605,-2.0605,-2.0605,-2.0605,-2.0605,-2.0605,-2.0605,-2.0605,-2.0605,-2.0605,-2.0605,-2.0605,-2.0605,-2.0605,-2.0605,-2.0605,-2.0605,-2.0488,-2.0,-1.9922,-1.9746,-1.916,-1.875,-1.8364,-1.8066,-1.8008,-1.8008,-1.8008,-1.8008,-1.8008,-1.8008,-1.8008,-1.8008,-1.8008,-1.8008,-1.7969,-1.7891,-1.75,-1.7402,-1.7734,-1.6921,-1.668,-1.7142,-1.6398,-1.5968,-1.5968,-1.5586,-1.541,-1.541,-1.541,-1.541,-1.541,-1.5332,-1.5293,-2.9804,-2.9804,-2.9663,-2.9106,-2.8352,0.0,0.0,-2.5348,-2.4116,-2.3047,-2.1802,-2.0598,-1.9562,-1.8771,-1.7934,-1.6922,-1.6763,-1.6527,-1.5879,-1.5784,-1.5939,-1.6233,-1.6393,-1.654,-1.6687,-1.7112,-1.8026,-1.9608,-2.1786,-2.3101,-2.3101,-2.2906,-2.2789,-2.2789,-2.2012,-2.1562,-2.1562,-2.0898,-2.0605,-2.0605,-2.0605,-2.0605,-2.0605,-2.0605,-2.0605,-2.0605,-2.0605,-2.0605,-2.0605,-2.0605,-2.0605,-2.0605,-2.0605,-2.0605,-2.0605,-2.0605,-2.0605,-2.0605,-2.0605,-2.0605,-2.0605,-2.0605,-2.0605,-2.0605,-2.0605,-2.0605,-2.0605,-2.0605,-2.0605,-2.0605,-2.0605,-2.0605,-2.0605,-2.0605,-2.0605,-2.0546,-2.0293,-2.0234,-2.0117,-1.9687,-1.9414,-1.9104,-1.8711,-1.8457,-1.8286,-1.8286,-1.8144,-1.8008,-1.8008,-1.8008,-1.8008,-1.8008,-1.8008,-1.8008,-1.8008,-1.7617,-1.7559,-1.7988,-1.7174,-1.6902,-1.7363,-1.6738,-1.6289,-1.6105,-1.5644,-1.541,-1.541,-1.541,-1.541,-1.541,-1.541,-1.541,-2.9804,-2.9804,-2.9804,-2.9804,-2.8864,-2.8038,0.0,0.0,0.0,-2.5391,-2.4096,-2.2836,-2.1945,-2.0676,-1.9462,-1.8501,-1.8287,-1.7826,-1.6687,-1.6513,-1.6449,-1.633,-1.6473,-1.6647,-1.67,-1.6846,-1.7683,-1.9363,-2.1543,-2.2862,-2.3101,-2.3101,-2.3101,-2.3101,-2.2324,-2.1894,-2.1894,-2.1055,-2.0605,-2.0605,-2.0605,-2.0605,-2.0605,-2.0605,-2.0605,-2.0605,-2.0605,-2.0605,-2.0605,-2.0605,-2.0605,-2.0605,-2.0605,-2.0605,-2.0605,-2.0605,-2.0605,-2.0605,-2.0605,-2.0605,-2.0605,-2.0605,-2.0605,-2.0605,-2.0605,-2.0605,-2.0605,-2.0605,-2.0605,-2.0605,-2.0605,-2.0605,-2.0605,-2.0605,-2.0605,-2.0605,-2.0605,-2.0605,-2.0507,-2.0117,-2.0039,-1.9883,-1.9375,-1.8926,-1.8598,-1.8598,-1.8247,-1.8008,-1.8008,-1.8008,-1.8008,-1.8008,-1.8008,-1.8008,-1.8008,-1.7695,-1.7656,-1.7988,-1.733,-1.7129,-1.75,-1.709,-1.6602,-1.6105,-1.5723,-1.5488,-1.541,-1.541,-1.541,-1.541,-1.541,-1.541,-2.9804,-2.9804,-2.9804,-2.9804,-2.9651,-2.9549,-2.9599,0.0,-2.7813,-2.7716,0.0,-2.5646,-2.4429,0.0,0.0,-2.0979,-2.0298,-1.9805,-1.9157,-1.9085,-1.838,-1.6524,-1.6348,-1.642,-1.6687,-1.7428,-1.8343,-1.9438,-2.0747,-2.1987,-2.3057,-2.3101,-2.3101,-2.3101,-2.2324,-2.1894,-2.1894,-2.1055,-2.0605,-2.0605,-2.0605,-2.0605,-2.0605,-2.0605,-2.0605,-2.0605,-2.0605,-2.0605,-2.0605,-2.0605,-2.0605,-2.0605,-2.0605,-2.0605,-2.0605,-2.0605,-2.0605,-2.0605,-2.0605,-2.0605,-2.0605,-2.0605,-2.0605,-2.0605,-2.0605,-2.0605,-2.0605,-2.0605,-2.0605,-2.0605,-2.0605,-2.0605,-2.0605,-2.0605,-2.0605,-2.0605,-2.0605,-2.0605,-2.0586,-2.0546,-2.0527,-2.0273,-1.9434,-1.8926,-1.8598,-1.8598,-1.8247,-1.8008,-1.8008,-1.8008,-1.8008,-1.8008,-1.8008,-1.8008,-1.8008,-1.7969,-1.7949,-1.8008,-1.791,-1.7891,-1.793,-1.7539,-1.6946,-1.6105,-1.6046,-1.5831,-1.541,-1.541,-1.541,-1.541,-1.541,-1.541,-2.9804,-2.9804,-2.9804,-2.9804,-2.9804,-2.9804,-2.9804,-2.9858,-2.9731,-2.9199,0.0,0.0,0.0,0.0,0.0,0.0,-2.2409,-2.1521,-2.0552,-1.9901,-1.8937,-1.751,-1.7312,-1.7127,-1.6545,-1.7446,-1.8502,-1.9438,-2.0612,-2.1854,-2.3057,-2.3101,-2.3101,-2.3101,-2.2324,-2.1894,-2.1894,-2.1055,-2.0605,-2.0605,-2.0605,-2.0605,-2.0605,-2.0605,-2.0605,-2.0605,-2.0605,-2.0605,-2.0605,-2.0605,-2.0605,-2.0605,-2.0605,-2.0605,-2.0605,-2.0605,-2.0605,-2.0605,-2.0605,-2.0605,-2.0605,-2.0605,-2.0605,-2.0605,-2.0605,-2.0605,-2.0605,-2.0605,-2.0605,-2.0605,-2.0605,-2.0605,-2.0605,-2.0605,-2.0605,-2.0605,-2.0605,-2.0605,-2.0605,-2.0605,-2.0605,-2.0488,-2.0136,-1.9668,-1.9297,-1.9043,-1.8617,-1.8247,-1.8047,-1.8008,-1.8008,-1.8008,-1.8008,-1.8008,-1.8008,-1.8008,-1.8008,-1.8008,-1.8008,-1.8008,-1.8008,-1.7598,-1.7239,-1.6868,-1.6359,-1.6007,-1.5831,-1.5527,-1.541,-1.5381,-1.4923,-1.4688,-2.9804,-2.9804,-2.9804,-2.9804,-2.9804,-2.9804,-2.9804,-3.0305,-3.062,-2.9934,-2.9454,0.0,0.0,0.0,-2.6417,-2.5703,0.0,-2.3712,-2.2326,-2.1433,-2.0337,-1.8691,-1.8502,-1.8028,-1.6814,-1.7805,-1.8894,-1.9923,-2.0792,-2.1854,-2.3057,-2.3101,-2.3101,-2.3101,-2.2324,-2.1894,-2.1894,-2.1055,-2.0605,-2.0605,-2.0605,-2.0605,-2.0605,-2.0605,-2.0605,-2.0605,-2.0605,-2.0605,-2.0605,-2.0605,-2.0605,-2.0605,-2.0605,-2.0605,-2.0605,-2.0605,-2.0605,-2.0605,-2.0605,-2.0605,-2.0605,-2.0605,-2.0605,-2.0605,-2.0605,-2.0605,-2.0605,-2.0605,-2.0605,-2.0605,-2.0605,-2.0605,-2.0605,-2.0605,-2.0605,-2.0605,-2.0605,-2.0605,-2.0605,-2.0605,-2.0605,-2.0605,-2.0605,-2.0195,-1.9805,-1.9512,-1.8948,-1.85,-1.8188,-1.8086,-1.8008,-1.8008,-1.8008,-1.8008,-1.8008,-1.8008,-1.8008,-1.8008,-1.8008,-1.8008,-1.8008,-1.7715,-1.75,-1.7383,-1.6789,-1.6339,-1.6085,-1.5772,-1.541,-1.5059,-1.4481,-1.4213,-2.9804,-2.9804,-2.9804,-2.9804,-2.9804,-2.9804,-2.9804,-2.9818,-2.9818,-2.9804,-2.9779,-2.9754,-2.974,-2.9251,-2.862,-2.8092,-2.7538,0.0,0.0,-2.466,-2.3331,-1.9861,-1.9467,-1.8964,-1.7746,-1.875,-1.9951,-2.1168,-2.1302,-2.1854,-2.3057,-2.3101,-2.3101,-2.3101,-2.2324,-2.1894,-2.1894,-2.1055,-2.0605,-2.0605,-2.0605,-2.0605,-2.0605,-2.0605,-2.0605,-2.0605,-2.0605,-2.0605,-2.0605,-2.0605,-2.0605,-2.0605,-2.0605,-2.0605,-2.0605,-2.0605,-2.0605,-2.0605,-2.0605,-2.0605,-2.0605,-2.0605,-2.0605,-2.0605,-2.0605,-2.0605,-2.0605,-2.0605,-2.0605,-2.0605,-2.0605,-2.0605,-2.0605,-2.0605,-2.0605,-2.0605,-2.0605,-2.0605,-2.0605,-2.0605,-2.0605,-2.0605,-2.0605,-2.0195,-1.9902,-1.9902,-1.9143,-1.8598,-1.8578,-1.8227,-1.8008,-1.8008,-1.8008,-1.8008,-1.8008,-1.8008,-1.8008,-1.8008,-1.8008,-1.8008,-1.8008,-1.8008,-1.7793,-1.7416,-1.7363,-1.6946,-1.6085,-1.6085,-1.546,-1.4243,-1.4213,-1.4213,0.0,-2.9248,-2.9804,-2.9804,-2.9804,-2.9804,-2.9804,-3.0292,-3.057,-2.9934,-3.0266,-3.0533,-2.9895,-2.9628,-2.9438,-2.9238,-2.844,-2.7631,0.0,-2.5734,-2.3783,-2.1016,-1.9997,-1.936,-1.8948,-1.9268,-1.998,-2.1212,-2.1302,-2.1854,-2.3057,-2.3101,-2.3101,-2.3101,-2.2324,-2.1894,-2.1894,-2.1055,-2.0605,-2.0605,-2.0605,-2.0605,-2.0605,-2.0605,-2.0605,-2.0605,-2.0605,-2.0605,-2.0605,-2.0605,-2.0605,-2.0605,-2.0605,-2.0605,-2.0605,-2.0605,-2.0605,-2.0605,-2.0605,-2.0605,-2.0605,-2.0605,-2.0605,-2.0605,-2.0605,-2.0605,-2.0605,-2.0605,-2.0605,-2.0605,-2.0605,-2.0605,-2.0605,-2.0605,-2.0605,-2.0605,-2.0605,-2.0605,-2.0605,-2.0605,-2.0605,-2.0605,-2.0605,-2.0488,-2.0254,-1.9961,-1.9631,-1.9338,-1.9102,-1.8656,-1.8383,-1.8383,-1.8184,-1.8008,-1.8008,-1.8008,-1.8008,-1.8008,-1.8008,-1.8008,-1.8008,-1.8008,-1.7949,-1.7793,-1.7519,-1.7259,-1.6966,-1.6641,-1.627,-1.5837,-1.444,-1.3655,-2.8004,-2.8648,0.0,-2.9702,-2.9804,-2.9804,-2.9804,-3.0292,-3.0533,-2.9934,-3.0266,-3.0533,-2.9895,-2.9804,-2.9804,-2.9804,-2.9184,-2.8545,0.0,-2.6521,-2.4681,-2.2766,-2.1506,-2.0629,-2.0161,-2.0539,-2.1078,-2.1898,-2.1943,-2.2252,-2.3057,-2.3101,-2.3101,-2.3101,-2.2461,-2.2031,-2.1894,-2.1172,-2.0723,-2.0605,-2.0605,-2.0605,-2.0605,-2.0605,-2.0605,-2.0605,-2.0605,-2.0605,-2.0605,-2.0605,-2.0605,-2.0605,-2.0605,-2.0605,-2.0605,-2.0605,-2.0605,-2.0605,-2.0605,-2.0605,-2.0605,-2.0605,-2.0605,-2.0605,-2.0605,-2.0605,-2.0605,-2.0605,-2.0605,-2.0605,-2.0605,-2.0605,-2.0605,-2.0605,-2.0605,-2.0605,-2.0605,-2.0605,-2.0605,-2.0605,-2.0605,-2.0605,-2.0605,-2.0605,-2.0507,-2.0195,-2.0019,-1.9824,-1.9551,-1.9141,-1.8773,-1.8617,-1.8364,-1.8164,-1.8027,-1.8008,-1.8008,-1.8008,-1.8008,-1.8008,-1.8008,-1.8008,-1.8008,-1.8008,-1.7734,-1.7539,-1.7383,-1.7109,-1.6863,-1.6655,-1.5341,-1.4341]},{"header":{"parameterUnit":"m.s-1","parameterCategory":1,"la1":30.6,"la2":29.2853,"lo1":-89.7004,"lo2":-87.6739,"dy":0.0162,"dx":0.0183,"nx":112,"ny":82,"refTime":"2024-05-16T06:00:00:Z","depth":0,"parameterNumber":3,"parameterNumberName":"V-component_of_WINDS"},"data":[0.0,0.0,0.0,0.0,0.0,0.0,0.0,0.0,0.0,0.0,0.0,0.0,0.0,0.0,0.0,0.0,0.0,0.0,0.0,0.0,0.0,0.0,0.0,0.0,0.0,0.0,0.0,0.0,0.0,0.0,0.0,0.0,0.0,0.0,0.0,0.0,0.0,0.0,0.0,0.0,0.0,0.0,0.0,0.0,0.0,0.0,0.0,0.0,0.0,0.0,0.0,0.0,0.0,0.0,0.0,0.0,0.0,0.0,0.0,0.0,0.0,0.0,0.0,0.0,0.0,0.0,0.0,0.0,0.0,0.0,0.0,0.0,0.0,0.0,0.0,0.0,0.0,0.0,0.0,0.0,0.0,0.0,0.0,0.0,0.0,0.0,0.0,0.0,0.0,0.0,0.698,0.3336,0.1178,-0.0717,-0.2551,-0.2686,-0.397,-0.6902,0.0,0.0,0.0,0.0,0.0,0.0,0.0,0.0,0.0,0.0,0.0,0.0,0.0,0.0,0.0,0.0,0.0,0.0,0.0,0.0,0.0,0.0,0.0,0.0,0.0,0.0,0.0,0.0,0.0,0.0,0.0,0.0,0.0,0.0,0.0,0.0,0.0,0.0,0.0,0.0,0.0,0.0,0.0,0.0,0.0,0.0,0.0,0.0,0.0,0.0,0.0,0.0,0.0,0.0,0.0,0.0,0.0,0.0,0.0,0.0,0.0,0.0,0.0,0.0,0.0,0.0,0.0,0.0,0.0,0.0,0.0,0.0,0.0,0.0,0.0,0.0,0.0,0.0,0.0,0.0,0.0,0.0,0.0,0.0,0.0,0.0,0.0,0.0,0.0,0.0,0.0,0.0,0.0,0.0,0.0,0.0,0.0,0.0,0.0,0.0,0.0,0.0,0.0,0.0,0.7051,0.3456,0.1233,-0.0739,-0.2548,-0.2686,-0.397,-0.6902,0.0,0.0,0.0,0.0,0.0,0.0,0.0,0.0,0.0,0.0,0.0,0.0,0.0,0.0,0.0,0.0,0.0,0.0,0.0,0.0,0.0,0.0,0.0,0.0,0.0,0.0,0.0,0.0,0.0,0.0,0.0,0.0,0.0,0.0,0.0,0.0,0.0,0.0,0.0,0.0,0.0,0.0,0.0,0.0,0.0,0.0,0.0,0.0,0.0,0.0,0.0,0.0,0.0,0.0,0.0,0.0,0.0,0.0,0.0,0.0,0.0,0.0,0.0,0.0,0.0,0.0,0.0,0.0,0.0,0.0,0.0,0.0,0.0,0.0,0.0,0.0,0.0,0.0,0.0,0.0,0.0,0.0,0.0,0.0,0.0,0.0,0.0,0.0,0.0,0.0,0.0,0.0,0.0,0.0,0.0,0.0,0.0,0.0,0.0,0.0,0.0,0.0,0.0,0.6571,0.4693,0.3044,0.1163,-0.0523,-0.1847,-0.2394,-0.3744,-0.6186,-0.7739,0.0,0.0,0.0,0.0,0.0,0.0,0.0,0.0,0.0,0.0,0.0,0.0,0.0,0.0,0.0,0.0,0.0,0.0,0.0,0.0,0.0,0.0,0.0,0.0,0.0,0.0,0.0,0.0,0.0,0.0,0.0,0.0,0.0,0.0,0.0,0.0,0.0,0.0,0.0,0.0,0.0,0.0,0.0,0.0,0.0,0.0,0.0,0.0,0.0,0.0,0.0,0.0,0.0,0.0,0.0,0.0,0.0,0.0,0.0,0.0,0.0,0.0,0.0,0.0,0.0,0.0,0.0,0.0,0.0,0.0,0.0,0.0,0.0,0.0,0.0,0.0,0.0,0.0,0.0,0.0,0.0,0.0,0.0,0.0,0.0,0.0,0.0,0.0,0.0,0.0,0.0,0.0,0.0,0.0,0.0,0.0,0.0,0.0,0.0,0.0,0.0,0.0,0.5061,0.2733,0.2744,0.11,-0.0344,-0.1242,-0.2131,-0.3522,-0.5569,-0.7188,0.0,0.0,0.0,0.0,0.0,0.0,0.0,0.0,0.0,0.0,0.0,0.0,0.0,0.0,0.0,0.0,0.0,0.0,0.0,0.0,0.0,0.0,0.0,0.0,0.0,0.0,0.0,0.0,0.0,0.0,0.0,0.0,0.0,0.0,0.0,0.0,0.0,0.0,0.0,0.0,0.0,0.0,0.0,0.0,0.0,0.0,0.0,0.0,0.0,0.0,0.0,0.0,0.0,0.0,0.0,0.0,0.0,0.0,0.0,0.0,0.0,0.0,0.0,0.0,0.0,0.0,0.0,0.0,0.0,0.0,0.0,0.0,0.0,0.0,0.0,0.0,0.0,0.0,0.0,0.0,0.0,0.0,0.0,0.0,0.0,0.0,0.0,0.0,0.0,0.0,0.0,0.0,0.0,0.0,0.0,0.0,0.0,0.0,0.0,0.0,0.0,0.0,0.5096,0.2893,0.2889,0.1162,-0.0337,-0.124,-0.2063,-0.3421,-0.5562,-0.7094,0.0,0.0,0.0,0.0,0.0,0.0,0.0,0.0,0.0,0.0,0.0,0.0,0.0,0.0,0.0,0.0,0.0,0.0,0.0,0.0,0.0,0.0,0.0,0.0,0.0,0.0,0.0,0.0,0.0,0.0,0.0,0.0,0.0,0.0,0.0,0.0,0.0,0.0,0.0,0.0,0.0,0.0,0.0,0.0,0.0,0.0,0.0,0.0,0.0,0.0,0.0,0.0,0.0,0.0,0.0,0.0,0.0,0.0,0.0,0.0,0.0,0.0,0.0,0.0,0.0,0.0,0.0,0.0,0.0,0.0,0.0,0.0,0.0,0.0,0.0,0.0,0.0,0.0,0.0,0.0,0.0,0.0,0.0,0.0,0.0,0.0,0.0,0.0,0.0,0.0,0.0,0.0,0.0,0.0,0.0,0.0,0.0,0.0,0.0,0.0,0.0,0.0,0.5446,0.3364,0.2822,0.1585,0.047,-0.0403,-0.1263,-0.2638,-0.4767,0.0,0.0,0.0,0.0,0.0,0.0,0.0,0.0,0.0,0.0,0.0,0.0,0.0,0.0,0.0,0.0,0.0,0.0,0.0,0.0,0.0,0.0,0.0,0.0,0.0,0.0,0.0,0.0,0.0,0.0,0.0,0.0,0.0,0.0,0.0,0.0,0.0,0.0,0.0,0.0,0.0,0.0,0.0,0.0,0.0,0.0,0.0,0.0,0.0,0.0,0.0,0.0,0.0,0.0,0.0,0.0,0.0,0.0,0.0,0.0,0.0,0.0,0.0,0.0,0.0,0.0,0.0,0.0,0.0,0.0,0.0,0.0,0.0,0.0,0.0,0.0,0.0,0.0,0.0,0.0,0.0,0.0,0.0,0.0,0.0,0.0,0.0,0.0,0.0,0.0,0.0,0.0,0.0,0.0,0.0,0.0,0.0,0.0,0.0,0.0,0.0,0.0,0.7803,0.5592,0.368,0.2776,0.1874,0.094,0.0067,-0.076,-0.2046,-0.3923,0.0,0.0,0.0,0.0,0.0,0.0,0.0,0.0,0.0,0.0,0.0,0.0,0.0,0.0,0.0,0.0,0.0,0.0,0.0,0.0,0.0,0.0,0.0,0.0,0.0,0.0,0.0,0.0,0.0,0.0,0.0,0.0,0.0,0.0,0.0,0.0,0.0,0.0,0.0,0.0,0.0,0.0,0.0,0.0,0.0,0.0,0.0,0.0,0.0,0.0,0.0,0.0,0.0,0.0,0.0,0.0,0.0,0.0,0.0,0.0,0.0,0.0,0.0,0.0,0.0,0.0,0.0,0.0,0.0,0.0,0.0,0.0,0.0,0.0,0.0,0.0,0.0,0.0,0.0,0.0,0.0,0.0,0.0,0.0,0.0,0.0,0.0,0.0,0.0,0.0,0.0,0.0,0.0,0.0,0.0,0.0,0.0,0.0,0.0,0.0,0.0,0.0,0.7499,0.5463,0.368,0.2776,0.1874,0.0974,0.0067,-0.067,-0.1717,0.0,0.0,0.0,0.0,0.0,0.0,0.0,0.0,0.0,0.0,0.0,0.0,0.0,0.0,0.0,0.0,0.0,0.0,0.0,0.0,0.0,0.0,0.0,0.0,0.0,0.0,0.0,0.0,0.0,0.0,0.0,0.0,0.0,0.0,0.0,0.0,0.0,0.0,0.0,0.0,0.0,0.0,0.0,0.0,0.0,0.0,0.0,0.0,0.0,0.0,0.0,0.0,0.0,0.0,0.0,0.0,0.0,0.0,0.0,0.0,0.0,0.0,0.0,0.0,0.0,0.0,0.0,0.0,0.0,0.0,0.0,0.0,0.0,0.0,0.0,0.0,0.0,0.0,0.0,0.0,0.0,0.0,0.0,0.0,0.0,0.0,0.0,0.0,0.0,0.0,0.0,0.0,0.0,0.0,0.0,0.0,0.0,0.0,0.0,0.0,0.0,0.0,0.0,0.6773,0.5712,0.4384,0.288,0.2442,0.1663,0.0131,-0.0193,-0.0965,-0.2425,0.0,0.0,0.0,0.0,0.0,0.0,0.0,0.0,0.0,0.0,0.0,0.0,0.0,0.0,0.0,0.0,0.0,0.0,0.0,0.0,0.0,0.0,0.0,0.0,0.0,0.0,0.0,0.0,0.0,0.0,0.0,0.0,0.0,0.0,0.0,0.0,0.0,0.0,0.0,0.0,0.0,0.0,0.0,0.0,0.0,0.0,0.0,0.0,0.0,0.0,0.0,0.0,0.0,0.0,0.0,0.0,0.0,0.0,0.0,0.0,0.0,0.0,0.0,0.0,0.0,0.0,0.0,0.0,0.0,0.0,0.0,0.0,0.0,0.0,0.0,0.0,0.0,0.0,0.0,0.0,0.0,0.0,0.0,0.0,0.0,0.0,0.0,0.0,0.0,0.0,0.0,0.0,0.0,0.0,0.0,0.0,0.0,0.0,0.0,0.0,0.0,0.0,0.6296,0.5739,0.4836,0.3292,0.2861,0.2085,0.0571,0.0157,-0.0489,-0.1697,0.0,0.0,0.0,0.0,0.0,0.0,0.0,0.0,0.0,0.0,0.0,0.0,0.0,0.0,0.0,0.0,0.0,0.0,0.0,0.0,0.0,0.0,0.0,0.0,0.0,0.0,0.0,0.0,0.0,0.0,0.0,0.0,0.0,0.0,0.0,0.0,0.0,0.0,0.0,0.0,0.0,0.0,0.0,0.0,0.0,0.0,0.0,0.0,0.0,0.0,0.0,0.0,0.0,0.0,0.0,0.0,0.0,0.0,0.0,0.0,0.0,0.0,0.0,0.0,0.0,0.0,0.0,0.0,0.0,0.0,0.0,0.0,0.0,0.0,0.0,0.0,0.0,0.0,0.0,0.0,0.0,0.0,0.0,0.0,0.0,0.0,0.0,0.0,0.0,0.0,0.0,0.0,0.0,0.0,0.0,0.0,0.0,0.0,0.0,0.0,0.0,0.0,0.5878,0.5594,0.495,0.3903,0.313,0.2243,0.1198,0.0419,-0.0294,-0.0966,0.0,0.0,0.0,0.0,0.0,0.0,0.0,0.0,0.0,0.0,0.0,0.0,0.0,0.0,0.0,0.0,0.0,0.0,0.0,0.0,0.0,0.0,0.0,0.0,0.0,0.0,0.0,0.0,0.0,0.0,0.0,0.0,0.0,0.0,0.0,0.0,0.0,0.0,0.0,0.0,0.0,0.0,0.0,0.0,0.0,0.0,0.0,0.0,0.0,0.0,0.0,0.0,0.0,0.0,0.0,0.0,0.0,0.0,0.0,0.0,1.3433,1.2271,0.0,0.0,0.0,0.0,0.0,0.0,0.0,0.0,0.0,0.0,0.0,0.0,0.0,0.0,0.0,0.0,0.0,0.0,0.0,0.0,0.0,0.0,0.0,0.0,0.0,0.0,0.0,0.0,0.0,0.0,0.0,0.0,0.0,0.0,0.0,0.0,0.0,0.0,0.0,0.0,0.5071,0.5085,0.4772,0.3763,0.2977,0.2145,0.1189,0.0413,-0.0058,-0.0227,-0.1065,0.0,0.0,0.0,0.0,0.0,0.0,0.0,0.0,0.0,0.0,0.0,0.0,0.0,0.0,0.0,0.0,0.0,0.0,0.0,0.0,0.0,0.0,0.0,0.0,0.0,0.0,0.0,0.0,0.0,0.0,0.0,0.0,0.0,0.0,0.0,0.0,0.0,0.0,0.0,0.0,0.0,0.0,0.0,0.0,0.0,0.0,0.0,0.0,0.0,0.0,0.0,0.0,0.0,0.0,0.0,0.0,0.0,0.0,0.0,1.5782,1.4568,0.0,0.0,0.0,0.0,0.0,0.0,0.0,0.0,0.0,0.0,0.0,0.0,0.0,0.0,0.0,0.0,0.0,0.0,0.0,0.0,0.0,0.0,0.0,0.0,0.0,0.0,0.0,0.0,0.0,0.0,0.0,0.0,0.0,0.0,0.0,0.0,0.0,0.0,0.0,0.0,0.4817,0.5186,0.518,0.4219,0.3455,0.2639,0.1696,0.0946,0.0371,0.0028,-0.07,0.0,0.0,0.0,0.0,0.0,0.0,0.0,0.0,0.0,0.0,0.0,0.0,0.0,0.0,0.0,0.0,0.0,0.0,0.0,0.0,0.0,0.0,0.0,0.0,0.0,0.0,0.0,0.0,0.0,0.0,0.0,0.0,0.0,0.0,0.0,0.0,0.0,0.0,0.0,0.0,0.0,0.0,0.0,0.0,0.0,0.0,0.0,0.0,0.0,0.0,0.0,0.0,0.0,2.153,2.0887,2.0527,2.0527,2.0346,1.9912,1.8154,1.6914,1.615,1.6083,0.0,0.0,0.0,0.0,0.0,0.0,0.0,0.0,0.0,0.0,0.0,0.0,0.0,0.0,0.0,0.0,0.0,0.0,0.0,0.0,0.0,0.0,1.4139,1.2933,1.3407,1.3446,1.1088,0.0,0.0,0.0,0.0,0.0,0.0,0.0,0.0,0.0,0.0,0.0,0.5106,0.5571,0.5669,0.4919,0.4065,0.3247,0.2488,0.1618,0.0838,0.0224,-0.0504,-0.1285,0.0,0.0,0.0,0.0,0.0,0.0,0.0,0.0,0.0,0.0,0.0,0.0,0.0,0.0,0.0,0.0,0.0,0.0,0.0,0.0,0.0,0.0,0.0,0.0,0.0,0.0,0.0,0.0,0.0,0.0,0.0,0.0,2.3105,2.4448,0.0,0.0,0.0,0.0,0.0,0.0,0.0,0.0,0.0,0.0,0.0,0.0,0.0,2.4107,2.4191,2.4078,2.4002,2.4002,2.3393,2.3077,2.3011,2.3011,2.2989,2.2886,2.1753,0.0,1.7602,1.717,0.0,0.0,0.0,0.0,0.0,0.0,0.0,0.0,0.0,0.0,0.0,0.0,0.0,0.0,0.0,0.0,0.0,0.0,0.0,0.0,0.0,0.0,1.5196,1.4994,1.5071,1.4887,1.3844,1.2097,1.0449,0.965,0.8949,0.8201,0.0,0.0,0.0,0.0,0.0,0.0,0.6385,0.6032,0.5706,0.5432,0.4227,0.3388,0.3262,0.1924,0.1062,0.095,0.0252,-0.0755,-0.2147,-0.2172,0.0,0.0,0.0,0.0,0.0,0.0,0.0,0.0,0.0,0.0,0.0,0.0,0.0,0.0,0.0,0.0,0.0,0.0,0.0,0.0,0.0,0.0,0.0,0.0,0.0,0.0,0.0,0.0,0.0,2.5145,2.4966,2.5176,2.4554,2.4106,0.0,0.0,0.0,0.0,0.0,0.0,0.0,0.0,0.0,2.5233,2.5466,2.5845,2.6428,2.5883,2.5419,2.514,2.4317,2.3772,2.3526,2.3526,2.3526,2.3489,2.3025,2.2157,2.0905,1.9129,1.7968,1.735,0.0,0.0,0.0,0.0,1.5486,1.4848,1.4516,1.4018,1.3375,1.2693,0.0,0.0,0.0,0.0,0.0,0.0,0.0,1.4952,1.5323,1.541,1.541,1.541,1.541,1.5294,1.4952,1.4139,1.3119,1.185,1.0987,1.0236,0.9374,0.8558,0.0,0.0,0.0,0.7165,0.6652,0.6751,0.6524,0.5601,0.4937,0.425,0.3456,0.2369,0.1536,0.1118,0.042,-0.0476,-0.1536,-0.1515,-0.2356,0.0,0.0,0.0,0.0,0.0,0.0,0.0,0.0,0.0,0.0,0.0,0.0,0.0,0.0,0.0,0.0,0.0,0.0,0.0,0.0,0.0,0.0,0.0,0.0,0.0,0.0,0.0,0.0,2.6716,2.6662,2.6403,2.5977,2.567,0.0,0.0,0.0,0.0,0.0,0.0,2.593,2.593,2.6235,2.6951,2.7134,2.7544,2.8323,2.7544,2.6916,2.6408,2.547,2.4775,2.4289,2.4289,2.4289,2.4253,2.4,2.3891,2.3677,2.1213,1.9792,1.9138,1.87,1.7871,1.6945,1.7271,1.6921,1.6254,1.5904,1.5562,1.5081,1.4223,1.359,1.3124,1.2856,0.0,0.0,0.0,0.0,1.541,1.541,1.541,1.541,1.541,1.541,1.541,1.541,1.541,1.4963,1.3463,1.2704,1.2041,1.1165,1.009,0.0,0.8355,0.8249,0.7984,0.7262,0.7477,0.7289,0.6172,0.5728,0.5074,0.403,0.3063,0.2258,0.1732,0.081,-0.0056,-0.0781,-0.1006,-0.1699,-0.2994,0.0,0.0,0.0,0.0,0.0,0.0,0.0,0.0,0.0,0.0,0.0,0.0,0.0,0.0,0.0,0.0,0.0,0.0,0.0,0.0,0.0,0.0,0.0,0.0,0.0,0.0,0.0,0.0,0.0,2.9397,2.8154,0.0,0.0,0.0,0.0,2.79,2.79,2.7925,2.795,2.795,2.7987,2.8024,2.8525,2.88,2.8838,2.88,2.8525,2.7974,2.7412,2.6887,2.6336,2.6336,2.6336,2.6302,2.5335,2.4921,2.4826,2.3345,2.1909,2.0646,2.0162,1.9632,1.8994,1.7849,1.7845,1.8289,1.7078,1.6383,1.6024,1.5974,1.5381,1.4701,1.4682,1.471,0.0,0.0,1.5069,1.541,1.541,1.541,1.541,1.541,1.541,1.541,1.541,1.541,1.5032,1.3812,1.3532,1.3039,1.1533,0.0,1.0814,0.9825,0.9677,0.9458,0.8778,0.8103,0.7664,0.7584,0.6335,0.5456,0.5401,0.414,0.3317,0.3289,0.1868,0.0726,-0.0028,-0.0726,-0.1451,-0.223,-0.2286,0.0,0.0,0.0,0.0,0.0,0.0,0.0,0.0,0.0,0.0,0.0,0.0,0.0,0.0,0.0,0.0,0.0,0.0,0.0,0.0,0.0,0.0,0.0,0.0,0.0,0.0,0.0,0.0,3.1436,3.104,0.0,2.9928,2.9684,2.9299,2.8661,2.8587,2.88,2.9176,2.9202,2.9202,2.9202,2.9377,2.9478,2.9478,2.9478,2.9026,2.8097,2.7921,2.7344,2.6499,2.6499,2.6499,2.6499,2.6129,2.599,2.5906,2.4998,2.3431,2.152,2.1105,2.0588,2.0085,1.9641,1.9619,1.9822,1.9382,1.8676,1.7837,1.6717,1.5836,1.5195,1.5195,1.5195,1.5195,1.5195,1.5293,1.541,1.541,1.541,1.541,1.541,1.541,1.541,1.541,1.541,1.5206,1.4525,1.4136,1.3513,1.2299,1.1826,1.1345,1.0566,1.009,0.9718,0.9484,0.8844,0.8235,0.7756,0.7235,0.6524,0.5592,0.4601,0.3859,0.3428,0.2397,0.1478,0.0726,0.0447,-0.0028,-0.0783,-0.1257,-0.1573,0.0,0.0,0.0,0.0,0.0,0.0,0.0,0.0,0.0,0.0,0.0,0.0,0.0,0.0,0.0,0.0,0.0,0.0,0.0,0.0,0.0,0.0,0.0,0.0,0.0,3.1441,3.1901,3.2522,3.2593,3.2206,3.1245,3.0857,3.0383,2.9741,2.9391,2.9377,2.9779,2.9804,2.9804,2.9804,2.9804,2.9804,2.9804,2.9804,2.9227,2.8097,2.8097,2.7519,2.6499,2.6499,2.6499,2.6499,2.6499,2.6499,2.6474,2.6072,2.471,2.2851,2.2131,2.1619,2.1234,2.0786,2.0782,2.096,2.0304,1.9672,1.8866,1.7377,1.6539,1.6112,1.5874,1.5787,1.5729,1.5468,1.541,1.541,1.541,1.541,1.541,1.541,1.541,1.541,1.541,1.541,1.5293,1.4891,1.4434,1.3845,1.2961,1.2475,1.1931,1.1241,1.0762,1.0381,1.0167,0.9562,0.8949,0.8461,0.7984,0.7316,0.6325,0.5339,0.4573,0.414,0.3174,0.2369,0.1868,0.1369,0.0866,0.0392,-0.0112,-0.0302,-0.0159,0.0,0.0,0.0,0.0,0.0,0.0,0.0,0.0,0.0,0.0,0.0,0.0,0.0,0.0,0.0,0.0,0.0,0.0,0.0,0.0,0.0,0.0,0.0,3.2581,3.2629,3.2664,3.2664,3.27,3.2664,3.2629,3.1829,3.1278,3.1241,3.0381,2.9895,2.9895,2.9895,2.9856,2.9818,2.9856,2.9856,2.9804,2.9818,2.9265,2.8097,2.8097,2.7519,2.6499,2.6499,2.6499,2.6499,2.6499,2.6499,2.6499,2.6474,2.5812,2.4686,2.3289,2.2726,2.2535,2.1188,2.1195,2.1673,1.9832,1.9194,1.8984,1.7969,1.7633,1.7468,1.6765,1.651,1.6397,1.5671,1.5468,1.5468,1.5468,1.5468,1.5468,1.5468,1.5439,1.5439,1.5468,1.5439,1.5322,1.4967,1.4488,1.403,1.3574,1.3164,1.2676,1.1938,1.1814,0.0,1.0914,1.0244,0.9821,0.9821,0.858,0.7744,0.7691,0.6389,0.5565,0.5538,0.425,0.3456,0.3345,0.1952,0.1174,0.1146,0.1146,0.1209,0.1322,0.0,0.0,0.0,0.0,0.0,0.0,0.0,0.0,0.0,0.0,0.0,0.0,0.0,0.0,0.0,0.0,0.0,0.0,0.0,0.0,0.0,3.4035,3.4272,3.3711,3.3636,3.3905,3.4639,3.4706,3.4409,3.3671,3.3394,3.2947,3.2272,3.1974,3.1829,3.1829,3.1829,3.1499,3.0846,3.1489,3.1156,2.9804,3.0495,2.9902,2.8097,2.8097,2.7519,2.6499,2.6499,2.6499,2.6499,2.6499,2.6499,2.6474,2.6047,2.5661,2.5302,2.4524,2.3733,2.293,2.2567,2.2555,2.2633,2.1741,2.0822,1.993,1.9272,1.8396,1.755,1.7357,1.7302,1.7246,1.7052,1.6996,1.6996,1.6996,1.6996,1.6996,1.6996,1.6595,1.634,1.6884,1.6595,1.6327,1.674,1.618,1.516,1.3753,1.3418,1.3173,1.2665,1.2129,1.174,1.1541,1.0939,1.0346,0.9858,0.9444,0.8791,0.7771,0.7343,0.6875,0.6335,0.5928,0.5238,0.4128,0.3715,0.2998,0.1924,0.1896,0.1915,0.0,0.0,0.0,0.0,0.0,0.0,0.0,0.0,0.0,0.0,0.0,0.0,0.0,0.0,0.0,0.0,0.0,0.0,0.0,0.0,0.0,0.0,3.507,3.5294,3.4739,3.461,3.4839,3.5424,3.5519,3.5294,3.4706,3.4245,3.3774,3.3227,3.2806,3.2593,3.2593,3.2593,3.2343,3.1829,3.2307,3.2083,3.0996,3.1499,3.1055,2.9643,2.9371,2.8769,2.7945,2.7299,2.6994,2.696,2.6645,2.6499,2.6474,2.6122,2.5812,2.5511,0.0,0.0,0.0,0.0,2.3095,2.2995,2.2246,2.1489,2.073,1.9946,1.9164,1.8474,1.8151,1.807,1.8015,1.7688,1.7605,1.7605,1.7605,1.7605,1.7605,1.7605,1.7274,1.7079,1.7495,1.7093,1.677,1.7184,1.664,0.0,1.447,1.3895,1.3466,1.2959,1.2535,1.227,1.227,1.1641,1.1065,1.0686,1.0141,0.947,0.8633,0.8037,0.0,0.0,0.0,0.6081,0.4907,0.4559,0.0,0.0,0.0,0.0,0.0,0.0,0.0,0.0,0.0,-0.0591,0.0,0.0,0.0,0.0,0.0,0.0,0.0,0.0,0.0,0.0,0.0,0.0,0.0,0.0,0.0,0.0,3.526,3.5587,3.5489,3.5519,3.5519,3.5519,3.5519,3.5519,3.5519,3.4677,3.4177,3.4177,3.3394,3.2912,3.2912,3.2912,0.0,0.0,0.0,3.2806,3.2593,3.27,3.243,3.1785,3.1191,3.0582,2.9951,2.8583,2.7921,2.7802,2.7095,2.6714,2.6645,2.6748,2.64,2.5681,2.457,2.4016,2.3828,2.3417,2.3185,2.297,2.202,0.0,0.0,2.0313,1.9911,1.9657,1.9006,1.8821,1.8688,1.8043,1.7852,1.7852,1.7852,1.7852,1.7852,1.7852,1.7797,1.772,1.7757,1.7314,1.6924,1.6957,1.6525,1.598,1.5506,1.456,1.3686,1.3089,1.2944,1.2915,1.2915,1.232,1.1888,1.1814,0.0,0.0,0.9806,0.8672,0.7904,0.7824,0.7128,0.6433,0.5774,0.505,0.4648,0.4648,0.3914,0.3898,0.4601,0.3815,0.3428,0.3428,0.2591,0.184,0.0,0.0,0.0,0.0,0.0,0.0,0.0,0.0,0.0,0.0,0.0,0.0,0.0,0.0,0.0,3.6291,3.6292,3.6165,3.5587,3.5519,3.5519,3.5519,3.5519,3.5519,3.5519,3.5326,3.5198,3.5198,3.5034,3.4935,3.4935,3.4935,3.4543,3.3739,3.4509,3.4206,3.2593,3.3359,3.3083,3.1813,3.1674,0.0,2.9984,2.9678,2.9278,2.8748,2.8588,2.8103,2.7504,2.8233,2.7868,2.6749,2.5414,2.4227,2.3336,2.3865,2.3662,2.307,2.2869,2.2246,2.1443,2.1242,2.0539,1.9785,1.9631,1.9579,0.0,1.9423,1.9371,1.9371,1.9371,1.9371,1.9371,1.9371,1.8927,1.8516,1.8678,1.8178,1.7735,1.7898,1.7479,1.6923,1.6291,1.5134,1.4115,1.3689,1.3214,1.2915,1.2915,1.2774,1.2461,1.1864,1.1566,1.099,0.9884,0.9562,0.9171,0.8619,0.7889,0.7423,0.7278,0.6578,0.6172,0.6172,0.5456,0.5156,0.53,0.4622,0.4263,0.4236,0.2841,0.2119,0.0,0.0,0.0,0.0,0.0,0.0,0.0,0.0,0.0,0.0,0.0,3.7972,3.8354,0.0,3.8786,3.8364,3.7989,3.7617,3.725,3.6536,3.5911,3.5522,3.5519,3.5519,3.5519,3.5519,3.5519,3.5519,3.5519,3.5519,3.5519,3.5519,3.5294,3.4773,3.5231,3.5034,3.4041,3.4509,3.4397,3.3648,3.3301,3.2667,3.1743,3.0927,3.0255,2.9628,2.9192,2.8748,2.8363,2.8812,2.8284,2.7179,2.6846,2.5695,2.4281,2.4709,2.4381,2.3717,2.3373,2.2688,2.1911,2.1605,2.1117,2.0639,2.0639,2.0464,2.0264,2.0264,2.0037,1.9811,1.9811,1.9811,1.9811,1.9811,1.9527,1.9198,1.9033,1.8487,1.7995,1.7833,1.7325,1.6835,1.65,1.566,1.485,1.435,1.3742,1.3358,1.3358,1.3089,1.2774,1.2393,1.203,1.1541,1.0864,1.0192,0.9666,0.9316,0.8633,0.8235,0.8235,0.753,0.7155,0.7155,0.6416,0.6064,0.6064,0.5719,0.5555,0.5527,0.4772,0.3831,0.0,0.0,0.0,0.0,0.0,0.0,0.0,3.8444,3.8667,3.9408,3.9567,3.9729,4.0342,4.044,4.041,4.0261,3.9718,3.9242,3.8934,3.7829,3.6785,3.6037,3.5683,3.5519,3.5519,3.5519,3.5519,3.5519,3.5519,3.5519,3.5519,3.5519,3.5519,3.5519,3.5519,3.5519,3.5519,3.5519,3.5519,3.5489,3.4951,3.4262,3.3454,3.2216,3.1237,3.048,2.9628,2.9348,2.9473,2.9317,2.8622,2.7736,2.834,2.7453,2.5796,2.5687,2.5189,2.453,2.3985,2.3363,2.275,2.2258,2.2016,2.1911,2.1746,2.1413,2.1032,2.077,2.0365,1.9936,1.9836,1.9811,1.9811,1.9811,1.9811,1.9635,1.8983,1.853,1.8003,1.735,1.6848,1.65,1.65,1.6107,1.5577,1.4971,1.4352,1.3933,1.3815,1.3382,1.3041,1.2895,1.2369,1.1963,1.1814,1.0686,0.9987,0.9987,0.9484,0.9133,0.9015,0.8408,0.8037,0.7916,0.7182,0.6804,0.6804,0.6669,0.6588,0.6588,0.6588,0.5601,3.9817,3.9249,3.8863,3.9662,3.9289,3.916,0.0,4.0834,4.1036,4.1769,4.1937,4.1937,4.2038,4.2038,4.1848,4.1172,4.0992,4.0467,3.9119,3.875,3.8376,3.7623,3.6352,3.5519,3.5519,3.5519,3.5519,3.5519,3.5519,3.5519,3.5519,3.5519,3.5519,3.5519,3.5519,3.5519,3.5519,3.5519,3.5519,3.5519,3.5429,3.4741,3.3484,3.3303,3.2586,3.1307,3.051,3.0539,3.1161,3.045,2.9842,2.9347,2.9429,2.8568,2.728,2.6602,2.5903,2.5273,2.5218,2.4778,2.4228,2.4202,2.3818,2.3329,2.2671,2.2431,2.2139,2.1032,2.0641,2.049,1.9936,1.9811,1.9811,1.9811,1.9811,1.9535,1.8505,1.8254,1.7903,1.6801,1.655,1.65,1.65,1.6457,1.6194,1.5599,1.4994,1.4399,1.3862,1.3721,1.3481,1.2944,1.2822,1.251,1.1864,1.1116,1.0686,1.0686,1.061,1.032,0.9718,0.9614,0.9276,0.8699,0.7969,0.7584,0.7584,0.6912,0.6588,0.6588,0.6588,0.6118,4.1082,4.058,4.0143,4.0504,4.0061,3.9789,4.0408,4.0561,4.0865,4.2049,4.2286,4.2557,4.3498,4.3667,4.3523,4.3244,4.2786,4.2139,4.1034,4.0118,3.9312,3.8539,3.7469,3.6662,3.6196,3.6134,3.5943,3.5522,3.5519,3.5519,3.5519,3.5519,3.5519,3.5519,3.5519,3.5519,3.5519,3.5519,3.5519,3.5519,3.51,3.4412,3.3484,3.3095,3.2378,3.1482,3.1161,3.119,3.1452,3.0717,3.0093,2.9562,2.9175,2.8453,2.756,2.7255,2.6681,2.611,2.6034,2.5616,2.5083,2.5049,2.4859,2.4638,2.4341,2.3987,2.3526,2.2617,2.2138,2.1662,2.0653,2.0371,2.027,1.9914,1.9811,1.951,1.843,1.8204,1.7877,1.6726,1.65,1.65,1.65,1.65,1.6414,1.6173,1.5622,1.5129,1.4881,1.456,1.4073,1.3481,1.3409,1.3146,1.2491,1.1783,1.1391,1.1391,1.1015,1.0661,1.0381,1.0397,1.0064,0.938,0.9093,0.8725,0.8342,0.8023,0.7889,0.7889,0.7889,0.7477,4.181,4.1473,4.1093,4.0932,4.0625,4.0337,4.0375,4.0417,4.0756,4.2016,4.2455,4.2929,4.4045,4.4479,4.453,4.4298,4.3771,4.3037,4.2064,4.1017,4.0045,3.9309,3.8778,3.8104,3.7291,3.6843,3.6384,3.5846,3.5619,3.5519,3.5519,3.5519,3.5519,3.5519,3.5519,3.5519,3.5519,3.5519,3.5519,3.5489,3.4801,3.4174,3.3455,3.2617,3.1959,3.1511,3.1511,3.1511,3.1481,3.0972,3.0313,2.9562,2.9056,2.8364,2.7585,2.7585,2.7285,2.6882,2.6821,2.6494,2.6068,2.6032,2.5986,2.5959,2.5769,2.5406,2.4876,2.4081,2.3421,2.2685,2.1617,2.1198,2.0917,2.0446,2.032,2.0062,1.9156,1.8949,1.8541,1.7255,1.7003,1.6888,1.6568,1.65,1.65,1.65,1.6129,1.5798,1.5622,1.5085,1.4537,1.4097,1.405,1.3862,1.343,1.2764,1.2355,1.2355,1.174,1.1291,1.1091,1.1091,1.0762,1.009,1.009,0.9832,0.9354,0.9354,0.9354,0.9354,0.9354,0.8961,4.181,4.1789,4.1639,4.1059,4.0897,4.094,4.1121,4.117,4.1373,4.2117,4.2861,4.3375,4.3409,4.4079,4.4327,4.3472,4.332,4.2762,4.1251,4.0992,4.0751,4.0121,4.0028,3.9714,3.8908,3.7467,3.6569,3.6569,3.5879,3.5519,3.5519,3.5519,3.5519,3.5519,3.5519,3.5519,3.5519,3.5519,3.5519,3.5489,3.4801,3.4174,3.3455,3.2138,3.154,3.1511,3.1511,3.1511,3.1511,3.1481,3.0731,2.9621,2.9592,2.8753,2.7585,2.7585,2.7585,2.7555,2.756,2.756,2.756,2.7534,2.7534,2.7408,2.668,2.6443,2.6165,2.4851,2.4029,2.3423,2.2812,2.2152,2.1687,2.1663,2.1639,2.1498,2.0937,2.0826,2.0333,1.8585,1.8238,1.7864,1.6705,1.65,1.65,1.65,1.6479,1.6259,1.5688,1.5085,1.4698,1.4675,1.4675,1.4675,1.4652,1.4097,1.3745,1.3745,1.3166,1.2535,1.1789,1.1765,1.1466,1.0788,1.0762,1.0762,1.0737,1.0737,1.0737,1.0737,1.0737,1.0397,4.294,4.2657,4.2342,4.216,4.1473,4.0919,4.0982,4.0719,4.0663,4.1407,4.1779,4.2252,4.3206,4.3639,4.3894,4.4112,4.415,4.3815,4.2747,4.2585,4.2158,4.0975,4.0832,4.0552,3.9781,3.8745,3.7901,3.7411,3.6661,3.6228,3.6228,3.575,3.5519,3.5519,3.5519,3.5519,3.5519,3.5519,3.5519,3.5489,3.4352,3.3245,3.2138,3.172,3.1511,3.1511,3.1511,3.1511,3.1481,3.1002,3.0582,3.0103,2.9265,2.8637,2.8188,2.7764,2.7585,2.7585,2.7585,2.7585,2.7585,2.7585,2.7585,2.7534,2.7306,2.7229,2.703,2.6151,2.5433,2.467,2.3622,2.2875,2.2253,2.1805,2.171,2.1545,2.101,2.0545,1.9948,1.9022,1.8467,1.8038,1.7625,1.7578,1.7456,1.7063,1.6731,1.6436,1.6216,1.602,1.5732,1.5354,1.531,1.5152,1.4721,1.4514,1.4399,1.4399,1.3836,1.3386,1.313,1.2735,1.2197,1.1491,1.1466,1.1241,1.0788,1.0788,1.0788,1.0788,1.0788,1.0686,4.3515,4.325,4.2957,4.2732,4.2139,4.1407,4.0978,4.0648,4.0455,4.0747,4.1035,4.1508,4.2455,4.2828,4.3185,4.3675,4.3719,4.3551,4.302,4.2953,4.2629,4.1719,4.1576,4.1407,4.0925,4.0172,3.9286,3.8278,3.7721,3.7184,3.6631,3.6134,3.5782,3.5519,3.5519,3.5651,3.5879,3.5651,3.528,3.4771,3.3903,3.2796,3.1511,3.1511,3.1511,3.1511,3.1511,3.1361,3.1092,3.0702,3.0223,2.9744,2.8936,2.8457,2.8188,2.7764,2.7585,2.7585,2.7585,2.7585,2.7585,2.7585,2.7585,2.7585,2.7585,2.7585,2.7495,2.7076,2.6303,2.5401,2.4582,2.3704,2.292,2.2478,2.2386,2.2272,2.1924,2.1547,2.0912,1.9942,1.9401,1.8879,1.8214,1.8092,1.7973,1.7659,1.7291,1.6942,1.6565,1.65,1.6346,1.5952,1.5908,1.5754,1.5377,1.5152,1.5017,1.5017,1.4468,1.412,1.412,1.3742,1.3338,1.2846,1.2604,1.2288,1.187,1.1658,1.1559,1.1559,1.1559,1.1409,4.3515,4.3515,4.3356,4.2846,4.2713,4.2382,4.1206,4.0909,4.0733,4.0204,4.0663,4.117,4.1204,4.1813,4.2307,4.2311,4.2327,4.2327,4.236,4.236,4.2323,4.2341,4.2354,4.232,4.2286,4.1677,4.0613,3.9148,3.8951,3.8257,3.6783,3.6661,3.6322,3.5651,3.5619,3.5943,3.663,3.5975,3.4926,3.3544,3.3576,3.2856,3.154,3.1539,3.1539,3.1511,3.1539,3.115,3.0552,3.0552,2.9834,2.8757,2.8667,2.8248,2.7675,2.7615,2.7585,2.7585,2.7585,2.7585,2.7585,2.7585,2.7585,2.7585,2.7585,2.7585,2.7585,2.7585,2.6632,2.5615,2.5615,2.4597,2.361,2.361,2.361,2.361,2.361,2.358,2.3063,2.1341,2.0926,2.03,1.8492,1.8171,1.8171,1.8151,1.8131,1.7733,1.6667,1.6543,1.6543,1.65,1.65,1.65,1.65,1.5974,1.5666,1.5666,1.5085,1.4744,1.4744,1.4721,1.4698,1.4698,1.4143,1.3839,1.3839,1.3262,1.2992,1.2992,1.2992,1.2589,4.3515,4.3515,4.348,4.3321,4.3013,4.2518,4.1746,4.1206,4.0733,4.0204,4.0248,4.0527,4.1102,4.1813,4.2672,4.3822,4.3967,4.4169,4.474,4.4337,4.3783,4.3206,4.3132,4.2895,4.2354,4.2117,4.1632,4.0673,3.9538,3.8748,3.8325,3.779,3.7413,3.7205,3.7205,3.7294,3.7469,3.7324,3.6228,3.4264,3.4333,3.3632,3.2258,3.2292,3.2023,3.1539,3.2076,3.1901,3.1241,3.1241,3.1062,3.0673,2.9714,2.9262,2.8963,2.7974,2.7585,2.7585,2.7585,2.7585,2.7585,2.7585,2.7585,2.7585,2.7585,2.7585,2.7585,2.7585,2.6632,2.5615,2.5615,2.4597,2.361,2.361,2.361,2.361,2.361,2.3251,2.2781,2.2328,2.1426,2.0448,1.9461,1.9295,1.9155,1.876,1.8703,1.8308,1.7229,1.7084,1.6942,1.6543,1.65,1.65,1.65,1.6346,1.6259,1.6259,1.571,1.5377,1.5377,1.4949,1.4698,1.4698,1.4537,1.4468,1.4468,1.4306,1.4258,1.4258,1.4258,1.3909,4.2753,4.2958,4.316,4.316,4.2902,4.2557,4.1937,4.1318,4.0733,4.0204,4.0113,4.0248,4.0629,4.1305,4.2185,4.3396,4.3842,4.435,4.5094,4.4857,4.4418,4.3978,4.3944,4.3741,4.3335,4.2719,4.2117,4.1711,4.0567,3.9594,3.8941,3.8497,3.8133,3.7822,3.7793,3.7793,3.7793,3.8104,3.7179,3.4972,3.5072,3.4359,3.2936,3.3018,3.2652,3.2023,3.241,3.2005,3.1062,3.1062,3.0913,3.0612,2.9864,2.9415,2.9056,2.8334,2.7854,2.7585,2.7585,2.7585,2.7585,2.7585,2.7585,2.7585,2.7585,2.7585,2.7585,2.7585,2.6866,2.5974,2.5674,2.4814,2.3947,2.367,2.361,2.361,2.361,2.331,2.3032,2.2763,2.1605,2.0569,2.0198,1.9899,1.9617,1.9314,1.9258,1.8949,1.8112,1.7794,1.7558,1.7229,1.7005,1.6858,1.6858,1.6625,1.65,1.65,1.6194,1.5974,1.5974,1.5666,1.5488,1.5488,1.5242,1.5107,1.5107,1.4835,1.4698,1.4698,1.4698,1.4514,4.1788,4.2077,4.2462,4.2541,4.2577,4.2422,4.1832,4.1273,4.0733,4.0204,4.0113,4.0113,4.0113,4.0696,4.1474,4.232,4.2997,4.3741,4.4621,4.4682,4.4615,4.4615,4.4615,4.4615,4.4615,4.3227,4.2286,4.2286,4.1542,4.0471,3.9129,3.9043,3.8745,3.8137,3.8108,3.808,3.7966,3.869,3.794,3.5755,3.5808,3.505,3.3671,3.3704,3.3313,3.2629,3.2788,3.2013,3.0642,3.0835,3.0561,3.0024,2.9984,2.9595,2.9004,2.8988,2.8458,2.776,2.7806,2.775,2.7585,2.7585,2.7585,2.7585,2.7585,2.766,2.771,2.771,2.7229,2.6567,2.5882,2.5152,2.4425,2.3759,2.361,2.361,2.361,2.3644,2.3528,2.2896,2.1902,2.1095,2.0914,2.0364,1.9906,1.9797,1.9744,1.9515,1.9062,1.8521,1.8171,1.8112,1.7673,1.7415,1.7415,1.6985,1.671,1.671,1.671,1.6667,1.6629,1.6629,1.6586,1.65,1.5974,1.5732,1.5732,1.5197,1.4926,1.4926,1.4926,1.4903,4.1684,4.1313,4.113,4.1796,4.1958,4.181,4.1183,4.099,4.0733,4.0204,4.0113,4.0113,4.0113,4.0696,4.1644,4.2997,4.3308,4.3882,4.5331,4.4959,4.4615,4.4615,4.4615,4.4615,4.4615,4.3227,4.2286,4.2286,4.106,4.0164,3.9901,3.9901,3.985,3.9722,3.9722,3.9368,3.8718,3.9506,3.8765,3.6508,3.6566,3.5825,3.4436,3.4421,3.3777,3.2683,3.3744,3.314,3.1416,3.2569,3.2667,3.2091,3.2075,3.1663,3.1067,3.1085,2.9962,2.8531,2.9051,2.8534,2.7585,2.7585,2.7585,2.7585,2.7585,2.7959,2.8343,2.8343,2.7874,2.7188,2.6509,2.5484,2.4425,2.3759,2.361,2.361,2.361,2.3964,2.4081,2.3403,2.345,2.3211,2.2067,2.1471,2.0959,2.0302,1.9909,1.9672,1.9551,1.908,1.8607,1.8151,1.8013,1.7953,1.7953,1.7874,1.7814,1.7814,1.7814,1.7639,1.7167,1.7146,1.6964,1.6522,1.6414,1.6324,1.6324,1.6238,1.6173,1.6173,1.6173,1.5908,4.0047,3.9863,3.9738,4.056,4.077,4.077,4.0886,4.0662,4.0417,4.0129,4.0113,4.0113,4.0113,4.0696,4.1576,4.2658,4.2828,4.3369,4.4891,4.4451,4.4113,4.4547,4.4615,4.4445,4.4012,4.2963,4.2117,4.1745,4.0722,4.0113,4.0113,4.0113,4.0113,4.0113,4.0113,3.9927,3.9532,3.9901,3.9139,3.7259,3.7334,3.658,3.5117,3.5148,3.4568,3.37,3.4317,3.3846,3.2652,3.3339,3.3417,3.3098,3.3112,3.2711,3.2076,3.1694,3.0703,2.9564,2.9533,2.9069,2.8528,2.8528,2.8319,2.8082,2.8082,2.8487,2.895,2.895,2.8752,2.8334,2.7652,2.6773,2.5762,2.4805,2.4057,2.361,2.361,2.4027,2.4317,2.3976,2.3759,2.3426,2.2753,2.1848,2.1125,2.0713,2.0296,2.0002,2.0002,1.9594,1.924,1.8968,1.8684,1.8502,1.8502,1.8249,1.8092,1.8092,1.8092,1.7973,1.7713,1.7713,1.7619,1.7353,1.7333,1.7188,1.6921,1.6921,1.6774,1.65,1.65,1.6324,3.8388,3.8351,3.8346,3.9168,3.9487,3.9775,4.0329,4.026,4.0113,4.0113,4.0113,4.0113,4.0113,4.0561,4.1271,4.2151,4.2286,4.2855,4.4378,4.4045,4.391,4.4513,4.4445,4.4079,4.3443,4.2591,4.1813,4.1238,4.0493,4.0113,4.0113,4.0113,4.0113,4.0113,4.0113,4.0113,4.0113,4.0113,3.9429,3.8037,3.7959,3.7196,3.5827,3.5675,3.5214,3.4616,3.4759,3.4374,3.3624,3.3928,3.3953,3.3853,3.3978,3.3501,3.2749,3.2287,3.1449,3.0436,2.9981,2.9647,2.9406,2.9406,2.9065,2.8701,2.8701,2.9111,2.9585,2.9585,2.9585,2.9446,2.8769,2.7954,2.6946,2.5571,2.4499,2.373,2.3631,2.4101,2.4572,2.4572,2.4193,2.3837,2.3658,2.2522,2.1569,2.1392,2.0859,2.04,2.0299,2.0019,1.9815,1.9708,1.9332,1.9062,1.9062,1.8703,1.8424,1.8424,1.8424,1.8386,1.8269,1.8269,1.821,1.8092,1.8092,1.7874,1.7476,1.7476,1.725,1.6837,1.6837,1.6837,3.7685,3.725,3.6993,3.779,3.8497,3.9016,3.9096,3.9603,4.0113,4.0113,4.0113,4.0113,4.0113,4.018,4.0654,4.2049,4.2286,4.2855,4.4378,4.4547,4.4513,4.4615,4.3944,4.3477,4.3409,4.2151,4.1271,4.1204,4.0493,4.0113,4.0113,4.0113,4.0113,4.0113,4.0113,4.0113,4.0113,4.0113,3.969,3.8873,3.8237,3.7493,3.6669,3.5915,3.5214,3.464,3.5214,3.4793,0.0,3.4911,3.5052,3.4592,3.5168,3.4595,3.3482,3.4019,3.2617,3.0477,3.1023,3.0412,2.9406,2.9406,2.9361,2.9316,2.9316,2.9739,3.0225,3.0225,3.0225,3.0049,2.9366,2.8277,2.6818,2.4957,2.44,2.4184,2.3687,2.441,2.5125,2.5125,2.5793,2.6169,2.5495,2.4397,2.3375,2.2635,2.1617,2.078,2.0333,2.0278,2.0106,1.9744,1.9672,1.9636,1.9636,1.957,1.9533,1.9533,1.9533,1.9332,1.8855,1.8836,1.8607,1.8112,1.8092,1.8072,1.8013,1.8013,1.7993,1.7933,1.7933,1.7933,3.7309,3.673,3.6224,3.7404,3.7577,3.7642,3.8133,3.8827,3.9368,3.9368,3.974,4.0113,4.0113,4.0113,4.0451,4.1474,4.1271,4.167,4.3606,4.3504,4.3369,4.3809,4.3578,4.3037,4.2185,4.1542,4.1035,4.0561,4.0282,4.0113,4.0113,4.0113,4.0113,4.0113,4.0113,4.0113,4.0113,3.9673,3.9073,3.8328,3.7584,3.684,3.6062,3.5735,3.5453,3.5224,3.5476,3.5293,0.0,3.5362,3.543,3.5247,3.5509,3.5262,3.4711,3.4081,3.3146,3.2122,3.1512,3.0949,3.0477,3.0477,3.0477,3.0414,3.0043,3.0372,3.0838,3.0838,3.0838,3.0791,3.0509,2.9165,2.7427,2.5766,2.4871,2.443,2.4552,2.491,2.5297,2.5598,2.5862,2.5947,2.5626,2.4839,2.4005,2.3252,2.2482,2.1809,2.1166,2.0862,2.0665,2.0499,2.0015,1.9708,1.9708,1.9708,1.9708,1.9708,1.9708,1.9617,1.9387,1.9387,1.9295,1.9062,1.9062,1.8893,1.8588,1.8588,1.8405,1.8092,1.8092,1.8092,3.6596,3.6178,3.5739,3.6714,3.6785,3.6752,3.7293,3.8019,3.8635,3.8854,3.9342,3.9825,4.0062,4.0113,4.035,4.1068,4.0933,4.1373,4.3139,4.3166,4.3166,4.3707,4.3369,4.2692,4.1644,4.1136,4.0663,4.0146,4.0113,4.0113,4.0113,4.0113,4.0113,4.0113,4.0113,4.0011,3.9774,3.9242,3.8633,3.7889,3.7168,3.6502,3.596,3.5701,3.56,3.56,3.56,3.56,0.0,3.56,3.56,3.56,3.56,3.5464,3.5115,3.3863,3.3254,3.2882,3.163,3.119,3.119,3.119,3.119,3.1131,3.0716,3.0858,3.119,3.119,3.119,3.1157,3.092,2.9811,2.8353,2.6726,2.5753,2.5203,2.5195,2.5316,2.5542,2.5924,2.5949,2.5947,2.5947,2.5304,2.4575,2.3831,2.342,2.2937,2.2055,2.1694,2.1472,2.1343,2.0573,2.0032,1.9892,1.978,1.9708,1.9708,1.9708,1.9708,1.9708,1.9708,1.9708,1.9708,1.9708,1.9497,1.9136,1.9136,1.8949,1.8588,1.8588,1.8482,3.5519,3.5519,3.5519,3.5519,3.607,3.66,3.66,3.7233,3.8019,3.8745,3.8908,3.9183,3.9952,4.0113,4.035,4.1068,4.1813,4.2523,4.3274,4.4079,4.4581,4.4581,4.3261,4.2286,4.2286,4.0993,4.0113,4.0113,4.0113,4.0113,4.0113,4.0113,4.0113,4.0113,4.0113,3.9774,3.9005,3.9005,3.8633,3.7889,3.7168,3.6795,3.6761,3.596,3.56,3.56,3.56,3.56,0.0,3.56,3.56,3.56,3.56,3.5126,3.4404,3.366,3.2949,3.2192,3.1481,3.119,3.119,3.119,3.119,3.119,3.119,3.119,3.119,3.119,3.119,3.1021,3.0311,3.0089,2.957,2.7561,2.7067,2.6738,2.5477,2.5631,2.5979,2.5997,2.6367,2.6708,2.6708,2.6082,2.5338,2.4609,2.4474,2.4065,2.2844,2.2682,2.2539,2.2132,2.1439,2.0797,2.0316,1.9927,1.9708,1.9708,1.9708,1.9708,1.9708,1.9708,1.9708,1.9708,1.9708,1.9708,1.969,1.969,1.969,1.969,1.969,1.9406,3.6058,3.5848,3.5609,3.6058,3.6014,3.5846,3.5846,3.6446,3.7054,3.7261,3.8157,3.8962,3.9236,3.9714,4.035,4.1068,4.1407,4.1982,4.3206,4.32,4.3058,4.3058,4.1704,4.079,4.079,4.0383,4.0113,4.0113,4.0113,4.0113,4.0113,4.0113,4.0113,4.0113,3.9605,3.9242,3.9005,3.8014,3.7405,3.7144,3.6366,3.5994,3.5994,3.5701,3.56,3.56,3.56,3.56,3.56,3.56,3.56,3.56,3.56,3.5464,3.5115,3.3863,3.3254,3.2882,3.163,3.119,3.119,3.119,3.119,3.119,3.119,3.119,3.119,3.119,3.119,3.1021,3.0311,3.0108,2.98,2.8658,2.811,2.767,2.709,2.6866,2.6715,2.6485,2.6607,2.6691,2.6691,2.6488,2.5913,2.4677,2.4948,2.475,2.3347,2.3615,2.3871,2.3761,2.2781,2.165,2.0412,2.0193,1.9984,1.9726,1.9708,1.9708,1.9708,1.9708,1.9708,1.9708,1.9708,1.9708,1.9708,1.9708,1.9708,1.9708,1.9708,1.9617,3.5998,3.5818,3.5674,3.636,3.6214,3.5911,3.5911,3.629,3.66,3.66,3.7584,3.858,3.8854,3.9558,4.0248,4.0696,4.1238,4.1948,4.2861,4.2828,4.2523,4.1948,4.1068,4.0417,4.0146,4.0113,4.0113,4.0113,4.0113,4.0113,4.0113,4.0113,4.0113,4.0113,3.9377,3.887,3.8599,3.7405,3.666,3.6332,3.5836,3.56,3.56,3.56,3.56,3.56,3.56,3.56,0.0,3.56,3.56,3.56,3.56,3.56,3.543,3.4269,3.3829,3.3592,3.2138,3.1616,3.1582,3.1292,3.119,3.119,3.119,3.119,3.119,3.119,3.119,3.1089,3.0649,3.0514,3.0345,2.96,2.9158,2.8705,2.7973,2.7577,2.7217,2.6776,2.6691,2.6691,2.6691,2.6691,2.6285,2.5117,2.5541,2.5575,2.4391,2.4628,2.4914,2.4914,2.3737,2.2486,2.1293,2.0808,2.0381,1.9962,1.9927,1.9856,1.9708,1.9708,1.9708,1.9708,1.9708,1.9749,1.9927,2.012,2.0102,1.9945,2.012,2.0102,0.0,3.5519,3.5683,3.6353,3.6538,3.66,3.66,3.663,0.0,3.6691,3.7322,3.8108,3.8838,3.9592,4.0146,4.0248,4.1433,4.2286,4.2286,4.2861,4.2726,4.1305,4.1136,4.0832,4.018,4.0113,4.0113,4.0113,4.0113,4.0113,4.0113,4.0113,4.0079,4.0011,3.9309,3.8599,3.7922,3.711,3.6332,3.56,3.56,3.56,3.56,3.56,3.56,3.56,3.56,3.56,3.56,3.56,3.56,3.56,3.56,3.5566,3.543,3.4675,3.437,3.4134,3.2733,3.2226,3.2124,3.1427,3.119,3.119,3.119,3.119,3.119,3.119,3.119,3.119,3.119,3.119,3.1021,3.0345,3.0176,2.9751,2.8297,2.7959,2.7722,2.6928,2.6759,2.6759,2.6691,2.6691,2.6454,2.571,2.6218,2.642,2.571,2.5642,2.5676,2.5676,2.4425,2.3377,2.2875,2.1713,2.0845,2.0366,2.0333,2.0176,1.978,1.9749,1.9797,1.9744,1.9797,1.998,2.0333,2.0797,2.078,2.035,2.0797,2.078,3.5651,0.0,3.5522,3.5718,3.6196,3.66,0.0,3.7054,3.7531,3.7531,3.8133,3.8881,3.9666,3.9986,4.0485,4.1576,4.2049,4.2286,4.2286,4.1948,4.1373,4.0485,4.0383,4.0282,4.0113,4.0113,4.0113,4.0113,4.0113,4.0113,4.0113,4.0113,3.9842,3.9276,3.8531,3.8091,3.7922,3.6569,3.5769,3.56,3.56,3.56,3.56,3.56,3.56,3.56,3.56,3.56,3.56,3.56,3.56,3.56,3.56,3.5284,3.4675,3.3931,3.3288,3.2699,3.1765,3.1481,3.1427,3.1258,3.119,3.119,3.119,3.119,3.119,3.119,3.119,3.119,3.119,3.119,3.1157,3.0987,3.0954,3.0683,2.9751,2.9548,2.9142,2.779,2.7553,2.735,2.6793,2.6691,2.6454,2.571,2.6218,2.642,2.571,2.6082,2.6454,2.6454,2.5642,2.4799,2.4148,2.2478,2.1275,2.0862,2.0845,2.0632,2.0176,2.0499,2.0532,2.0176,2.0515,2.0747,2.0845,2.0943,2.0943,2.0845,2.0943,2.0943,3.6662,3.625,3.6135,3.6876,3.7342,3.7706,3.8123,3.8245,3.8189,3.7879,3.8386,3.904,3.9462,3.9852,4.0485,4.161,4.1779,4.1779,4.1779,4.1441,4.0933,4.018,4.0113,4.0113,4.0113,4.0113,4.0113,4.0113,4.0113,4.0113,4.0113,4.0113,3.991,3.9537,3.8464,3.7753,3.7381,3.6174,3.56,3.56,3.56,3.56,3.56,3.56,3.56,3.56,3.56,3.56,3.56,3.56,3.56,3.56,3.56,3.5148,3.4438,3.4066,3.3423,3.2679,3.1935,3.1481,3.119,3.119,3.119,3.119,3.119,3.119,3.119,3.119,3.119,3.119,3.119,3.119,3.119,3.119,3.119,3.0987,3.0277,3.0108,2.9649,2.8094,2.779,2.7553,2.6826,2.6691,2.6556,2.615,2.6454,2.6556,2.615,2.6454,2.6691,2.6691,2.6048,2.5439,2.5033,2.3432,2.2114,2.1339,2.1275,2.1086,2.0649,2.0862,2.0878,2.0632,2.1055,2.1181,2.0991,2.1416,2.1493,2.1275,2.1508,2.1493,3.7851,3.7405,3.7296,3.8451,3.887,3.9137,3.9785,3.9478,3.8908,3.8274,3.8635,3.9102,3.9235,3.9804,4.0493,4.1238,4.1271,4.1238,4.1339,4.117,4.0798,4.018,4.0113,4.0113,4.0113,4.0113,4.0113,4.0113,4.0113,4.0113,4.0113,4.0113,4.0045,3.9943,3.8734,3.7652,3.6829,3.5994,3.56,3.56,3.56,3.56,3.56,3.56,3.56,3.56,3.56,0.0,3.56,3.56,3.56,3.56,3.56,3.5148,3.4472,3.437,3.3863,3.3119,3.2395,3.1718,3.119,3.119,3.119,3.119,3.119,3.119,3.119,3.119,3.119,3.119,3.119,3.119,3.119,3.119,3.119,3.1021,3.0412,3.0277,2.9803,2.8263,2.7993,2.7689,2.686,2.6691,2.6691,2.6691,2.6691,2.6691,2.6691,2.6691,2.6691,2.6691,2.615,2.5728,2.5592,2.4458,2.3242,2.2114,2.1819,2.1536,2.1197,2.1118,2.1118,2.1214,2.1521,2.1521,2.1181,2.193,2.2089,2.1735,2.2089,2.2075,3.7994,3.8571,3.915,3.8211,3.8951,3.9752,3.921,3.952,3.9876,3.9773,3.985,4.0104,4.0744,4.0957,4.1271,4.2016,4.161,4.1407,4.2049,4.106,4.0248,4.0113,4.0113,4.0113,4.0113,4.0113,4.0113,4.0113,4.0113,4.0113,4.0113,4.0113,3.9808,3.9174,3.8937,3.8159,3.6829,3.5994,3.56,3.56,3.56,3.56,3.56,3.56,3.56,3.56,0.0,3.56,3.56,3.56,3.56,3.56,3.56,3.5148,3.4404,3.3795,3.3085,3.2361,3.1596,3.1292,3.119,3.119,3.119,3.119,3.119,3.119,3.119,3.119,3.119,3.119,3.119,3.119,3.119,3.119,3.119,3.1157,3.1055,3.1021,3.0581,2.9093,2.884,2.8367,2.6928,2.6691,2.6691,2.6691,2.6691,2.6691,2.6691,2.6691,2.6691,2.6691,2.659,2.6285,2.5626,2.539,2.4916,2.4111,2.2883,2.2166,2.2109,2.172,2.1705,2.2109,2.2166,2.2166,2.2109,2.2223,2.2251,2.2194,2.2251,2.2251,3.9129,3.9814,4.0441,3.9781,4.0446,4.1158,4.0815,4.0699,4.0561,4.018,4.0113,4.0214,4.0527,4.0933,4.157,4.2663,4.2244,4.1876,4.2218,4.0984,4.0113,4.0113,4.0113,4.0113,4.0113,4.0113,4.0113,4.0113,4.0113,4.0113,4.0113,4.0113,3.9943,3.9605,3.9208,3.8464,3.7381,3.6637,3.6028,3.56,3.56,3.56,3.56,3.56,3.56,3.56,0.0,3.56,3.56,3.56,3.56,3.56,3.56,3.5148,3.4336,3.322,3.2598,3.2192,3.1481,3.119,3.119,3.119,3.119,3.119,3.119,3.119,3.119,3.119,3.119,3.119,3.119,3.119,3.119,3.119,3.119,3.119,3.119,3.119,3.0751,2.9281,2.901,2.8502,2.6979,2.6691,2.6691,2.6691,2.6691,2.6691,2.6691,2.6691,2.6691,2.6691,2.6691,2.6556,2.6218,2.5845,2.5135,2.4,2.3274,2.2733,2.2313,2.2075,2.2075,2.2313,2.2313,2.2313,2.2313,2.2313,2.2313,2.2313,2.2313,2.2313,4.0113,4.0629,4.1204,4.1204,4.1586,4.2009,4.2247,4.1745,4.1035,4.046,4.0383,4.0316,4.0146,4.0824,4.1818,4.3089,4.268,4.2253,4.2178,4.0979,4.0113,4.0113,4.0113,4.0113,4.0113,4.0113,4.0113,4.0113,4.0113,4.0113,4.0113,4.0113,4.0113,4.0113,3.9571,3.8802,3.7922,3.7347,3.6569,3.56,3.56,3.56,3.56,3.56,3.56,3.56,3.56,3.56,3.56,3.56,3.56,3.56,3.56,3.5148,3.4336,3.3241,3.2598,3.2226,3.1833,3.1495,3.1224,3.1393,3.1326,3.119,3.119,3.119,3.119,3.119,3.119,3.119,3.119,3.119,3.119,3.119,3.119,3.119,3.119,3.119,3.0818,2.9517,2.9111,2.857,2.7199,2.6793,2.6691,2.6691,2.6691,2.6691,2.6691,2.6691,2.6691,2.6691,2.6691,2.6691,2.6691,2.6184,2.5304,2.3985,2.3579,2.3071,2.2313,2.2313,2.2313,2.2313,2.2313,2.2313,2.2313,2.2313,2.2313,2.2313,2.2313,2.2313,4.0113,4.0629,4.1204,4.1204,4.1219,4.143,4.2151,4.1745,4.117,4.1136,4.1136,4.0899,4.0248,4.1165,4.2279,4.3089,4.258,4.2106,4.2109,4.0954,4.0113,4.0113,4.0113,4.0113,4.0113,4.0113,4.0113,4.0113,4.0113,4.0113,4.0113,4.0113,4.0113,4.0113,4.0045,3.9334,3.7922,3.7855,3.7053,3.56,3.56,3.56,3.56,3.56,3.56,3.56,3.56,3.56,3.56,3.56,3.56,3.56,3.56,3.5148,3.4472,3.437,3.3478,3.2395,3.3017,3.2341,3.1292,3.1989,3.1752,3.119,3.119,3.119,3.119,3.119,3.119,3.119,3.119,3.119,3.119,3.119,3.119,3.119,3.119,3.119,3.0954,3.0176,2.9465,2.8739,2.7858,2.7165,2.6691,2.6691,2.6691,2.6691,2.6691,2.6691,2.6691,2.6691,2.6691,2.6691,2.6691,2.6657,2.6285,2.5507,2.4154,2.3071,2.2313,2.2313,2.2313,2.2313,2.2313,2.2313,2.2313,2.2313,2.2313,2.2313,2.2313,2.2313,4.0113,4.0316,4.0629,4.1102,4.0865,4.0832,4.2016,4.2083,4.188,4.188,4.1508,4.1231,4.1327,4.1767,4.2614,4.4072,4.3341,4.2622,4.2668,4.1476,4.0456,4.0129,4.0113,4.0113,4.0113,4.0113,4.0113,4.0113,4.0113,4.0113,4.0113,4.0113,4.0113,4.0113,3.9673,3.8937,3.7922,3.7449,3.6671,3.56,3.56,3.56,3.56,3.56,3.56,3.56,3.56,3.56,3.56,3.56,3.56,3.56,3.56,3.543,3.5148,3.4675,3.3863,3.3017,3.3322,3.2713,3.2022,3.2747,3.2496,3.1887,3.1887,3.1562,3.119,3.119,3.119,3.119,3.119,3.119,3.119,3.119,3.119,3.119,3.119,3.119,3.0987,3.0243,2.9871,2.9296,2.8027,2.7553,2.7232,2.6759,2.6691,2.6691,2.6691,2.6691,2.6691,2.6691,2.6691,2.6691,2.6691,2.6691,2.6387,2.5626,2.4661,2.3763,2.3004,2.255,2.2313,2.2313,2.2313,2.2313,2.2313,2.2313,2.2313,2.2313,2.2313,2.2313,4.0113,4.0113,4.0214,4.073,4.0603,4.0753,4.2279,4.262,4.2688,4.2927,4.2329,4.1881,4.2311,4.2333,4.2714,4.4068,4.3489,4.2782,4.2654,4.1646,4.0685,4.0154,4.0113,4.0113,4.0113,4.0113,4.0113,4.0113,4.0113,4.0113,4.0113,4.0113,4.0113,4.0113,3.9377,3.8633,3.7922,3.7168,3.64,3.56,3.56,3.56,3.56,3.56,3.56,3.56,3.56,3.56,3.56,3.56,3.56,3.56,3.56,3.56,3.5532,3.5047,3.437,3.3795,3.4032,3.3457,3.2767,3.3491,3.3254,3.2598,3.2361,3.1955,3.1515,3.1258,3.119,3.119,3.119,3.119,3.119,3.119,3.119,3.119,3.119,3.119,3.1055,3.0548,3.0277,2.9702,2.8398,2.7959,2.7553,2.6793,2.6691,2.6691,2.6691,2.6691,2.6691,2.6691,2.6691,2.6691,2.6691,2.6691,2.6488,2.5981,2.527,2.4406,2.3444,2.2699,2.2313,2.2313,2.2313,2.2313,2.2313,2.2313,2.2313,2.2313,2.2313,2.2313,4.0113,4.0113,4.0113,4.0113,4.0538,4.1359,4.2909,4.3315,4.3499,4.4227,4.3652,4.3009,4.3009,4.2823,4.2693,4.2693,4.2693,4.2498,4.1895,4.1273,4.0685,4.0154,4.0113,4.0113,4.0113,4.0113,4.0113,4.0113,4.0113,4.0113,4.0113,4.0113,4.0113,4.0079,3.9368,3.8633,3.7922,3.7144,3.6366,3.56,3.56,3.56,3.56,3.56,3.56,3.56,3.56,3.56,3.56,3.56,3.56,3.56,3.56,3.56,3.56,3.56,3.5148,3.4607,3.5329,3.4619,3.3525,3.4269,3.3998,3.3288,3.253,3.2327,3.2158,3.1427,3.119,3.119,3.119,3.119,3.119,3.119,3.119,3.119,3.119,3.119,3.119,3.119,3.0615,2.9871,2.9145,2.8349,2.7553,2.6826,2.6691,2.6691,2.6691,2.6691,2.6691,2.6691,2.6691,2.6691,2.6691,2.6691,2.6691,2.6691,2.6015,2.4932,2.3477,2.2699,2.2313,2.2313,2.2313,2.2313,2.2313,2.2313,2.2313,2.2313,2.2313,2.2313,4.0113,4.0368,4.0638,4.0638,4.1533,4.2511,4.2924,4.3452,4.3909,4.4155,4.3963,4.3571,4.29,4.274,4.2808,4.3196,4.2957,4.2498,4.1895,4.1273,4.0685,4.0154,4.0113,4.0113,4.0113,4.0113,4.0113,4.0113,4.0113,4.0113,4.0113,4.0113,3.9876,3.9343,3.8599,3.7855,3.7134,3.6366,3.5836,3.56,3.56,3.56,3.56,3.56,3.56,3.56,3.56,3.56,3.56,3.56,3.56,3.56,3.56,3.56,3.56,3.56,3.5148,3.4607,3.5329,3.4979,3.4303,3.5047,3.4776,3.4134,3.3897,3.3139,3.2259,3.2056,3.1616,3.119,3.119,3.119,3.119,3.119,3.119,3.119,3.119,3.119,3.119,3.119,3.1021,3.0649,2.9905,2.9161,2.8383,2.7587,2.7029,2.6691,2.6691,2.6691,2.6691,2.6691,2.6691,2.6691,2.6691,2.6691,2.6691,2.6691,2.6015,2.5169,2.4203,2.3477,2.2835,2.2313,2.2313,2.2313,2.2313,2.2313,2.2313,2.2313,2.2313,2.2313,4.0417,4.0827,4.1321,4.1658,4.2546,4.3477,4.3986,4.4291,4.4507,4.4776,4.4566,4.4165,4.3593,4.325,4.3124,4.3463,4.3232,4.2715,4.1916,4.1508,4.0967,4.0179,4.0113,4.0113,4.0113,4.0113,4.0113,4.0113,4.0113,4.0113,4.0113,4.0113,3.9774,3.9005,3.8294,3.755,3.6795,3.5994,3.56,3.56,3.56,3.56,3.56,3.56,3.56,3.56,3.56,3.56,3.56,3.56,3.56,3.56,3.56,3.56,3.56,3.56,3.5295,3.5013,3.543,3.5318,3.5013,3.5464,3.5295,3.4878,3.4573,3.366,3.2699,3.2395,3.1785,3.119,3.119,3.119,3.119,3.119,3.119,3.119,3.119,3.119,3.119,3.119,3.119,3.0954,3.0243,2.9736,2.9161,2.8383,2.7638,2.7029,2.6725,2.6691,2.6691,2.6691,2.6691,2.6691,2.6691,2.6691,2.6691,2.6691,2.6285,2.571,2.4966,2.4237,2.3477,2.2767,2.2733,2.2584,2.2313,2.2313,2.2313,2.2313,2.2313,2.2313,4.0955,4.1477,4.2179,4.2896,4.353,4.428,4.5498,4.5309,4.5059,4.5645,4.5223,4.4654,4.4599,4.3975,4.3515,4.3515,4.3463,4.3051,4.1958,4.1768,4.1308,4.0229,4.0113,4.0113,4.0113,4.0113,4.0113,4.0113,4.0113,4.0113,4.0113,4.0045,3.9673,3.8903,3.8193,3.7449,3.6694,3.596,3.56,3.56,3.56,3.56,3.56,3.56,3.56,3.56,3.56,3.56,3.56,3.56,3.56,3.56,3.56,3.56,3.56,3.56,3.56,3.56,3.56,3.56,3.56,3.56,3.56,3.5464,3.481,3.4032,3.3254,3.2598,3.1819,3.119,3.119,3.119,3.119,3.119,3.119,3.119,3.119,3.119,3.119,3.119,3.119,3.0987,3.0311,3.0142,2.9837,2.9111,2.8315,2.7553,2.6894,2.6725,2.6691,2.6691,2.6691,2.6691,2.6691,2.6691,2.6691,2.6691,2.6691,2.6387,2.5744,2.4966,2.4237,2.341,2.341,2.3038,2.2313,2.2313,2.2313,2.2313,2.2313,2.2313,4.1617,4.2525,4.3492,4.3672,4.4118,4.462,4.4893,4.4363,4.4034,4.4783,4.4819,4.4525,4.3864,4.3608,4.3515,4.3515,4.316,4.2635,4.1895,4.1385,4.085,4.0179,4.0113,4.0113,4.0113,4.0113,4.0113,4.0113,4.0113,4.0113,4.0113,3.9571,3.8903,3.8159,3.7415,3.6637,3.5893,3.5667,3.56,3.56,3.56,3.56,3.56,3.56,3.56,3.56,3.56,3.56,3.56,3.56,3.56,3.56,3.56,3.56,3.56,3.56,3.56,3.56,3.56,3.56,3.56,3.56,3.56,3.5566,3.5397,3.4416,3.3389,3.322,3.2205,3.119,3.119,3.119,3.119,3.119,3.119,3.119,3.119,3.119,3.119,3.119,3.119,3.1157,3.0987,3.048,2.9837,2.9111,2.8315,2.7756,2.7587,2.7063,2.6691,2.6691,2.6691,2.6691,2.6691,2.6691,2.6691,2.6691,2.6691,2.6623,2.6454,2.5744,2.4729,2.3444,2.341,2.3038,2.2313,2.2313,2.2313,2.2313,2.2313,2.2313,4.2241,4.2963,4.3797,4.4197,4.4492,4.4691,4.4691,4.4085,4.3608,4.4048,4.4121,4.4011,4.3588,4.3515,4.3515,4.3515,4.3268,4.2884,4.2322,4.1725,4.1127,4.0552,4.0254,4.0113,4.0113,4.0113,4.0113,4.0113,4.0113,4.0113,4.0113,3.9377,3.8667,3.7922,3.7178,3.64,3.56,3.56,3.56,3.56,3.56,3.56,3.56,3.56,3.56,3.56,3.56,3.56,3.56,3.56,3.56,3.56,3.56,3.56,3.56,3.56,3.56,3.56,3.56,3.56,3.56,3.56,3.56,3.56,3.56,3.4551,3.3423,3.3423,3.2341,3.119,3.119,3.119,3.119,3.119,3.119,3.119,3.119,3.119,3.119,3.119,3.119,3.119,3.119,3.0886,3.0378,2.9634,2.9194,2.8635,2.7891,2.7452,2.7097,2.6725,2.6691,2.6691,2.6691,2.6691,2.6691,2.6691,2.6691,2.6691,2.6691,2.6319,2.5439,2.3966,2.3932,2.3376,2.2313,2.2313,2.2313,2.2313,2.2313,2.2313,4.2808,4.3269,4.3864,4.4525,4.4691,4.4672,4.4525,4.3975,4.3515,4.3515,4.3515,4.3515,4.3515,4.3515,4.3515,4.3515,4.3515,4.3303,4.277,4.2282,4.1703,4.0978,4.0504,4.0204,4.0113,4.0113,4.0113,4.0113,4.0113,4.0113,4.0113,3.9276,3.8531,3.7922,3.7043,3.6265,3.56,3.56,3.56,3.56,3.56,3.56,3.56,3.56,3.56,3.56,3.56,3.56,3.56,3.56,3.56,3.56,3.56,3.56,3.56,3.56,3.56,3.56,3.56,3.56,3.56,3.56,3.56,3.56,3.56,3.4551,3.3423,3.3423,3.2341,3.119,3.119,3.119,3.119,3.119,3.119,3.119,3.119,3.119,3.119,3.119,3.119,3.119,3.119,3.119,3.0987,3.0378,3.0176,2.9582,2.8196,2.7891,2.7519,2.6759,2.6691,2.6691,2.6691,2.6691,2.6691,2.6691,2.6691,2.6691,2.6691,2.6691,2.6065,2.4711,2.4541,2.3763,2.2313,2.2313,2.2313,2.2313,2.2313,2.2313,4.3268,4.3959,4.4562,4.4654,4.4691,4.4525,4.3828,4.3588,4.3515,4.3515,4.3515,4.3515,4.3515,4.3515,4.3515,4.3515,4.3515,4.3303,4.277,4.2635,4.218,4.1024,4.085,4.0625,4.0163,4.0113,4.0113,4.0113,4.0113,4.0113,4.0113,3.8802,3.8024,3.7922,3.6512,3.5701,3.56,3.56,3.56,3.56,3.56,3.56,3.56,3.56,3.56,3.56,3.56,3.56,3.56,3.56,3.56,3.56,3.56,3.56,3.56,3.56,3.56,3.56,3.56,3.56,3.56,3.56,3.56,3.56,3.56,3.4551,3.3423,3.3423,3.2341,3.119,3.119,3.119,3.119,3.119,3.119,3.119,3.119,3.119,3.119,3.119,3.119,3.119,3.119,3.119,3.1157,3.1055,3.0514,2.9803,2.8942,2.8229,2.7519,2.6759,2.6691,2.6691,2.6691,2.6691,2.6691,2.6691,2.6691,2.6691,2.6691,2.6691,2.6319,2.5473,2.4846,2.3763,2.2313,2.2313,2.2313,2.2313,2.2313,2.2313,4.3339,4.3754,4.4011,4.4011,4.4011,4.3938,4.3588,4.3515,4.3515,4.3515,4.3515,4.3515,4.3515,4.3515,4.3515,4.3515,4.3515,4.3428,4.3178,4.2865,4.2482,4.1958,4.1617,4.1196,4.0601,4.0552,4.0441,4.0138,4.0113,3.991,3.9537,3.8464,3.7719,3.728,3.6197,3.56,3.56,3.56,3.56,3.56,3.56,3.56,3.56,3.56,3.56,3.56,3.56,3.56,3.56,3.56,3.56,3.56,3.56,3.56,3.56,3.56,3.56,3.56,3.56,3.56,3.56,3.56,3.56,3.5532,3.5115,3.4235,3.3322,3.2882,3.2002,3.119,3.119,3.119,3.119,3.119,3.119,3.119,3.119,3.119,3.119,3.119,3.119,3.119,3.119,3.119,3.119,3.119,3.092,3.0446,2.9702,2.8958,2.818,2.7384,2.6962,2.6691,2.6691,2.6691,2.6691,2.6691,2.6691,2.6691,2.6691,2.6691,2.6353,2.5592,2.527,2.4391,2.2936,2.2936,2.2699,2.2313,2.2313,2.2313,4.3123,4.341,4.3515,4.3515,4.3515,4.3515,4.3515,4.3515,4.3515,4.3515,4.3515,4.3515,4.3515,4.3515,4.3515,4.3515,4.3515,4.3515,4.3515,4.316,4.2827,4.2713,4.2302,4.1746,4.0955,4.092,4.0696,4.0129,4.0113,3.9774,3.9039,3.8294,3.755,3.6829,3.6028,3.56,3.56,3.56,3.56,3.56,3.56,3.56,3.56,3.56,3.56,3.56,3.56,3.56,3.56,3.56,3.56,3.56,3.56,3.56,3.56,3.56,3.56,3.56,3.56,3.56,3.56,3.56,3.5464,3.5194,3.4675,3.3863,3.3017,3.2462,3.1785,3.1224,3.1427,3.1481,3.1549,3.1698,3.1765,3.1664,3.1292,3.119,3.119,3.119,3.119,3.119,3.119,3.119,3.119,3.119,3.119,3.092,3.0209,2.96,2.889,2.7925,2.7317,2.6894,2.6725,2.6691,2.6691,2.6691,2.6691,2.6691,2.6691,2.6691,2.6454,2.5879,2.5879,2.5135,2.3695,2.3477,2.3105,2.2598,2.2381,2.2313,4.2524,4.3124,4.3515,4.3515,4.3515,4.3515,4.3515,4.3515,4.3515,4.3515,4.3515,4.3515,4.3515,4.3515,4.3515,4.3515,4.3515,4.3515,4.3515,4.348,4.3268,4.2751,4.2655,4.22,4.1001,4.092,4.0696,4.0129,4.0113,3.9774,3.9039,3.8294,3.755,3.6829,3.6028,3.56,3.56,3.56,3.56,3.56,3.56,3.56,3.56,3.56,3.56,3.56,3.56,3.56,3.56,3.56,3.56,3.56,3.56,3.56,3.56,3.56,3.56,3.56,3.56,3.56,3.56,3.56,3.5148,3.4539,3.4506,3.3512,3.2361,3.2327,3.1785,3.136,3.2056,3.2226,3.2429,3.3119,3.3288,3.2916,3.1495,3.119,3.119,3.119,3.119,3.119,3.119,3.119,3.119,3.119,3.119,3.092,3.0209,3.0074,2.9447,2.7959,2.7756,2.7452,2.6759,2.6691,2.6691,2.6691,2.6691,2.6691,2.6691,2.6691,2.6657,2.6623,2.6623,2.5929,2.444,2.3748,2.3376,2.3342,2.2632,2.2313,4.0578,4.1801,4.2868,4.2359,4.2866,4.3515,4.3515,4.3515,4.3515,4.3515,4.3515,4.3515,4.3515,4.3515,4.3515,4.3515,4.3515,4.3515,4.3515,4.3515,4.3445,4.3232,4.3214,4.2753,4.1582,4.1473,4.1082,4.0154,4.0113,3.9774,3.9039,3.8294,3.755,3.6829,3.6028,3.56,3.56,3.56,3.56,3.56,3.56,3.56,3.56,3.56,3.56,3.56,3.56,3.56,3.56,3.56,3.56,3.56,3.56,3.56,3.56,3.56,3.56,3.56,3.56,3.56,3.56,3.56,3.543,3.5115,3.4641,3.4155,3.3613,3.3119,3.2814,3.2679,3.2949,3.3017,3.3085,3.3355,3.3051,3.2544,3.2022,3.1549,3.119,3.119,3.119,3.119,3.119,3.119,3.119,3.119,3.119,3.1089,3.0852,3.0412,2.9886,2.9345,2.8398,2.7689,2.7418,2.6962,2.6691,2.6691,2.6691,2.6691,2.6691,2.6691,2.6691,2.6691,2.6691,2.6218,2.5203,2.4474,2.3864,2.3376,2.2617,2.2313,3.9185,4.0555,4.1889,4.1339,4.2226,4.3232,4.3232,4.3356,4.3515,4.3515,4.3515,4.3515,4.3515,4.3515,4.3515,4.3515,4.3515,4.3515,4.3515,4.3515,4.3515,4.3515,4.3515,4.3123,4.2185,4.1916,4.142,4.0466,4.0204,3.9774,3.9039,3.8294,3.7449,3.6434,3.5893,3.56,3.56,3.56,3.56,3.56,3.56,3.56,3.56,3.56,3.56,3.56,3.56,3.56,3.56,3.56,3.56,3.56,3.56,3.56,3.56,3.56,3.56,3.56,3.56,3.56,3.56,3.56,3.543,3.5148,3.4641,3.4336,3.4032,3.3558,3.3423,3.3457,3.3694,3.3964,3.4146,3.4146,3.3592,3.297,3.2733,3.1901,3.119,3.119,3.119,3.119,3.119,3.119,3.119,3.119,3.119,3.119,3.119,3.0784,3.0378,3.0142,2.9176,2.8365,2.7858,2.7368,2.6962,2.6725,2.6691,2.6691,2.6691,2.6691,2.6691,2.6691,2.6691,2.6454,2.5981,2.5236,2.4628,2.412,2.3376,2.2902,0.0,0.0,0.0,4.0551,4.1612,4.2655,4.2674,4.3105,4.3497,4.3497,4.3515,4.3515,4.3515,4.3515,4.3515,4.3515,4.3515,4.3515,4.3515,4.3515,4.3515,4.3515,4.3515,4.3286,4.2732,4.2144,4.1573,4.1059,4.0451,3.9808,3.9073,3.8328,3.7188,3.5667,3.56,3.56,3.56,3.56,3.56,3.56,3.56,3.56,3.56,3.56,3.56,3.56,3.56,3.56,3.56,3.56,3.56,3.56,3.56,3.56,3.56,3.56,3.56,3.56,3.56,3.56,3.56,3.56,3.5115,3.4539,3.4539,3.4032,3.3457,3.3457,3.3457,3.3626,3.4336,3.5081,3.56,3.56,3.5047,3.4303,3.3558,3.2273,3.1224,3.119,3.119,3.119,3.119,3.119,3.119,3.119,3.119,3.119,3.119,3.119,3.092,3.0209,3.0089,2.948,2.7993,2.7824,2.7486,2.6793,2.6742,2.6691,2.6725,2.6691,2.6691,2.6691,2.6691,2.6691,2.6691,2.5981,2.5592,2.5559,2.4846,2.4135,3.6452,0.0,0.0,0.0,0.0,0.0,4.2482,4.2808,4.305,4.3445,4.3515,4.3515,4.3515,4.3515,4.3515,4.3515,4.3515,4.3515,4.3515,4.3515,4.3515,4.3515,4.3515,4.3286,4.2732,4.2144,4.1573,4.0967,4.0417,4.0011,3.9808,3.8599,3.7449,3.6502,3.5926,3.56,3.56,3.56,3.56,3.56,3.56,3.56,3.56,3.56,3.56,3.56,3.56,3.56,3.56,3.56,3.56,3.56,3.56,3.56,3.56,3.56,3.56,3.56,3.56,3.56,3.56,3.56,3.5464,3.5295,3.5295,3.516,3.4991,3.4991,3.4991,3.5025,3.5228,3.543,3.56,3.56,3.5047,3.4303,3.3558,3.2645,3.1853,3.1292,3.119,3.119,3.119,3.119,3.119,3.119,3.119,3.119,3.119,3.119,3.1123,3.092,3.0412,2.9939,2.948,2.8432,2.7959,2.8333,2.7317,2.6928,2.7452,2.6996,2.6691,2.6691,2.6691,2.6691,2.6691,2.5981,2.5592,2.5559,2.4846,2.4372,3.5613,3.6618,3.7786,3.7813,0.0,0.0,4.1231,4.1695,4.2106,4.2996,4.3178,4.3232,4.3463,4.3515,4.3515,4.3515,4.3515,4.3515,4.3515,4.3515,4.3515,4.3515,4.3791,4.3759,4.3105,4.2809,4.2292,4.1353,4.0767,4.0182,3.9673,3.8836,3.8024,3.728,3.6502,3.6096,3.6096,3.5769,3.56,3.56,3.56,3.56,3.56,3.56,3.56,3.56,3.56,3.56,3.56,3.56,3.56,3.56,3.56,3.56,3.56,3.56,3.56,3.56,3.56,3.56,3.56,3.56,3.56,3.56,3.56,3.56,3.56,3.56,3.56,3.56,3.56,3.56,3.56,3.56,3.5261,3.4776,3.4032,3.3525,3.2835,3.1461,3.119,3.119,3.119,3.119,3.119,3.119,3.119,3.119,3.119,3.119,3.119,3.119,3.0818,3.0446,3.0142,2.8991,2.8484,2.8976,2.7554,2.7029,2.7756,2.7097,2.6691,2.6691,2.6691,2.6691,2.6691,2.6251,2.6048,2.6048,2.5304,2.4982,3.5519,3.5975,3.6508,3.6569,3.7547,0.0,3.9463,4.017,4.0946,4.2203,4.2521,4.277,4.3303,4.3391,4.3445,4.3497,4.3515,4.3515,4.3515,4.3515,4.3551,4.3608,4.4268,4.4452,4.3828,4.385,4.336,4.203,4.123,4.0326,3.9189,3.9039,3.87,3.8058,3.7212,3.6795,3.6795,3.5994,3.56,3.56,3.56,3.56,3.56,3.56,3.56,3.56,3.56,3.56,3.56,3.56,3.56,3.56,3.56,3.56,3.56,3.56,3.56,3.56,3.56,3.56,3.56,3.56,3.56,3.56,3.56,3.56,3.56,3.56,3.56,3.56,3.56,3.56,3.56,3.56,3.56,3.5397,3.4641,3.4506,3.3897,3.1833,3.136,3.1292,3.119,3.119,3.119,3.119,3.119,3.119,3.119,3.119,3.119,3.119,3.119,3.092,3.0277,2.9533,2.9179,2.9247,2.7825,2.73,2.8027,2.7266,2.6826,2.6826,2.6725,2.6691,2.6691,2.6691,2.6691,2.6657,2.6015,2.5728,3.5519,3.5619,3.5878,3.6446,3.6809,0.0,3.8558,3.9438,4.0175,4.0894,4.1519,4.218,4.2751,4.2882,4.3013,4.3445,4.3515,4.3515,4.3515,4.3515,4.3718,4.4378,4.4599,4.4892,4.5369,4.4505,4.3596,4.2817,4.1231,4.0136,3.991,3.9309,3.8937,3.8802,3.7506,3.6795,3.6795,3.5994,3.56,3.56,3.56,3.56,3.56,3.56,3.56,3.56,3.56,3.56,3.56,3.56,3.56,3.56,3.56,3.56,3.56,3.56,3.56,3.56,3.56,3.56,3.56,3.56,3.56,3.56,3.56,3.56,3.56,3.56,3.56,3.56,3.56,3.56,3.56,3.56,3.56,3.5397,3.4641,3.4506,3.4201,3.3186,3.2476,3.1887,3.1292,3.119,3.119,3.119,3.119,3.119,3.119,3.119,3.119,3.119,3.119,3.1123,3.0987,3.0311,3.0142,3.0717,2.9382,2.889,2.9616,2.8331,2.7587,2.7587,2.6996,2.6691,2.6691,2.6691,2.6691,2.6691,2.6556,2.6488,3.5519,3.5519,3.5587,3.5943,3.6045,0.0,0.0,3.7936,3.85,3.9421,3.9945,4.0535,4.1478,4.167,4.1995,4.2959,4.3105,4.3196,4.348,4.3515,4.3791,4.4599,4.5039,4.5443,4.5847,4.5314,4.42,4.2534,4.0974,4.0113,4.0113,3.9774,3.9571,3.9571,3.8125,3.7347,3.7347,3.6197,3.56,3.56,3.56,3.56,3.56,3.56,3.56,3.56,3.56,3.56,3.56,3.56,3.56,3.56,3.56,3.56,3.56,3.56,3.56,3.56,3.56,3.56,3.56,3.56,3.56,3.56,3.56,3.56,3.56,3.56,3.56,3.56,3.56,3.56,3.56,3.56,3.56,3.5498,3.5148,3.5047,3.4844,3.41,3.3626,3.3173,3.2408,3.1968,3.1752,3.1752,3.1427,3.119,3.119,3.119,3.119,3.119,3.119,3.119,3.119,3.0514,3.0412,3.1157,2.9822,2.9348,3.0074,2.8991,2.8213,2.7824,2.7097,2.6691,2.6691,2.6691,2.6691,2.6691,2.6691,2.6691,3.5519,3.5519,3.5519,3.5519,3.5485,3.5646,0.0,0.0,0.0,3.8001,3.8375,3.8865,4.0001,4.0145,4.0574,4.2047,4.2183,4.238,4.3051,4.316,4.356,4.4563,4.5259,4.5736,4.5883,4.5663,4.4464,4.2002,4.0838,4.0204,4.0113,4.0113,4.0113,4.0113,3.8667,3.7922,3.7922,3.6377,3.56,3.56,3.56,3.56,3.56,3.56,3.56,3.56,3.56,3.56,3.56,3.56,3.56,3.56,3.56,3.56,3.56,3.56,3.56,3.56,3.56,3.56,3.56,3.56,3.56,3.56,3.56,3.56,3.56,3.56,3.56,3.56,3.56,3.56,3.56,3.56,3.56,3.56,3.56,3.56,3.543,3.4844,3.4709,3.4438,3.3558,3.278,3.2293,3.2293,3.1684,3.119,3.119,3.119,3.119,3.119,3.119,3.119,3.119,3.0649,3.0581,3.1157,3.0093,2.9668,3.0311,2.96,2.8755,2.7824,2.7232,2.6826,2.6691,2.6691,2.6691,2.6691,2.6691,2.6691,3.5519,3.5519,3.5519,3.5519,3.5494,3.5529,3.5589,0.0,3.6659,3.6781,0.0,3.8112,3.8718,0.0,0.0,4.0516,4.0381,4.0494,4.1795,4.2,4.2653,4.4491,4.4764,4.5112,4.5847,4.4816,4.3476,4.1924,4.1161,4.0601,4.0138,4.0113,4.0113,4.0113,3.8667,3.7922,3.7922,3.6377,3.56,3.56,3.56,3.56,3.56,3.56,3.56,3.56,3.56,3.56,3.56,3.56,3.56,3.56,3.56,3.56,3.56,3.56,3.56,3.56,3.56,3.56,3.56,3.56,3.56,3.56,3.56,3.56,3.56,3.56,3.56,3.56,3.56,3.56,3.56,3.56,3.56,3.56,3.56,3.56,3.5566,3.5498,3.5464,3.5025,3.366,3.278,3.2293,3.2293,3.1684,3.119,3.119,3.119,3.119,3.119,3.119,3.119,3.119,3.1123,3.1089,3.119,3.1021,3.0987,3.1055,3.0378,2.9277,2.7824,2.7722,2.735,2.6691,2.6691,2.6691,2.6691,2.6691,2.6691,3.5519,3.5519,3.5519,3.5519,3.5519,3.5519,3.5519,3.527,3.5275,3.5817,0.0,0.0,0.0,0.0,0.0,0.0,3.9608,4.0053,4.0996,4.149,4.2409,4.4029,4.4233,4.4472,4.515,4.4432,4.3324,4.1924,4.1228,4.0672,4.0138,4.0113,4.0113,4.0113,3.8667,3.7922,3.7922,3.6377,3.56,3.56,3.56,3.56,3.56,3.56,3.56,3.56,3.56,3.56,3.56,3.56,3.56,3.56,3.56,3.56,3.56,3.56,3.56,3.56,3.56,3.56,3.56,3.56,3.56,3.56,3.56,3.56,3.56,3.56,3.56,3.56,3.56,3.56,3.56,3.56,3.56,3.56,3.56,3.56,3.56,3.56,3.56,3.5397,3.4788,3.4066,3.3423,3.2983,3.2327,3.1684,3.1258,3.119,3.119,3.119,3.119,3.119,3.119,3.119,3.119,3.119,3.119,3.119,3.119,3.048,2.9785,2.9142,2.8263,2.7655,2.735,2.6894,2.6691,2.6708,2.6922,2.7051,3.5519,3.5519,3.5519,3.5519,3.5519,3.5519,3.5519,3.4938,3.461,3.5359,3.4946,0.0,0.0,0.0,3.6527,3.7838,0.0,3.8979,3.9968,4.0631,4.1582,4.3115,4.3324,4.3523,4.409,4.3657,4.2813,4.1652,4.1138,4.0672,4.0138,4.0113,4.0113,4.0113,3.8667,3.7922,3.7922,3.6377,3.56,3.56,3.56,3.56,3.56,3.56,3.56,3.56,3.56,3.56,3.56,3.56,3.56,3.56,3.56,3.56,3.56,3.56,3.56,3.56,3.56,3.56,3.56,3.56,3.56,3.56,3.56,3.56,3.56,3.56,3.56,3.56,3.56,3.56,3.56,3.56,3.56,3.56,3.56,3.56,3.56,3.56,3.56,3.56,3.56,3.4979,3.4303,3.3795,3.2903,3.2124,3.1582,3.1326,3.119,3.119,3.119,3.119,3.119,3.119,3.119,3.119,3.119,3.119,3.119,3.0683,3.0311,3.0108,2.9007,2.8229,2.779,2.7249,2.6962,2.6891,2.7162,2.7303,3.5519,3.5519,3.5519,3.5519,3.5519,3.5519,3.5519,3.5457,3.5457,3.5519,3.5489,3.5459,3.5522,3.5015,3.5029,3.6445,3.6132,0.0,0.0,3.8989,3.9707,4.1639,4.1867,4.2098,4.271,4.2236,4.1595,4.099,4.092,4.0672,4.0138,4.0113,4.0113,4.0113,3.8667,3.7922,3.7922,3.6377,3.56,3.56,3.56,3.56,3.56,3.56,3.56,3.56,3.56,3.56,3.56,3.56,3.56,3.56,3.56,3.56,3.56,3.56,3.56,3.56,3.56,3.56,3.56,3.56,3.56,3.56,3.56,3.56,3.56,3.56,3.56,3.56,3.56,3.56,3.56,3.56,3.56,3.56,3.56,3.56,3.56,3.56,3.56,3.56,3.56,3.4979,3.4472,3.4472,3.3241,3.2293,3.2259,3.165,3.119,3.119,3.119,3.119,3.119,3.119,3.119,3.119,3.119,3.119,3.119,3.119,3.0818,3.0089,3.0074,2.9277,2.779,2.779,2.7606,2.7288,2.7303,2.7303,0.0,3.5878,3.5519,3.5519,3.5519,3.5519,3.5519,3.5001,3.4706,3.5359,3.4971,3.4739,3.5392,3.531,3.5317,3.5785,3.6075,3.6502,0.0,3.8241,3.9484,4.1024,4.1573,4.1874,4.2062,4.1916,4.1538,4.0967,4.092,4.0672,4.0138,4.0113,4.0113,4.0113,3.8667,3.7922,3.7922,3.6377,3.56,3.56,3.56,3.56,3.56,3.56,3.56,3.56,3.56,3.56,3.56,3.56,3.56,3.56,3.56,3.56,3.56,3.56,3.56,3.56,3.56,3.56,3.56,3.56,3.56,3.56,3.56,3.56,3.56,3.56,3.56,3.56,3.56,3.56,3.56,3.56,3.56,3.56,3.56,3.56,3.56,3.56,3.56,3.56,3.56,3.5397,3.5081,3.4573,3.4087,3.358,3.3085,3.2395,3.1921,3.1921,3.1495,3.119,3.119,3.119,3.119,3.119,3.119,3.119,3.119,3.119,3.1089,3.0818,3.0345,2.9818,2.9311,2.8822,2.8539,2.8425,2.8417,2.8152,3.6661,3.6259,0.0,3.5554,3.5519,3.5519,3.5519,3.5001,3.4739,3.5359,3.4971,3.4739,3.5392,3.5519,3.5519,3.5519,3.5879,3.6291,0.0,3.77,3.8929,4.0034,4.0769,4.1263,4.1451,4.1308,4.1036,4.0648,4.0625,4.0456,4.0138,4.0113,4.0113,4.0113,3.8903,3.8159,3.7922,3.6671,3.5893,3.56,3.56,3.56,3.56,3.56,3.56,3.56,3.56,3.56,3.56,3.56,3.56,3.56,3.56,3.56,3.56,3.56,3.56,3.56,3.56,3.56,3.56,3.56,3.56,3.56,3.56,3.56,3.56,3.56,3.56,3.56,3.56,3.56,3.56,3.56,3.56,3.56,3.56,3.56,3.56,3.56,3.56,3.56,3.56,3.56,3.543,3.4979,3.4675,3.4336,3.3863,3.3152,3.2598,3.2327,3.1887,3.1461,3.1224,3.119,3.119,3.119,3.119,3.119,3.119,3.119,3.119,3.119,3.0717,3.0378,3.0108,2.9634,2.9281,2.8994,2.9005,2.8685]}]]